<?xml version="1.0" encoding="UTF-8" standalone="no" ?>
<gpx xmlns="http://www.topografix.com/GPX/1/1" xmlns:xsi="http://www.w3.org/2001/XMLSchema-instance" xsi:schemaLocation="http://www.topografix.com/GPX/1/1 http://www.topografix.com/GPX/1/1/gpx.xsd" version="1.1" creator="VisuGPX - https://www.visugpx.com">
  <metadata>
    <name>Varrains Chacé</name>
    <desc><![CDATA[Sortie du 20/2/2011 après-midi]]></desc>
  </metadata>
  <trk>
    <name><![CDATA[2011-02-20 13:32]]></name>
    <desc><![CDATA[]]></desc>
    <trkseg>
      <trkpt lat="47.22619" lon="-0.06707">
        <ele>111</ele>
        <time>2011-02-20T12:33:02Z</time>
      </trkpt>
      <trkpt lat="47.22619" lon="-0.06707">
        <ele>111</ele>
        <time>2011-02-20T12:33:02Z</time>
      </trkpt>
      <trkpt lat="47.22619" lon="-0.06707">
        <ele>111</ele>
        <time>2011-02-20T12:33:04Z</time>
      </trkpt>
      <trkpt lat="47.22625" lon="-0.06716">
        <ele>103</ele>
        <time>2011-02-20T12:33:05Z</time>
      </trkpt>
      <trkpt lat="47.22625" lon="-0.06716">
        <ele>103</ele>
        <time>2011-02-20T12:33:05Z</time>
      </trkpt>
      <trkpt lat="47.22626" lon="-0.06722">
        <ele>103</ele>
        <time>2011-02-20T12:33:16Z</time>
      </trkpt>
      <trkpt lat="47.22626" lon="-0.06723">
        <ele>103</ele>
        <time>2011-02-20T12:33:17Z</time>
      </trkpt>
      <trkpt lat="47.22627" lon="-0.0673">
        <ele>103</ele>
        <time>2011-02-20T12:33:36Z</time>
      </trkpt>
      <trkpt lat="47.22626" lon="-0.06736">
        <ele>103</ele>
        <time>2011-02-20T12:33:41Z</time>
      </trkpt>
      <trkpt lat="47.22626" lon="-0.06744">
        <ele>103</ele>
        <time>2011-02-20T12:33:45Z</time>
      </trkpt>
      <trkpt lat="47.22627" lon="-0.06751">
        <ele>103</ele>
        <time>2011-02-20T12:33:48Z</time>
      </trkpt>
      <trkpt lat="47.22628" lon="-0.06759">
        <ele>103</ele>
        <time>2011-02-20T12:33:51Z</time>
      </trkpt>
      <trkpt lat="47.22629" lon="-0.06766">
        <ele>103</ele>
        <time>2011-02-20T12:33:54Z</time>
      </trkpt>
      <trkpt lat="47.22627" lon="-0.06775">
        <ele>103</ele>
        <time>2011-02-20T12:33:57Z</time>
      </trkpt>
      <trkpt lat="47.22625" lon="-0.06783">
        <ele>103</ele>
        <time>2011-02-20T12:34:00Z</time>
      </trkpt>
      <trkpt lat="47.22623" lon="-0.0679">
        <ele>102</ele>
        <time>2011-02-20T12:34:04Z</time>
      </trkpt>
      <trkpt lat="47.22622" lon="-0.06797">
        <ele>102</ele>
        <time>2011-02-20T12:34:09Z</time>
      </trkpt>
      <trkpt lat="47.22622" lon="-0.06805">
        <ele>102</ele>
        <time>2011-02-20T12:34:14Z</time>
      </trkpt>
      <trkpt lat="47.22622" lon="-0.06813">
        <ele>102</ele>
        <time>2011-02-20T12:34:19Z</time>
      </trkpt>
      <trkpt lat="47.22619" lon="-0.0682">
        <ele>102</ele>
        <time>2011-02-20T12:34:25Z</time>
      </trkpt>
      <trkpt lat="47.22616" lon="-0.06825">
        <ele>102</ele>
        <time>2011-02-20T12:34:30Z</time>
      </trkpt>
      <trkpt lat="47.22612" lon="-0.0683">
        <ele>102</ele>
        <time>2011-02-20T12:34:35Z</time>
      </trkpt>
      <trkpt lat="47.22607" lon="-0.06833">
        <ele>102</ele>
        <time>2011-02-20T12:34:39Z</time>
      </trkpt>
      <trkpt lat="47.22602" lon="-0.06836">
        <ele>102</ele>
        <time>2011-02-20T12:34:43Z</time>
      </trkpt>
      <trkpt lat="47.22598" lon="-0.06839">
        <ele>102</ele>
        <time>2011-02-20T12:34:47Z</time>
      </trkpt>
      <trkpt lat="47.22593" lon="-0.06842">
        <ele>102</ele>
        <time>2011-02-20T12:34:50Z</time>
      </trkpt>
      <trkpt lat="47.22589" lon="-0.06845">
        <ele>102</ele>
        <time>2011-02-20T12:34:53Z</time>
      </trkpt>
      <trkpt lat="47.22584" lon="-0.06848">
        <ele>101</ele>
        <time>2011-02-20T12:34:57Z</time>
      </trkpt>
      <trkpt lat="47.2258" lon="-0.06851">
        <ele>101</ele>
        <time>2011-02-20T12:35:01Z</time>
      </trkpt>
      <trkpt lat="47.22576" lon="-0.06854">
        <ele>101</ele>
        <time>2011-02-20T12:35:05Z</time>
      </trkpt>
      <trkpt lat="47.22572" lon="-0.06858">
        <ele>101</ele>
        <time>2011-02-20T12:35:09Z</time>
      </trkpt>
      <trkpt lat="47.22568" lon="-0.06863">
        <ele>101</ele>
        <time>2011-02-20T12:35:13Z</time>
      </trkpt>
      <trkpt lat="47.22566" lon="-0.0687">
        <ele>101</ele>
        <time>2011-02-20T12:35:17Z</time>
      </trkpt>
      <trkpt lat="47.22565" lon="-0.06877">
        <ele>100</ele>
        <time>2011-02-20T12:35:21Z</time>
      </trkpt>
      <trkpt lat="47.22565" lon="-0.06885">
        <ele>100</ele>
        <time>2011-02-20T12:35:25Z</time>
      </trkpt>
      <trkpt lat="47.22566" lon="-0.06893">
        <ele>100</ele>
        <time>2011-02-20T12:35:29Z</time>
      </trkpt>
      <trkpt lat="47.22568" lon="-0.069">
        <ele>100</ele>
        <time>2011-02-20T12:35:33Z</time>
      </trkpt>
      <trkpt lat="47.2257" lon="-0.06905">
        <ele>99</ele>
        <time>2011-02-20T12:35:37Z</time>
      </trkpt>
      <trkpt lat="47.22573" lon="-0.06912">
        <ele>99</ele>
        <time>2011-02-20T12:35:42Z</time>
      </trkpt>
      <trkpt lat="47.22575" lon="-0.06918">
        <ele>99</ele>
        <time>2011-02-20T12:35:46Z</time>
      </trkpt>
      <trkpt lat="47.22577" lon="-0.06925">
        <ele>99</ele>
        <time>2011-02-20T12:35:50Z</time>
      </trkpt>
      <trkpt lat="47.22579" lon="-0.06931">
        <ele>98</ele>
        <time>2011-02-20T12:35:54Z</time>
      </trkpt>
      <trkpt lat="47.22582" lon="-0.06937">
        <ele>98</ele>
        <time>2011-02-20T12:35:58Z</time>
      </trkpt>
      <trkpt lat="47.22584" lon="-0.06944">
        <ele>98</ele>
        <time>2011-02-20T12:36:02Z</time>
      </trkpt>
      <trkpt lat="47.22586" lon="-0.06951">
        <ele>98</ele>
        <time>2011-02-20T12:36:06Z</time>
      </trkpt>
      <trkpt lat="47.2259" lon="-0.06957">
        <ele>98</ele>
        <time>2011-02-20T12:36:10Z</time>
      </trkpt>
      <trkpt lat="47.22593" lon="-0.06963">
        <ele>97</ele>
        <time>2011-02-20T12:36:14Z</time>
      </trkpt>
      <trkpt lat="47.22596" lon="-0.06969">
        <ele>97</ele>
        <time>2011-02-20T12:36:18Z</time>
      </trkpt>
      <trkpt lat="47.22598" lon="-0.06976">
        <ele>97</ele>
        <time>2011-02-20T12:36:22Z</time>
      </trkpt>
      <trkpt lat="47.226" lon="-0.06982">
        <ele>97</ele>
        <time>2011-02-20T12:36:26Z</time>
      </trkpt>
      <trkpt lat="47.22602" lon="-0.06989">
        <ele>97</ele>
        <time>2011-02-20T12:36:30Z</time>
      </trkpt>
      <trkpt lat="47.22604" lon="-0.06995">
        <ele>97</ele>
        <time>2011-02-20T12:36:34Z</time>
      </trkpt>
      <trkpt lat="47.22606" lon="-0.07001">
        <ele>97</ele>
        <time>2011-02-20T12:36:38Z</time>
      </trkpt>
      <trkpt lat="47.22608" lon="-0.07007">
        <ele>97</ele>
        <time>2011-02-20T12:36:42Z</time>
      </trkpt>
      <trkpt lat="47.2261" lon="-0.07014">
        <ele>96</ele>
        <time>2011-02-20T12:36:46Z</time>
      </trkpt>
      <trkpt lat="47.22612" lon="-0.0702">
        <ele>96</ele>
        <time>2011-02-20T12:36:50Z</time>
      </trkpt>
      <trkpt lat="47.22614" lon="-0.07027">
        <ele>96</ele>
        <time>2011-02-20T12:36:54Z</time>
      </trkpt>
      <trkpt lat="47.22616" lon="-0.07033">
        <ele>96</ele>
        <time>2011-02-20T12:36:58Z</time>
      </trkpt>
      <trkpt lat="47.22618" lon="-0.0704">
        <ele>96</ele>
        <time>2011-02-20T12:37:02Z</time>
      </trkpt>
      <trkpt lat="47.22619" lon="-0.07047">
        <ele>96</ele>
        <time>2011-02-20T12:37:06Z</time>
      </trkpt>
      <trkpt lat="47.22621" lon="-0.07053">
        <ele>96</ele>
        <time>2011-02-20T12:37:10Z</time>
      </trkpt>
      <trkpt lat="47.22622" lon="-0.0706">
        <ele>95</ele>
        <time>2011-02-20T12:37:14Z</time>
      </trkpt>
      <trkpt lat="47.22624" lon="-0.07067">
        <ele>95</ele>
        <time>2011-02-20T12:37:18Z</time>
      </trkpt>
      <trkpt lat="47.22625" lon="-0.07074">
        <ele>95</ele>
        <time>2011-02-20T12:37:22Z</time>
      </trkpt>
      <trkpt lat="47.22626" lon="-0.07081">
        <ele>95</ele>
        <time>2011-02-20T12:37:26Z</time>
      </trkpt>
      <trkpt lat="47.22626" lon="-0.07088">
        <ele>95</ele>
        <time>2011-02-20T12:37:30Z</time>
      </trkpt>
      <trkpt lat="47.22627" lon="-0.07096">
        <ele>95</ele>
        <time>2011-02-20T12:37:34Z</time>
      </trkpt>
      <trkpt lat="47.22628" lon="-0.07103">
        <ele>95</ele>
        <time>2011-02-20T12:37:38Z</time>
      </trkpt>
      <trkpt lat="47.22628" lon="-0.07109">
        <ele>95</ele>
        <time>2011-02-20T12:37:42Z</time>
      </trkpt>
      <trkpt lat="47.22629" lon="-0.07116">
        <ele>95</ele>
        <time>2011-02-20T12:37:46Z</time>
      </trkpt>
      <trkpt lat="47.22629" lon="-0.07123">
        <ele>95</ele>
        <time>2011-02-20T12:37:50Z</time>
      </trkpt>
      <trkpt lat="47.22629" lon="-0.0713">
        <ele>95</ele>
        <time>2011-02-20T12:37:54Z</time>
      </trkpt>
      <trkpt lat="47.2263" lon="-0.07137">
        <ele>95</ele>
        <time>2011-02-20T12:37:58Z</time>
      </trkpt>
      <trkpt lat="47.2263" lon="-0.07145">
        <ele>95</ele>
        <time>2011-02-20T12:38:03Z</time>
      </trkpt>
      <trkpt lat="47.22631" lon="-0.07152">
        <ele>95</ele>
        <time>2011-02-20T12:38:07Z</time>
      </trkpt>
      <trkpt lat="47.22631" lon="-0.0716">
        <ele>95</ele>
        <time>2011-02-20T12:38:12Z</time>
      </trkpt>
      <trkpt lat="47.22631" lon="-0.07167">
        <ele>95</ele>
        <time>2011-02-20T12:38:16Z</time>
      </trkpt>
      <trkpt lat="47.22631" lon="-0.07173">
        <ele>95</ele>
        <time>2011-02-20T12:38:20Z</time>
      </trkpt>
      <trkpt lat="47.22632" lon="-0.0718">
        <ele>95</ele>
        <time>2011-02-20T12:38:24Z</time>
      </trkpt>
      <trkpt lat="47.22632" lon="-0.07187">
        <ele>95</ele>
        <time>2011-02-20T12:38:28Z</time>
      </trkpt>
      <trkpt lat="47.22632" lon="-0.07194">
        <ele>95</ele>
        <time>2011-02-20T12:38:32Z</time>
      </trkpt>
      <trkpt lat="47.22632" lon="-0.07201">
        <ele>95</ele>
        <time>2011-02-20T12:38:36Z</time>
      </trkpt>
      <trkpt lat="47.22632" lon="-0.07208">
        <ele>95</ele>
        <time>2011-02-20T12:38:40Z</time>
      </trkpt>
      <trkpt lat="47.22632" lon="-0.07215">
        <ele>95</ele>
        <time>2011-02-20T12:38:44Z</time>
      </trkpt>
      <trkpt lat="47.22632" lon="-0.07221">
        <ele>95</ele>
        <time>2011-02-20T12:38:48Z</time>
      </trkpt>
      <trkpt lat="47.22632" lon="-0.07228">
        <ele>95</ele>
        <time>2011-02-20T12:38:52Z</time>
      </trkpt>
      <trkpt lat="47.22632" lon="-0.07235">
        <ele>95</ele>
        <time>2011-02-20T12:38:56Z</time>
      </trkpt>
      <trkpt lat="47.22633" lon="-0.07241">
        <ele>95</ele>
        <time>2011-02-20T12:39:00Z</time>
      </trkpt>
      <trkpt lat="47.22633" lon="-0.07248">
        <ele>95</ele>
        <time>2011-02-20T12:39:04Z</time>
      </trkpt>
      <trkpt lat="47.22633" lon="-0.07255">
        <ele>95</ele>
        <time>2011-02-20T12:39:08Z</time>
      </trkpt>
      <trkpt lat="47.22634" lon="-0.07262">
        <ele>95</ele>
        <time>2011-02-20T12:39:12Z</time>
      </trkpt>
      <trkpt lat="47.22635" lon="-0.07269">
        <ele>95</ele>
        <time>2011-02-20T12:39:16Z</time>
      </trkpt>
      <trkpt lat="47.22636" lon="-0.07276">
        <ele>95</ele>
        <time>2011-02-20T12:39:20Z</time>
      </trkpt>
      <trkpt lat="47.22638" lon="-0.07282">
        <ele>95</ele>
        <time>2011-02-20T12:39:24Z</time>
      </trkpt>
      <trkpt lat="47.22638" lon="-0.07289">
        <ele>95</ele>
        <time>2011-02-20T12:39:28Z</time>
      </trkpt>
      <trkpt lat="47.2264" lon="-0.07296">
        <ele>95</ele>
        <time>2011-02-20T12:39:32Z</time>
      </trkpt>
      <trkpt lat="47.22641" lon="-0.07302">
        <ele>95</ele>
        <time>2011-02-20T12:39:36Z</time>
      </trkpt>
      <trkpt lat="47.22642" lon="-0.07309">
        <ele>95</ele>
        <time>2011-02-20T12:39:40Z</time>
      </trkpt>
      <trkpt lat="47.22643" lon="-0.07316">
        <ele>95</ele>
        <time>2011-02-20T12:39:44Z</time>
      </trkpt>
      <trkpt lat="47.22644" lon="-0.07322">
        <ele>95</ele>
        <time>2011-02-20T12:39:48Z</time>
      </trkpt>
      <trkpt lat="47.22645" lon="-0.07329">
        <ele>95</ele>
        <time>2011-02-20T12:39:52Z</time>
      </trkpt>
      <trkpt lat="47.22647" lon="-0.07337">
        <ele>95</ele>
        <time>2011-02-20T12:39:57Z</time>
      </trkpt>
      <trkpt lat="47.22648" lon="-0.07343">
        <ele>95</ele>
        <time>2011-02-20T12:40:01Z</time>
      </trkpt>
      <trkpt lat="47.22649" lon="-0.0735">
        <ele>95</ele>
        <time>2011-02-20T12:40:05Z</time>
      </trkpt>
      <trkpt lat="47.2265" lon="-0.07356">
        <ele>95</ele>
        <time>2011-02-20T12:40:09Z</time>
      </trkpt>
      <trkpt lat="47.22651" lon="-0.07363">
        <ele>95</ele>
        <time>2011-02-20T12:40:13Z</time>
      </trkpt>
      <trkpt lat="47.22652" lon="-0.07369">
        <ele>95</ele>
        <time>2011-02-20T12:40:17Z</time>
      </trkpt>
      <trkpt lat="47.22654" lon="-0.07376">
        <ele>95</ele>
        <time>2011-02-20T12:40:21Z</time>
      </trkpt>
      <trkpt lat="47.22655" lon="-0.07382">
        <ele>96</ele>
        <time>2011-02-20T12:40:25Z</time>
      </trkpt>
      <trkpt lat="47.22657" lon="-0.07389">
        <ele>96</ele>
        <time>2011-02-20T12:40:29Z</time>
      </trkpt>
      <trkpt lat="47.2266" lon="-0.07395">
        <ele>96</ele>
        <time>2011-02-20T12:40:33Z</time>
      </trkpt>
      <trkpt lat="47.22664" lon="-0.074">
        <ele>95</ele>
        <time>2011-02-20T12:40:37Z</time>
      </trkpt>
      <trkpt lat="47.22669" lon="-0.07402">
        <ele>95</ele>
        <time>2011-02-20T12:40:41Z</time>
      </trkpt>
      <trkpt lat="47.22674" lon="-0.07401">
        <ele>95</ele>
        <time>2011-02-20T12:40:45Z</time>
      </trkpt>
      <trkpt lat="47.2268" lon="-0.07399">
        <ele>95</ele>
        <time>2011-02-20T12:40:49Z</time>
      </trkpt>
      <trkpt lat="47.22685" lon="-0.07397">
        <ele>95</ele>
        <time>2011-02-20T12:40:53Z</time>
      </trkpt>
      <trkpt lat="47.2269" lon="-0.07397">
        <ele>95</ele>
        <time>2011-02-20T12:40:57Z</time>
      </trkpt>
      <trkpt lat="47.22695" lon="-0.07397">
        <ele>95</ele>
        <time>2011-02-20T12:41:01Z</time>
      </trkpt>
      <trkpt lat="47.227" lon="-0.07397">
        <ele>94</ele>
        <time>2011-02-20T12:41:05Z</time>
      </trkpt>
      <trkpt lat="47.22705" lon="-0.07397">
        <ele>94</ele>
        <time>2011-02-20T12:41:09Z</time>
      </trkpt>
      <trkpt lat="47.2271" lon="-0.07397">
        <ele>94</ele>
        <time>2011-02-20T12:41:13Z</time>
      </trkpt>
      <trkpt lat="47.22715" lon="-0.07397">
        <ele>94</ele>
        <time>2011-02-20T12:41:17Z</time>
      </trkpt>
      <trkpt lat="47.22721" lon="-0.07397">
        <ele>94</ele>
        <time>2011-02-20T12:41:21Z</time>
      </trkpt>
      <trkpt lat="47.22726" lon="-0.07397">
        <ele>93</ele>
        <time>2011-02-20T12:41:25Z</time>
      </trkpt>
      <trkpt lat="47.2273" lon="-0.07397">
        <ele>93</ele>
        <time>2011-02-20T12:41:29Z</time>
      </trkpt>
      <trkpt lat="47.22735" lon="-0.07396">
        <ele>93</ele>
        <time>2011-02-20T12:41:33Z</time>
      </trkpt>
      <trkpt lat="47.2274" lon="-0.07396">
        <ele>93</ele>
        <time>2011-02-20T12:41:37Z</time>
      </trkpt>
      <trkpt lat="47.22745" lon="-0.07395">
        <ele>92</ele>
        <time>2011-02-20T12:41:41Z</time>
      </trkpt>
      <trkpt lat="47.2275" lon="-0.07395">
        <ele>92</ele>
        <time>2011-02-20T12:41:45Z</time>
      </trkpt>
      <trkpt lat="47.22755" lon="-0.07395">
        <ele>92</ele>
        <time>2011-02-20T12:41:49Z</time>
      </trkpt>
      <trkpt lat="47.2276" lon="-0.07394">
        <ele>92</ele>
        <time>2011-02-20T12:41:53Z</time>
      </trkpt>
      <trkpt lat="47.22765" lon="-0.07393">
        <ele>92</ele>
        <time>2011-02-20T12:41:57Z</time>
      </trkpt>
      <trkpt lat="47.22769" lon="-0.07392">
        <ele>92</ele>
        <time>2011-02-20T12:42:01Z</time>
      </trkpt>
      <trkpt lat="47.22774" lon="-0.07392">
        <ele>92</ele>
        <time>2011-02-20T12:42:05Z</time>
      </trkpt>
      <trkpt lat="47.22779" lon="-0.07391">
        <ele>92</ele>
        <time>2011-02-20T12:42:09Z</time>
      </trkpt>
      <trkpt lat="47.22784" lon="-0.07389">
        <ele>92</ele>
        <time>2011-02-20T12:42:13Z</time>
      </trkpt>
      <trkpt lat="47.22788" lon="-0.07388">
        <ele>92</ele>
        <time>2011-02-20T12:42:17Z</time>
      </trkpt>
      <trkpt lat="47.22793" lon="-0.07388">
        <ele>92</ele>
        <time>2011-02-20T12:42:21Z</time>
      </trkpt>
      <trkpt lat="47.22798" lon="-0.07387">
        <ele>92</ele>
        <time>2011-02-20T12:42:25Z</time>
      </trkpt>
      <trkpt lat="47.22803" lon="-0.07387">
        <ele>92</ele>
        <time>2011-02-20T12:42:29Z</time>
      </trkpt>
      <trkpt lat="47.22807" lon="-0.07386">
        <ele>92</ele>
        <time>2011-02-20T12:42:33Z</time>
      </trkpt>
      <trkpt lat="47.22812" lon="-0.07385">
        <ele>92</ele>
        <time>2011-02-20T12:42:37Z</time>
      </trkpt>
      <trkpt lat="47.22817" lon="-0.07384">
        <ele>92</ele>
        <time>2011-02-20T12:42:41Z</time>
      </trkpt>
      <trkpt lat="47.22822" lon="-0.07383">
        <ele>92</ele>
        <time>2011-02-20T12:42:45Z</time>
      </trkpt>
      <trkpt lat="47.22826" lon="-0.07381">
        <ele>92</ele>
        <time>2011-02-20T12:42:49Z</time>
      </trkpt>
      <trkpt lat="47.22831" lon="-0.07381">
        <ele>92</ele>
        <time>2011-02-20T12:42:53Z</time>
      </trkpt>
      <trkpt lat="47.22836" lon="-0.07379">
        <ele>92</ele>
        <time>2011-02-20T12:42:57Z</time>
      </trkpt>
      <trkpt lat="47.22841" lon="-0.07377">
        <ele>92</ele>
        <time>2011-02-20T12:43:01Z</time>
      </trkpt>
      <trkpt lat="47.22846" lon="-0.07376">
        <ele>92</ele>
        <time>2011-02-20T12:43:05Z</time>
      </trkpt>
      <trkpt lat="47.22851" lon="-0.07375">
        <ele>93</ele>
        <time>2011-02-20T12:43:09Z</time>
      </trkpt>
      <trkpt lat="47.22856" lon="-0.07373">
        <ele>93</ele>
        <time>2011-02-20T12:43:13Z</time>
      </trkpt>
      <trkpt lat="47.22861" lon="-0.07372">
        <ele>93</ele>
        <time>2011-02-20T12:43:17Z</time>
      </trkpt>
      <trkpt lat="47.22866" lon="-0.0737">
        <ele>93</ele>
        <time>2011-02-20T12:43:21Z</time>
      </trkpt>
      <trkpt lat="47.22871" lon="-0.07368">
        <ele>93</ele>
        <time>2011-02-20T12:43:26Z</time>
      </trkpt>
      <trkpt lat="47.22875" lon="-0.07367">
        <ele>93</ele>
        <time>2011-02-20T12:43:30Z</time>
      </trkpt>
      <trkpt lat="47.2288" lon="-0.07365">
        <ele>93</ele>
        <time>2011-02-20T12:43:34Z</time>
      </trkpt>
      <trkpt lat="47.22885" lon="-0.07364">
        <ele>93</ele>
        <time>2011-02-20T12:43:38Z</time>
      </trkpt>
      <trkpt lat="47.22889" lon="-0.07362">
        <ele>94</ele>
        <time>2011-02-20T12:43:42Z</time>
      </trkpt>
      <trkpt lat="47.22894" lon="-0.07361">
        <ele>94</ele>
        <time>2011-02-20T12:43:46Z</time>
      </trkpt>
      <trkpt lat="47.22899" lon="-0.07359">
        <ele>94</ele>
        <time>2011-02-20T12:43:50Z</time>
      </trkpt>
      <trkpt lat="47.22903" lon="-0.07358">
        <ele>94</ele>
        <time>2011-02-20T12:43:54Z</time>
      </trkpt>
      <trkpt lat="47.22908" lon="-0.07356">
        <ele>94</ele>
        <time>2011-02-20T12:43:58Z</time>
      </trkpt>
      <trkpt lat="47.22913" lon="-0.07354">
        <ele>94</ele>
        <time>2011-02-20T12:44:02Z</time>
      </trkpt>
      <trkpt lat="47.22917" lon="-0.07353">
        <ele>94</ele>
        <time>2011-02-20T12:44:06Z</time>
      </trkpt>
      <trkpt lat="47.22923" lon="-0.07351">
        <ele>95</ele>
        <time>2011-02-20T12:44:11Z</time>
      </trkpt>
      <trkpt lat="47.22927" lon="-0.07349">
        <ele>95</ele>
        <time>2011-02-20T12:44:15Z</time>
      </trkpt>
      <trkpt lat="47.22932" lon="-0.07346">
        <ele>95</ele>
        <time>2011-02-20T12:44:19Z</time>
      </trkpt>
      <trkpt lat="47.22936" lon="-0.07344">
        <ele>95</ele>
        <time>2011-02-20T12:44:23Z</time>
      </trkpt>
      <trkpt lat="47.22941" lon="-0.07341">
        <ele>95</ele>
        <time>2011-02-20T12:44:28Z</time>
      </trkpt>
      <trkpt lat="47.22945" lon="-0.07339">
        <ele>95</ele>
        <time>2011-02-20T12:44:32Z</time>
      </trkpt>
      <trkpt lat="47.2295" lon="-0.07337">
        <ele>95</ele>
        <time>2011-02-20T12:44:36Z</time>
      </trkpt>
      <trkpt lat="47.22954" lon="-0.07334">
        <ele>95</ele>
        <time>2011-02-20T12:44:40Z</time>
      </trkpt>
      <trkpt lat="47.22959" lon="-0.07332">
        <ele>95</ele>
        <time>2011-02-20T12:44:44Z</time>
      </trkpt>
      <trkpt lat="47.22963" lon="-0.0733">
        <ele>95</ele>
        <time>2011-02-20T12:44:48Z</time>
      </trkpt>
      <trkpt lat="47.22968" lon="-0.07329">
        <ele>95</ele>
        <time>2011-02-20T12:44:52Z</time>
      </trkpt>
      <trkpt lat="47.22973" lon="-0.07329">
        <ele>95</ele>
        <time>2011-02-20T12:44:56Z</time>
      </trkpt>
      <trkpt lat="47.22978" lon="-0.07328">
        <ele>95</ele>
        <time>2011-02-20T12:45:00Z</time>
      </trkpt>
      <trkpt lat="47.22983" lon="-0.07328">
        <ele>95</ele>
        <time>2011-02-20T12:45:04Z</time>
      </trkpt>
      <trkpt lat="47.22988" lon="-0.07328">
        <ele>95</ele>
        <time>2011-02-20T12:45:08Z</time>
      </trkpt>
      <trkpt lat="47.22993" lon="-0.07328">
        <ele>95</ele>
        <time>2011-02-20T12:45:12Z</time>
      </trkpt>
      <trkpt lat="47.22998" lon="-0.07327">
        <ele>95</ele>
        <time>2011-02-20T12:45:16Z</time>
      </trkpt>
      <trkpt lat="47.23003" lon="-0.07326">
        <ele>95</ele>
        <time>2011-02-20T12:45:20Z</time>
      </trkpt>
      <trkpt lat="47.23007" lon="-0.07325">
        <ele>95</ele>
        <time>2011-02-20T12:45:24Z</time>
      </trkpt>
      <trkpt lat="47.23012" lon="-0.07326">
        <ele>95</ele>
        <time>2011-02-20T12:45:28Z</time>
      </trkpt>
      <trkpt lat="47.23017" lon="-0.07329">
        <ele>95</ele>
        <time>2011-02-20T12:45:32Z</time>
      </trkpt>
      <trkpt lat="47.23021" lon="-0.07334">
        <ele>95</ele>
        <time>2011-02-20T12:45:36Z</time>
      </trkpt>
      <trkpt lat="47.23022" lon="-0.07341">
        <ele>95</ele>
        <time>2011-02-20T12:45:40Z</time>
      </trkpt>
      <trkpt lat="47.23022" lon="-0.07349">
        <ele>95</ele>
        <time>2011-02-20T12:45:44Z</time>
      </trkpt>
      <trkpt lat="47.23022" lon="-0.07356">
        <ele>95</ele>
        <time>2011-02-20T12:45:47Z</time>
      </trkpt>
      <trkpt lat="47.23021" lon="-0.07364">
        <ele>94</ele>
        <time>2011-02-20T12:45:51Z</time>
      </trkpt>
      <trkpt lat="47.23021" lon="-0.07371">
        <ele>94</ele>
        <time>2011-02-20T12:45:55Z</time>
      </trkpt>
      <trkpt lat="47.23022" lon="-0.07379">
        <ele>94</ele>
        <time>2011-02-20T12:45:59Z</time>
      </trkpt>
      <trkpt lat="47.23022" lon="-0.07386">
        <ele>94</ele>
        <time>2011-02-20T12:46:03Z</time>
      </trkpt>
      <trkpt lat="47.23022" lon="-0.07393">
        <ele>94</ele>
        <time>2011-02-20T12:46:07Z</time>
      </trkpt>
      <trkpt lat="47.23023" lon="-0.074">
        <ele>94</ele>
        <time>2011-02-20T12:46:11Z</time>
      </trkpt>
      <trkpt lat="47.23024" lon="-0.07408">
        <ele>94</ele>
        <time>2011-02-20T12:46:15Z</time>
      </trkpt>
      <trkpt lat="47.23024" lon="-0.07415">
        <ele>94</ele>
        <time>2011-02-20T12:46:19Z</time>
      </trkpt>
      <trkpt lat="47.23025" lon="-0.07423">
        <ele>94</ele>
        <time>2011-02-20T12:46:23Z</time>
      </trkpt>
      <trkpt lat="47.23026" lon="-0.0743">
        <ele>94</ele>
        <time>2011-02-20T12:46:27Z</time>
      </trkpt>
      <trkpt lat="47.23026" lon="-0.07437">
        <ele>94</ele>
        <time>2011-02-20T12:46:31Z</time>
      </trkpt>
      <trkpt lat="47.23027" lon="-0.07445">
        <ele>94</ele>
        <time>2011-02-20T12:46:35Z</time>
      </trkpt>
      <trkpt lat="47.23028" lon="-0.07452">
        <ele>94</ele>
        <time>2011-02-20T12:46:39Z</time>
      </trkpt>
      <trkpt lat="47.23029" lon="-0.07459">
        <ele>94</ele>
        <time>2011-02-20T12:46:43Z</time>
      </trkpt>
      <trkpt lat="47.2303" lon="-0.07466">
        <ele>94</ele>
        <time>2011-02-20T12:46:47Z</time>
      </trkpt>
      <trkpt lat="47.23031" lon="-0.07473">
        <ele>94</ele>
        <time>2011-02-20T12:46:51Z</time>
      </trkpt>
      <trkpt lat="47.23031" lon="-0.0748">
        <ele>94</ele>
        <time>2011-02-20T12:46:55Z</time>
      </trkpt>
      <trkpt lat="47.23032" lon="-0.07487">
        <ele>94</ele>
        <time>2011-02-20T12:46:59Z</time>
      </trkpt>
      <trkpt lat="47.23032" lon="-0.07495">
        <ele>94</ele>
        <time>2011-02-20T12:47:03Z</time>
      </trkpt>
      <trkpt lat="47.23033" lon="-0.07502">
        <ele>94</ele>
        <time>2011-02-20T12:47:07Z</time>
      </trkpt>
      <trkpt lat="47.23033" lon="-0.07508">
        <ele>94</ele>
        <time>2011-02-20T12:47:11Z</time>
      </trkpt>
      <trkpt lat="47.23034" lon="-0.07515">
        <ele>94</ele>
        <time>2011-02-20T12:47:15Z</time>
      </trkpt>
      <trkpt lat="47.23034" lon="-0.07522">
        <ele>94</ele>
        <time>2011-02-20T12:47:19Z</time>
      </trkpt>
      <trkpt lat="47.23035" lon="-0.0753">
        <ele>93</ele>
        <time>2011-02-20T12:47:23Z</time>
      </trkpt>
      <trkpt lat="47.23035" lon="-0.07537">
        <ele>93</ele>
        <time>2011-02-20T12:47:27Z</time>
      </trkpt>
      <trkpt lat="47.23035" lon="-0.07544">
        <ele>93</ele>
        <time>2011-02-20T12:47:31Z</time>
      </trkpt>
      <trkpt lat="47.23036" lon="-0.0755">
        <ele>93</ele>
        <time>2011-02-20T12:47:35Z</time>
      </trkpt>
      <trkpt lat="47.23037" lon="-0.07557">
        <ele>93</ele>
        <time>2011-02-20T12:47:39Z</time>
      </trkpt>
      <trkpt lat="47.23037" lon="-0.07564">
        <ele>93</ele>
        <time>2011-02-20T12:47:43Z</time>
      </trkpt>
      <trkpt lat="47.23036" lon="-0.07572">
        <ele>93</ele>
        <time>2011-02-20T12:47:48Z</time>
      </trkpt>
      <trkpt lat="47.23033" lon="-0.07577">
        <ele>93</ele>
        <time>2011-02-20T12:47:52Z</time>
      </trkpt>
      <trkpt lat="47.23028" lon="-0.07578">
        <ele>92</ele>
        <time>2011-02-20T12:47:56Z</time>
      </trkpt>
      <trkpt lat="47.23022" lon="-0.07576">
        <ele>92</ele>
        <time>2011-02-20T12:48:00Z</time>
      </trkpt>
      <trkpt lat="47.23017" lon="-0.07574">
        <ele>92</ele>
        <time>2011-02-20T12:48:04Z</time>
      </trkpt>
      <trkpt lat="47.23013" lon="-0.07573">
        <ele>91</ele>
        <time>2011-02-20T12:48:08Z</time>
      </trkpt>
      <trkpt lat="47.23007" lon="-0.07572">
        <ele>91</ele>
        <time>2011-02-20T12:48:13Z</time>
      </trkpt>
      <trkpt lat="47.23003" lon="-0.07571">
        <ele>91</ele>
        <time>2011-02-20T12:48:17Z</time>
      </trkpt>
      <trkpt lat="47.22998" lon="-0.0757">
        <ele>90</ele>
        <time>2011-02-20T12:48:21Z</time>
      </trkpt>
      <trkpt lat="47.22992" lon="-0.0757">
        <ele>90</ele>
        <time>2011-02-20T12:48:25Z</time>
      </trkpt>
      <trkpt lat="47.22987" lon="-0.0757">
        <ele>90</ele>
        <time>2011-02-20T12:48:29Z</time>
      </trkpt>
      <trkpt lat="47.22981" lon="-0.07569">
        <ele>90</ele>
        <time>2011-02-20T12:48:33Z</time>
      </trkpt>
      <trkpt lat="47.22976" lon="-0.07569">
        <ele>90</ele>
        <time>2011-02-20T12:48:37Z</time>
      </trkpt>
      <trkpt lat="47.2297" lon="-0.07569">
        <ele>90</ele>
        <time>2011-02-20T12:48:41Z</time>
      </trkpt>
      <trkpt lat="47.22965" lon="-0.07568">
        <ele>90</ele>
        <time>2011-02-20T12:48:45Z</time>
      </trkpt>
      <trkpt lat="47.2296" lon="-0.07568">
        <ele>90</ele>
        <time>2011-02-20T12:48:49Z</time>
      </trkpt>
      <trkpt lat="47.22955" lon="-0.07568">
        <ele>90</ele>
        <time>2011-02-20T12:48:53Z</time>
      </trkpt>
      <trkpt lat="47.2295" lon="-0.07568">
        <ele>89</ele>
        <time>2011-02-20T12:48:57Z</time>
      </trkpt>
      <trkpt lat="47.22945" lon="-0.07567">
        <ele>89</ele>
        <time>2011-02-20T12:49:01Z</time>
      </trkpt>
      <trkpt lat="47.2294" lon="-0.07567">
        <ele>89</ele>
        <time>2011-02-20T12:49:05Z</time>
      </trkpt>
      <trkpt lat="47.22935" lon="-0.07568">
        <ele>89</ele>
        <time>2011-02-20T12:49:09Z</time>
      </trkpt>
      <trkpt lat="47.22931" lon="-0.07568">
        <ele>89</ele>
        <time>2011-02-20T12:49:13Z</time>
      </trkpt>
      <trkpt lat="47.22926" lon="-0.07568">
        <ele>89</ele>
        <time>2011-02-20T12:49:17Z</time>
      </trkpt>
      <trkpt lat="47.22921" lon="-0.07567">
        <ele>89</ele>
        <time>2011-02-20T12:49:21Z</time>
      </trkpt>
      <trkpt lat="47.22916" lon="-0.07567">
        <ele>89</ele>
        <time>2011-02-20T12:49:25Z</time>
      </trkpt>
      <trkpt lat="47.22911" lon="-0.07567">
        <ele>89</ele>
        <time>2011-02-20T12:49:30Z</time>
      </trkpt>
      <trkpt lat="47.22906" lon="-0.07566">
        <ele>89</ele>
        <time>2011-02-20T12:49:34Z</time>
      </trkpt>
      <trkpt lat="47.22901" lon="-0.07566">
        <ele>89</ele>
        <time>2011-02-20T12:49:38Z</time>
      </trkpt>
      <trkpt lat="47.22896" lon="-0.07565">
        <ele>89</ele>
        <time>2011-02-20T12:49:42Z</time>
      </trkpt>
      <trkpt lat="47.22891" lon="-0.07565">
        <ele>89</ele>
        <time>2011-02-20T12:49:46Z</time>
      </trkpt>
      <trkpt lat="47.22886" lon="-0.07564">
        <ele>89</ele>
        <time>2011-02-20T12:49:50Z</time>
      </trkpt>
      <trkpt lat="47.22881" lon="-0.07564">
        <ele>89</ele>
        <time>2011-02-20T12:49:54Z</time>
      </trkpt>
      <trkpt lat="47.22876" lon="-0.07563">
        <ele>89</ele>
        <time>2011-02-20T12:49:58Z</time>
      </trkpt>
      <trkpt lat="47.22872" lon="-0.07563">
        <ele>89</ele>
        <time>2011-02-20T12:50:02Z</time>
      </trkpt>
      <trkpt lat="47.22867" lon="-0.07562">
        <ele>89</ele>
        <time>2011-02-20T12:50:06Z</time>
      </trkpt>
      <trkpt lat="47.22862" lon="-0.07561">
        <ele>89</ele>
        <time>2011-02-20T12:50:10Z</time>
      </trkpt>
      <trkpt lat="47.22857" lon="-0.07561">
        <ele>89</ele>
        <time>2011-02-20T12:50:14Z</time>
      </trkpt>
      <trkpt lat="47.22852" lon="-0.07561">
        <ele>90</ele>
        <time>2011-02-20T12:50:18Z</time>
      </trkpt>
      <trkpt lat="47.22847" lon="-0.0756">
        <ele>90</ele>
        <time>2011-02-20T12:50:22Z</time>
      </trkpt>
      <trkpt lat="47.22843" lon="-0.0756">
        <ele>90</ele>
        <time>2011-02-20T12:50:26Z</time>
      </trkpt>
      <trkpt lat="47.22838" lon="-0.07559">
        <ele>90</ele>
        <time>2011-02-20T12:50:30Z</time>
      </trkpt>
      <trkpt lat="47.22833" lon="-0.07558">
        <ele>90</ele>
        <time>2011-02-20T12:50:34Z</time>
      </trkpt>
      <trkpt lat="47.22828" lon="-0.07558">
        <ele>90</ele>
        <time>2011-02-20T12:50:38Z</time>
      </trkpt>
      <trkpt lat="47.22824" lon="-0.07557">
        <ele>90</ele>
        <time>2011-02-20T12:50:42Z</time>
      </trkpt>
      <trkpt lat="47.22819" lon="-0.07556">
        <ele>90</ele>
        <time>2011-02-20T12:50:46Z</time>
      </trkpt>
      <trkpt lat="47.22814" lon="-0.07555">
        <ele>90</ele>
        <time>2011-02-20T12:50:50Z</time>
      </trkpt>
      <trkpt lat="47.22809" lon="-0.07555">
        <ele>90</ele>
        <time>2011-02-20T12:50:54Z</time>
      </trkpt>
      <trkpt lat="47.22804" lon="-0.07554">
        <ele>90</ele>
        <time>2011-02-20T12:50:58Z</time>
      </trkpt>
      <trkpt lat="47.22799" lon="-0.07553">
        <ele>90</ele>
        <time>2011-02-20T12:51:02Z</time>
      </trkpt>
      <trkpt lat="47.22795" lon="-0.07552">
        <ele>91</ele>
        <time>2011-02-20T12:51:06Z</time>
      </trkpt>
      <trkpt lat="47.22789" lon="-0.07551">
        <ele>91</ele>
        <time>2011-02-20T12:51:11Z</time>
      </trkpt>
      <trkpt lat="47.22784" lon="-0.0755">
        <ele>91</ele>
        <time>2011-02-20T12:51:16Z</time>
      </trkpt>
      <trkpt lat="47.22778" lon="-0.07549">
        <ele>91</ele>
        <time>2011-02-20T12:51:21Z</time>
      </trkpt>
      <trkpt lat="47.22773" lon="-0.07548">
        <ele>91</ele>
        <time>2011-02-20T12:51:26Z</time>
      </trkpt>
      <trkpt lat="47.22768" lon="-0.07547">
        <ele>91</ele>
        <time>2011-02-20T12:51:30Z</time>
      </trkpt>
      <trkpt lat="47.22763" lon="-0.07546">
        <ele>91</ele>
        <time>2011-02-20T12:51:34Z</time>
      </trkpt>
      <trkpt lat="47.22759" lon="-0.07547">
        <ele>91</ele>
        <time>2011-02-20T12:51:38Z</time>
      </trkpt>
      <trkpt lat="47.22754" lon="-0.07547">
        <ele>91</ele>
        <time>2011-02-20T12:51:42Z</time>
      </trkpt>
      <trkpt lat="47.2275" lon="-0.07547">
        <ele>91</ele>
        <time>2011-02-20T12:51:46Z</time>
      </trkpt>
      <trkpt lat="47.22745" lon="-0.07548">
        <ele>91</ele>
        <time>2011-02-20T12:51:50Z</time>
      </trkpt>
      <trkpt lat="47.2274" lon="-0.07548">
        <ele>91</ele>
        <time>2011-02-20T12:51:54Z</time>
      </trkpt>
      <trkpt lat="47.22736" lon="-0.0755">
        <ele>92</ele>
        <time>2011-02-20T12:51:58Z</time>
      </trkpt>
      <trkpt lat="47.2273" lon="-0.07552">
        <ele>92</ele>
        <time>2011-02-20T12:52:03Z</time>
      </trkpt>
      <trkpt lat="47.22725" lon="-0.07554">
        <ele>92</ele>
        <time>2011-02-20T12:52:08Z</time>
      </trkpt>
      <trkpt lat="47.2272" lon="-0.07555">
        <ele>92</ele>
        <time>2011-02-20T12:52:12Z</time>
      </trkpt>
      <trkpt lat="47.22715" lon="-0.07556">
        <ele>92</ele>
        <time>2011-02-20T12:52:16Z</time>
      </trkpt>
      <trkpt lat="47.22711" lon="-0.07558">
        <ele>92</ele>
        <time>2011-02-20T12:52:20Z</time>
      </trkpt>
      <trkpt lat="47.22706" lon="-0.0756">
        <ele>92</ele>
        <time>2011-02-20T12:52:25Z</time>
      </trkpt>
      <trkpt lat="47.227" lon="-0.07562">
        <ele>92</ele>
        <time>2011-02-20T12:52:30Z</time>
      </trkpt>
      <trkpt lat="47.22696" lon="-0.07564">
        <ele>92</ele>
        <time>2011-02-20T12:52:34Z</time>
      </trkpt>
      <trkpt lat="47.22691" lon="-0.07566">
        <ele>92</ele>
        <time>2011-02-20T12:52:38Z</time>
      </trkpt>
      <trkpt lat="47.22686" lon="-0.07568">
        <ele>92</ele>
        <time>2011-02-20T12:52:42Z</time>
      </trkpt>
      <trkpt lat="47.22682" lon="-0.0757">
        <ele>92</ele>
        <time>2011-02-20T12:52:46Z</time>
      </trkpt>
      <trkpt lat="47.22676" lon="-0.07572">
        <ele>92</ele>
        <time>2011-02-20T12:52:51Z</time>
      </trkpt>
      <trkpt lat="47.22671" lon="-0.07574">
        <ele>92</ele>
        <time>2011-02-20T12:52:56Z</time>
      </trkpt>
      <trkpt lat="47.22666" lon="-0.07577">
        <ele>92</ele>
        <time>2011-02-20T12:53:01Z</time>
      </trkpt>
      <trkpt lat="47.22661" lon="-0.07578">
        <ele>92</ele>
        <time>2011-02-20T12:53:06Z</time>
      </trkpt>
      <trkpt lat="47.22655" lon="-0.0758">
        <ele>93</ele>
        <time>2011-02-20T12:53:11Z</time>
      </trkpt>
      <trkpt lat="47.2265" lon="-0.07581">
        <ele>93</ele>
        <time>2011-02-20T12:53:16Z</time>
      </trkpt>
      <trkpt lat="47.22645" lon="-0.07582">
        <ele>93</ele>
        <time>2011-02-20T12:53:20Z</time>
      </trkpt>
      <trkpt lat="47.2264" lon="-0.07584">
        <ele>93</ele>
        <time>2011-02-20T12:53:24Z</time>
      </trkpt>
      <trkpt lat="47.22635" lon="-0.07586">
        <ele>93</ele>
        <time>2011-02-20T12:53:29Z</time>
      </trkpt>
      <trkpt lat="47.2263" lon="-0.07586">
        <ele>93</ele>
        <time>2011-02-20T12:53:33Z</time>
      </trkpt>
      <trkpt lat="47.22625" lon="-0.07588">
        <ele>93</ele>
        <time>2011-02-20T12:53:37Z</time>
      </trkpt>
      <trkpt lat="47.2262" lon="-0.07589">
        <ele>92</ele>
        <time>2011-02-20T12:53:41Z</time>
      </trkpt>
      <trkpt lat="47.22615" lon="-0.0759">
        <ele>92</ele>
        <time>2011-02-20T12:53:45Z</time>
      </trkpt>
      <trkpt lat="47.2261" lon="-0.07592">
        <ele>92</ele>
        <time>2011-02-20T12:53:49Z</time>
      </trkpt>
      <trkpt lat="47.22605" lon="-0.07593">
        <ele>92</ele>
        <time>2011-02-20T12:53:53Z</time>
      </trkpt>
      <trkpt lat="47.226" lon="-0.07594">
        <ele>92</ele>
        <time>2011-02-20T12:53:58Z</time>
      </trkpt>
      <trkpt lat="47.22595" lon="-0.07595">
        <ele>92</ele>
        <time>2011-02-20T12:54:03Z</time>
      </trkpt>
      <trkpt lat="47.22589" lon="-0.07596">
        <ele>92</ele>
        <time>2011-02-20T12:54:08Z</time>
      </trkpt>
      <trkpt lat="47.22584" lon="-0.07597">
        <ele>92</ele>
        <time>2011-02-20T12:54:13Z</time>
      </trkpt>
      <trkpt lat="47.22578" lon="-0.07598">
        <ele>92</ele>
        <time>2011-02-20T12:54:18Z</time>
      </trkpt>
      <trkpt lat="47.22573" lon="-0.07598">
        <ele>92</ele>
        <time>2011-02-20T12:54:22Z</time>
      </trkpt>
      <trkpt lat="47.22568" lon="-0.07599">
        <ele>92</ele>
        <time>2011-02-20T12:54:26Z</time>
      </trkpt>
      <trkpt lat="47.22563" lon="-0.076">
        <ele>92</ele>
        <time>2011-02-20T12:54:31Z</time>
      </trkpt>
      <trkpt lat="47.22558" lon="-0.07601">
        <ele>92</ele>
        <time>2011-02-20T12:54:35Z</time>
      </trkpt>
      <trkpt lat="47.22554" lon="-0.07602">
        <ele>92</ele>
        <time>2011-02-20T12:54:39Z</time>
      </trkpt>
      <trkpt lat="47.22549" lon="-0.07603">
        <ele>93</ele>
        <time>2011-02-20T12:54:43Z</time>
      </trkpt>
      <trkpt lat="47.22544" lon="-0.07603">
        <ele>93</ele>
        <time>2011-02-20T12:54:47Z</time>
      </trkpt>
      <trkpt lat="47.2254" lon="-0.07604">
        <ele>93</ele>
        <time>2011-02-20T12:54:51Z</time>
      </trkpt>
      <trkpt lat="47.22534" lon="-0.07606">
        <ele>93</ele>
        <time>2011-02-20T12:54:56Z</time>
      </trkpt>
      <trkpt lat="47.22529" lon="-0.07607">
        <ele>93</ele>
        <time>2011-02-20T12:55:01Z</time>
      </trkpt>
      <trkpt lat="47.22524" lon="-0.0761">
        <ele>93</ele>
        <time>2011-02-20T12:55:06Z</time>
      </trkpt>
      <trkpt lat="47.22522" lon="-0.07617">
        <ele>93</ele>
        <time>2011-02-20T12:55:11Z</time>
      </trkpt>
      <trkpt lat="47.2252" lon="-0.07623">
        <ele>93</ele>
        <time>2011-02-20T12:55:15Z</time>
      </trkpt>
      <trkpt lat="47.22519" lon="-0.0763">
        <ele>93</ele>
        <time>2011-02-20T12:55:19Z</time>
      </trkpt>
      <trkpt lat="47.22519" lon="-0.07638">
        <ele>92</ele>
        <time>2011-02-20T12:55:24Z</time>
      </trkpt>
      <trkpt lat="47.2252" lon="-0.07645">
        <ele>92</ele>
        <time>2011-02-20T12:55:28Z</time>
      </trkpt>
      <trkpt lat="47.2252" lon="-0.07652">
        <ele>92</ele>
        <time>2011-02-20T12:55:32Z</time>
      </trkpt>
      <trkpt lat="47.22521" lon="-0.07659">
        <ele>92</ele>
        <time>2011-02-20T12:55:36Z</time>
      </trkpt>
      <trkpt lat="47.22522" lon="-0.07666">
        <ele>92</ele>
        <time>2011-02-20T12:55:40Z</time>
      </trkpt>
      <trkpt lat="47.22523" lon="-0.07673">
        <ele>92</ele>
        <time>2011-02-20T12:55:44Z</time>
      </trkpt>
      <trkpt lat="47.22524" lon="-0.0768">
        <ele>92</ele>
        <time>2011-02-20T12:55:48Z</time>
      </trkpt>
      <trkpt lat="47.22525" lon="-0.07687">
        <ele>92</ele>
        <time>2011-02-20T12:55:52Z</time>
      </trkpt>
      <trkpt lat="47.22526" lon="-0.07694">
        <ele>92</ele>
        <time>2011-02-20T12:55:56Z</time>
      </trkpt>
      <trkpt lat="47.22527" lon="-0.07702">
        <ele>92</ele>
        <time>2011-02-20T12:56:00Z</time>
      </trkpt>
      <trkpt lat="47.22528" lon="-0.07709">
        <ele>92</ele>
        <time>2011-02-20T12:56:04Z</time>
      </trkpt>
      <trkpt lat="47.2253" lon="-0.07717">
        <ele>92</ele>
        <time>2011-02-20T12:56:08Z</time>
      </trkpt>
      <trkpt lat="47.22531" lon="-0.07724">
        <ele>92</ele>
        <time>2011-02-20T12:56:12Z</time>
      </trkpt>
      <trkpt lat="47.22532" lon="-0.07731">
        <ele>92</ele>
        <time>2011-02-20T12:56:16Z</time>
      </trkpt>
      <trkpt lat="47.22533" lon="-0.07738">
        <ele>92</ele>
        <time>2011-02-20T12:56:20Z</time>
      </trkpt>
      <trkpt lat="47.22534" lon="-0.07745">
        <ele>92</ele>
        <time>2011-02-20T12:56:24Z</time>
      </trkpt>
      <trkpt lat="47.22535" lon="-0.07752">
        <ele>92</ele>
        <time>2011-02-20T12:56:28Z</time>
      </trkpt>
      <trkpt lat="47.22536" lon="-0.07759">
        <ele>92</ele>
        <time>2011-02-20T12:56:32Z</time>
      </trkpt>
      <trkpt lat="47.22538" lon="-0.07766">
        <ele>92</ele>
        <time>2011-02-20T12:56:36Z</time>
      </trkpt>
      <trkpt lat="47.22539" lon="-0.07773">
        <ele>92</ele>
        <time>2011-02-20T12:56:40Z</time>
      </trkpt>
      <trkpt lat="47.2254" lon="-0.0778">
        <ele>92</ele>
        <time>2011-02-20T12:56:44Z</time>
      </trkpt>
      <trkpt lat="47.22541" lon="-0.07788">
        <ele>92</ele>
        <time>2011-02-20T12:56:48Z</time>
      </trkpt>
      <trkpt lat="47.22543" lon="-0.07795">
        <ele>92</ele>
        <time>2011-02-20T12:56:52Z</time>
      </trkpt>
      <trkpt lat="47.22544" lon="-0.07803">
        <ele>92</ele>
        <time>2011-02-20T12:56:56Z</time>
      </trkpt>
      <trkpt lat="47.22545" lon="-0.0781">
        <ele>92</ele>
        <time>2011-02-20T12:57:00Z</time>
      </trkpt>
      <trkpt lat="47.22546" lon="-0.07817">
        <ele>92</ele>
        <time>2011-02-20T12:57:04Z</time>
      </trkpt>
      <trkpt lat="47.22547" lon="-0.07824">
        <ele>92</ele>
        <time>2011-02-20T12:57:08Z</time>
      </trkpt>
      <trkpt lat="47.22547" lon="-0.07831">
        <ele>92</ele>
        <time>2011-02-20T12:57:12Z</time>
      </trkpt>
      <trkpt lat="47.22545" lon="-0.07837">
        <ele>92</ele>
        <time>2011-02-20T12:57:16Z</time>
      </trkpt>
      <trkpt lat="47.22541" lon="-0.0784">
        <ele>92</ele>
        <time>2011-02-20T12:57:24Z</time>
      </trkpt>
      <trkpt lat="47.22537" lon="-0.07844">
        <ele>91</ele>
        <time>2011-02-20T12:58:04Z</time>
      </trkpt>
      <trkpt lat="47.22532" lon="-0.07846">
        <ele>91</ele>
        <time>2011-02-20T12:58:26Z</time>
      </trkpt>
      <trkpt lat="47.22528" lon="-0.07847">
        <ele>91</ele>
        <time>2011-02-20T12:58:31Z</time>
      </trkpt>
      <trkpt lat="47.22523" lon="-0.07848">
        <ele>90</ele>
        <time>2011-02-20T12:58:36Z</time>
      </trkpt>
      <trkpt lat="47.22518" lon="-0.07849">
        <ele>90</ele>
        <time>2011-02-20T12:58:41Z</time>
      </trkpt>
      <trkpt lat="47.22513" lon="-0.0785">
        <ele>90</ele>
        <time>2011-02-20T12:58:46Z</time>
      </trkpt>
      <trkpt lat="47.22508" lon="-0.07851">
        <ele>90</ele>
        <time>2011-02-20T12:58:51Z</time>
      </trkpt>
      <trkpt lat="47.22503" lon="-0.07853">
        <ele>91</ele>
        <time>2011-02-20T12:58:56Z</time>
      </trkpt>
      <trkpt lat="47.22498" lon="-0.07854">
        <ele>91</ele>
        <time>2011-02-20T12:59:01Z</time>
      </trkpt>
      <trkpt lat="47.22494" lon="-0.07855">
        <ele>91</ele>
        <time>2011-02-20T12:59:06Z</time>
      </trkpt>
      <trkpt lat="47.22489" lon="-0.07856">
        <ele>91</ele>
        <time>2011-02-20T12:59:11Z</time>
      </trkpt>
      <trkpt lat="47.22483" lon="-0.07858">
        <ele>91</ele>
        <time>2011-02-20T12:59:16Z</time>
      </trkpt>
      <trkpt lat="47.22478" lon="-0.07859">
        <ele>91</ele>
        <time>2011-02-20T12:59:21Z</time>
      </trkpt>
      <trkpt lat="47.22472" lon="-0.0786">
        <ele>91</ele>
        <time>2011-02-20T12:59:26Z</time>
      </trkpt>
      <trkpt lat="47.22467" lon="-0.07862">
        <ele>91</ele>
        <time>2011-02-20T12:59:31Z</time>
      </trkpt>
      <trkpt lat="47.22462" lon="-0.07863">
        <ele>91</ele>
        <time>2011-02-20T12:59:36Z</time>
      </trkpt>
      <trkpt lat="47.22457" lon="-0.07864">
        <ele>91</ele>
        <time>2011-02-20T12:59:40Z</time>
      </trkpt>
      <trkpt lat="47.22451" lon="-0.07864">
        <ele>91</ele>
        <time>2011-02-20T12:59:45Z</time>
      </trkpt>
      <trkpt lat="47.22446" lon="-0.07865">
        <ele>91</ele>
        <time>2011-02-20T12:59:50Z</time>
      </trkpt>
      <trkpt lat="47.22441" lon="-0.07865">
        <ele>92</ele>
        <time>2011-02-20T12:59:54Z</time>
      </trkpt>
      <trkpt lat="47.22436" lon="-0.07867">
        <ele>92</ele>
        <time>2011-02-20T12:59:58Z</time>
      </trkpt>
      <trkpt lat="47.22432" lon="-0.07868">
        <ele>92</ele>
        <time>2011-02-20T13:00:02Z</time>
      </trkpt>
      <trkpt lat="47.22428" lon="-0.07871">
        <ele>92</ele>
        <time>2011-02-20T13:00:06Z</time>
      </trkpt>
      <trkpt lat="47.22423" lon="-0.07875">
        <ele>92</ele>
        <time>2011-02-20T13:00:11Z</time>
      </trkpt>
      <trkpt lat="47.22418" lon="-0.07879">
        <ele>92</ele>
        <time>2011-02-20T13:00:16Z</time>
      </trkpt>
      <trkpt lat="47.22413" lon="-0.07882">
        <ele>92</ele>
        <time>2011-02-20T13:00:21Z</time>
      </trkpt>
      <trkpt lat="47.22408" lon="-0.07884">
        <ele>92</ele>
        <time>2011-02-20T13:00:25Z</time>
      </trkpt>
      <trkpt lat="47.22404" lon="-0.07887">
        <ele>92</ele>
        <time>2011-02-20T13:00:29Z</time>
      </trkpt>
      <trkpt lat="47.22399" lon="-0.07889">
        <ele>93</ele>
        <time>2011-02-20T13:00:33Z</time>
      </trkpt>
      <trkpt lat="47.22394" lon="-0.0789">
        <ele>93</ele>
        <time>2011-02-20T13:00:37Z</time>
      </trkpt>
      <trkpt lat="47.22389" lon="-0.07892">
        <ele>93</ele>
        <time>2011-02-20T13:00:41Z</time>
      </trkpt>
      <trkpt lat="47.22384" lon="-0.07893">
        <ele>93</ele>
        <time>2011-02-20T13:00:45Z</time>
      </trkpt>
      <trkpt lat="47.22379" lon="-0.07894">
        <ele>93</ele>
        <time>2011-02-20T13:00:49Z</time>
      </trkpt>
      <trkpt lat="47.22374" lon="-0.07896">
        <ele>93</ele>
        <time>2011-02-20T13:00:53Z</time>
      </trkpt>
      <trkpt lat="47.2237" lon="-0.07896">
        <ele>93</ele>
        <time>2011-02-20T13:00:57Z</time>
      </trkpt>
      <trkpt lat="47.22365" lon="-0.07898">
        <ele>93</ele>
        <time>2011-02-20T13:01:01Z</time>
      </trkpt>
      <trkpt lat="47.2236" lon="-0.07898">
        <ele>93</ele>
        <time>2011-02-20T13:01:05Z</time>
      </trkpt>
      <trkpt lat="47.22355" lon="-0.07899">
        <ele>93</ele>
        <time>2011-02-20T13:01:10Z</time>
      </trkpt>
      <trkpt lat="47.2235" lon="-0.07902">
        <ele>93</ele>
        <time>2011-02-20T13:01:16Z</time>
      </trkpt>
      <trkpt lat="47.22345" lon="-0.07906">
        <ele>93</ele>
        <time>2011-02-20T13:01:25Z</time>
      </trkpt>
      <trkpt lat="47.2234" lon="-0.07904">
        <ele>92</ele>
        <time>2011-02-20T13:01:42Z</time>
      </trkpt>
      <trkpt lat="47.22336" lon="-0.07901">
        <ele>92</ele>
        <time>2011-02-20T13:01:47Z</time>
      </trkpt>
      <trkpt lat="47.22331" lon="-0.07899">
        <ele>92</ele>
        <time>2011-02-20T13:01:57Z</time>
      </trkpt>
      <trkpt lat="47.22326" lon="-0.07898">
        <ele>91</ele>
        <time>2011-02-20T13:02:02Z</time>
      </trkpt>
      <trkpt lat="47.22321" lon="-0.07897">
        <ele>91</ele>
        <time>2011-02-20T13:02:06Z</time>
      </trkpt>
      <trkpt lat="47.22316" lon="-0.07897">
        <ele>91</ele>
        <time>2011-02-20T13:02:10Z</time>
      </trkpt>
      <trkpt lat="47.22311" lon="-0.07897">
        <ele>91</ele>
        <time>2011-02-20T13:02:15Z</time>
      </trkpt>
      <trkpt lat="47.22305" lon="-0.07898">
        <ele>91</ele>
        <time>2011-02-20T13:02:20Z</time>
      </trkpt>
      <trkpt lat="47.223" lon="-0.07899">
        <ele>91</ele>
        <time>2011-02-20T13:02:25Z</time>
      </trkpt>
      <trkpt lat="47.22294" lon="-0.079">
        <ele>91</ele>
        <time>2011-02-20T13:02:30Z</time>
      </trkpt>
      <trkpt lat="47.2229" lon="-0.079">
        <ele>91</ele>
        <time>2011-02-20T13:02:34Z</time>
      </trkpt>
      <trkpt lat="47.22285" lon="-0.07901">
        <ele>91</ele>
        <time>2011-02-20T13:02:38Z</time>
      </trkpt>
      <trkpt lat="47.2228" lon="-0.07902">
        <ele>91</ele>
        <time>2011-02-20T13:02:43Z</time>
      </trkpt>
      <trkpt lat="47.22274" lon="-0.07901">
        <ele>91</ele>
        <time>2011-02-20T13:02:48Z</time>
      </trkpt>
      <trkpt lat="47.22268" lon="-0.07901">
        <ele>91</ele>
        <time>2011-02-20T13:02:53Z</time>
      </trkpt>
      <trkpt lat="47.22263" lon="-0.07902">
        <ele>91</ele>
        <time>2011-02-20T13:02:58Z</time>
      </trkpt>
      <trkpt lat="47.22258" lon="-0.07902">
        <ele>92</ele>
        <time>2011-02-20T13:03:02Z</time>
      </trkpt>
      <trkpt lat="47.22253" lon="-0.07902">
        <ele>92</ele>
        <time>2011-02-20T13:03:06Z</time>
      </trkpt>
      <trkpt lat="47.22249" lon="-0.07903">
        <ele>92</ele>
        <time>2011-02-20T13:03:10Z</time>
      </trkpt>
      <trkpt lat="47.22244" lon="-0.07903">
        <ele>92</ele>
        <time>2011-02-20T13:03:14Z</time>
      </trkpt>
      <trkpt lat="47.22238" lon="-0.07903">
        <ele>92</ele>
        <time>2011-02-20T13:03:18Z</time>
      </trkpt>
      <trkpt lat="47.22233" lon="-0.07902">
        <ele>92</ele>
        <time>2011-02-20T13:03:22Z</time>
      </trkpt>
      <trkpt lat="47.22229" lon="-0.07903">
        <ele>92</ele>
        <time>2011-02-20T13:03:26Z</time>
      </trkpt>
      <trkpt lat="47.22224" lon="-0.07903">
        <ele>92</ele>
        <time>2011-02-20T13:03:30Z</time>
      </trkpt>
      <trkpt lat="47.22219" lon="-0.07904">
        <ele>92</ele>
        <time>2011-02-20T13:03:34Z</time>
      </trkpt>
      <trkpt lat="47.22214" lon="-0.07905">
        <ele>92</ele>
        <time>2011-02-20T13:03:38Z</time>
      </trkpt>
      <trkpt lat="47.2221" lon="-0.07906">
        <ele>92</ele>
        <time>2011-02-20T13:03:42Z</time>
      </trkpt>
      <trkpt lat="47.22205" lon="-0.07907">
        <ele>92</ele>
        <time>2011-02-20T13:03:46Z</time>
      </trkpt>
      <trkpt lat="47.222" lon="-0.07908">
        <ele>92</ele>
        <time>2011-02-20T13:03:50Z</time>
      </trkpt>
      <trkpt lat="47.22195" lon="-0.07909">
        <ele>92</ele>
        <time>2011-02-20T13:03:54Z</time>
      </trkpt>
      <trkpt lat="47.22191" lon="-0.07909">
        <ele>92</ele>
        <time>2011-02-20T13:03:58Z</time>
      </trkpt>
      <trkpt lat="47.22186" lon="-0.0791">
        <ele>93</ele>
        <time>2011-02-20T13:04:02Z</time>
      </trkpt>
      <trkpt lat="47.22181" lon="-0.07911">
        <ele>93</ele>
        <time>2011-02-20T13:04:07Z</time>
      </trkpt>
      <trkpt lat="47.22176" lon="-0.07912">
        <ele>93</ele>
        <time>2011-02-20T13:04:11Z</time>
      </trkpt>
      <trkpt lat="47.22172" lon="-0.07913">
        <ele>93</ele>
        <time>2011-02-20T13:04:15Z</time>
      </trkpt>
      <trkpt lat="47.22167" lon="-0.07913">
        <ele>93</ele>
        <time>2011-02-20T13:04:19Z</time>
      </trkpt>
      <trkpt lat="47.22162" lon="-0.07914">
        <ele>93</ele>
        <time>2011-02-20T13:04:23Z</time>
      </trkpt>
      <trkpt lat="47.22157" lon="-0.07914">
        <ele>93</ele>
        <time>2011-02-20T13:04:27Z</time>
      </trkpt>
      <trkpt lat="47.22152" lon="-0.07915">
        <ele>94</ele>
        <time>2011-02-20T13:04:32Z</time>
      </trkpt>
      <trkpt lat="47.22147" lon="-0.07917">
        <ele>94</ele>
        <time>2011-02-20T13:04:37Z</time>
      </trkpt>
      <trkpt lat="47.22141" lon="-0.07916">
        <ele>94</ele>
        <time>2011-02-20T13:04:42Z</time>
      </trkpt>
      <trkpt lat="47.22136" lon="-0.07916">
        <ele>94</ele>
        <time>2011-02-20T13:04:47Z</time>
      </trkpt>
      <trkpt lat="47.2213" lon="-0.07916">
        <ele>93</ele>
        <time>2011-02-20T13:04:52Z</time>
      </trkpt>
      <trkpt lat="47.22125" lon="-0.07916">
        <ele>93</ele>
        <time>2011-02-20T13:04:57Z</time>
      </trkpt>
      <trkpt lat="47.2212" lon="-0.07916">
        <ele>93</ele>
        <time>2011-02-20T13:05:05Z</time>
      </trkpt>
      <trkpt lat="47.22115" lon="-0.07916">
        <ele>93</ele>
        <time>2011-02-20T13:05:15Z</time>
      </trkpt>
      <trkpt lat="47.22114" lon="-0.07922">
        <ele>92</ele>
        <time>2011-02-20T13:05:57Z</time>
      </trkpt>
      <trkpt lat="47.22111" lon="-0.07916">
        <ele>92</ele>
        <time>2011-02-20T13:06:10Z</time>
      </trkpt>
      <trkpt lat="47.22106" lon="-0.07914">
        <ele>92</ele>
        <time>2011-02-20T13:06:14Z</time>
      </trkpt>
      <trkpt lat="47.22101" lon="-0.07915">
        <ele>92</ele>
        <time>2011-02-20T13:06:18Z</time>
      </trkpt>
      <trkpt lat="47.22096" lon="-0.07915">
        <ele>92</ele>
        <time>2011-02-20T13:06:22Z</time>
      </trkpt>
      <trkpt lat="47.22092" lon="-0.07915">
        <ele>92</ele>
        <time>2011-02-20T13:06:26Z</time>
      </trkpt>
      <trkpt lat="47.22087" lon="-0.07915">
        <ele>92</ele>
        <time>2011-02-20T13:06:30Z</time>
      </trkpt>
      <trkpt lat="47.22081" lon="-0.07913">
        <ele>92</ele>
        <time>2011-02-20T13:06:35Z</time>
      </trkpt>
      <trkpt lat="47.22077" lon="-0.07912">
        <ele>92</ele>
        <time>2011-02-20T13:06:39Z</time>
      </trkpt>
      <trkpt lat="47.22072" lon="-0.07911">
        <ele>92</ele>
        <time>2011-02-20T13:06:43Z</time>
      </trkpt>
      <trkpt lat="47.22067" lon="-0.07911">
        <ele>92</ele>
        <time>2011-02-20T13:06:47Z</time>
      </trkpt>
      <trkpt lat="47.22062" lon="-0.07909">
        <ele>92</ele>
        <time>2011-02-20T13:06:52Z</time>
      </trkpt>
      <trkpt lat="47.22056" lon="-0.07908">
        <ele>92</ele>
        <time>2011-02-20T13:06:57Z</time>
      </trkpt>
      <trkpt lat="47.22051" lon="-0.07906">
        <ele>91</ele>
        <time>2011-02-20T13:07:02Z</time>
      </trkpt>
      <trkpt lat="47.22047" lon="-0.07905">
        <ele>91</ele>
        <time>2011-02-20T13:07:06Z</time>
      </trkpt>
      <trkpt lat="47.22042" lon="-0.07904">
        <ele>91</ele>
        <time>2011-02-20T13:07:10Z</time>
      </trkpt>
      <trkpt lat="47.22037" lon="-0.07904">
        <ele>91</ele>
        <time>2011-02-20T13:07:14Z</time>
      </trkpt>
      <trkpt lat="47.22032" lon="-0.07904">
        <ele>91</ele>
        <time>2011-02-20T13:07:18Z</time>
      </trkpt>
      <trkpt lat="47.22027" lon="-0.07904">
        <ele>91</ele>
        <time>2011-02-20T13:07:22Z</time>
      </trkpt>
      <trkpt lat="47.22022" lon="-0.07904">
        <ele>91</ele>
        <time>2011-02-20T13:07:26Z</time>
      </trkpt>
      <trkpt lat="47.22017" lon="-0.07904">
        <ele>91</ele>
        <time>2011-02-20T13:07:30Z</time>
      </trkpt>
      <trkpt lat="47.22012" lon="-0.07904">
        <ele>91</ele>
        <time>2011-02-20T13:07:34Z</time>
      </trkpt>
      <trkpt lat="47.22007" lon="-0.07904">
        <ele>91</ele>
        <time>2011-02-20T13:07:38Z</time>
      </trkpt>
      <trkpt lat="47.22002" lon="-0.07904">
        <ele>91</ele>
        <time>2011-02-20T13:07:42Z</time>
      </trkpt>
      <trkpt lat="47.21997" lon="-0.07904">
        <ele>91</ele>
        <time>2011-02-20T13:07:46Z</time>
      </trkpt>
      <trkpt lat="47.21992" lon="-0.07903">
        <ele>91</ele>
        <time>2011-02-20T13:07:50Z</time>
      </trkpt>
      <trkpt lat="47.21987" lon="-0.07903">
        <ele>91</ele>
        <time>2011-02-20T13:07:54Z</time>
      </trkpt>
      <trkpt lat="47.21982" lon="-0.07902">
        <ele>91</ele>
        <time>2011-02-20T13:07:58Z</time>
      </trkpt>
      <trkpt lat="47.21977" lon="-0.07902">
        <ele>91</ele>
        <time>2011-02-20T13:08:02Z</time>
      </trkpt>
      <trkpt lat="47.21971" lon="-0.07902">
        <ele>91</ele>
        <time>2011-02-20T13:08:06Z</time>
      </trkpt>
      <trkpt lat="47.21965" lon="-0.07902">
        <ele>91</ele>
        <time>2011-02-20T13:08:10Z</time>
      </trkpt>
      <trkpt lat="47.2196" lon="-0.07901">
        <ele>90</ele>
        <time>2011-02-20T13:08:14Z</time>
      </trkpt>
      <trkpt lat="47.21954" lon="-0.07901">
        <ele>90</ele>
        <time>2011-02-20T13:08:18Z</time>
      </trkpt>
      <trkpt lat="47.21949" lon="-0.07901">
        <ele>90</ele>
        <time>2011-02-20T13:08:22Z</time>
      </trkpt>
      <trkpt lat="47.21944" lon="-0.079">
        <ele>90</ele>
        <time>2011-02-20T13:08:26Z</time>
      </trkpt>
      <trkpt lat="47.21939" lon="-0.079">
        <ele>90</ele>
        <time>2011-02-20T13:08:30Z</time>
      </trkpt>
      <trkpt lat="47.21935" lon="-0.07899">
        <ele>90</ele>
        <time>2011-02-20T13:08:34Z</time>
      </trkpt>
      <trkpt lat="47.2193" lon="-0.07898">
        <ele>90</ele>
        <time>2011-02-20T13:08:38Z</time>
      </trkpt>
      <trkpt lat="47.21925" lon="-0.07898">
        <ele>90</ele>
        <time>2011-02-20T13:08:43Z</time>
      </trkpt>
      <trkpt lat="47.2192" lon="-0.07898">
        <ele>89</ele>
        <time>2011-02-20T13:09:49Z</time>
      </trkpt>
      <trkpt lat="47.21917" lon="-0.07903">
        <ele>89</ele>
        <time>2011-02-20T13:09:55Z</time>
      </trkpt>
      <trkpt lat="47.21912" lon="-0.07906">
        <ele>89</ele>
        <time>2011-02-20T13:10:01Z</time>
      </trkpt>
      <trkpt lat="47.21907" lon="-0.07905">
        <ele>89</ele>
        <time>2011-02-20T13:10:07Z</time>
      </trkpt>
      <trkpt lat="47.21903" lon="-0.07904">
        <ele>89</ele>
        <time>2011-02-20T13:10:11Z</time>
      </trkpt>
      <trkpt lat="47.21897" lon="-0.07904">
        <ele>88</ele>
        <time>2011-02-20T13:10:16Z</time>
      </trkpt>
      <trkpt lat="47.21892" lon="-0.07903">
        <ele>88</ele>
        <time>2011-02-20T13:10:21Z</time>
      </trkpt>
      <trkpt lat="47.21887" lon="-0.07902">
        <ele>88</ele>
        <time>2011-02-20T13:10:26Z</time>
      </trkpt>
      <trkpt lat="47.21883" lon="-0.07902">
        <ele>88</ele>
        <time>2011-02-20T13:10:31Z</time>
      </trkpt>
      <trkpt lat="47.21877" lon="-0.07901">
        <ele>88</ele>
        <time>2011-02-20T13:10:36Z</time>
      </trkpt>
      <trkpt lat="47.21872" lon="-0.07901">
        <ele>88</ele>
        <time>2011-02-20T13:10:41Z</time>
      </trkpt>
      <trkpt lat="47.21867" lon="-0.079">
        <ele>88</ele>
        <time>2011-02-20T13:10:45Z</time>
      </trkpt>
      <trkpt lat="47.21862" lon="-0.079">
        <ele>88</ele>
        <time>2011-02-20T13:10:49Z</time>
      </trkpt>
      <trkpt lat="47.21857" lon="-0.079">
        <ele>88</ele>
        <time>2011-02-20T13:10:54Z</time>
      </trkpt>
      <trkpt lat="47.21852" lon="-0.07899">
        <ele>88</ele>
        <time>2011-02-20T13:10:59Z</time>
      </trkpt>
      <trkpt lat="47.21847" lon="-0.07899">
        <ele>87</ele>
        <time>2011-02-20T13:11:04Z</time>
      </trkpt>
      <trkpt lat="47.21842" lon="-0.079">
        <ele>87</ele>
        <time>2011-02-20T13:11:10Z</time>
      </trkpt>
      <trkpt lat="47.21839" lon="-0.07904">
        <ele>87</ele>
        <time>2011-02-20T13:11:15Z</time>
      </trkpt>
      <trkpt lat="47.21837" lon="-0.07911">
        <ele>87</ele>
        <time>2011-02-20T13:11:21Z</time>
      </trkpt>
      <trkpt lat="47.21836" lon="-0.07919">
        <ele>87</ele>
        <time>2011-02-20T13:11:27Z</time>
      </trkpt>
      <trkpt lat="47.21836" lon="-0.07925">
        <ele>87</ele>
        <time>2011-02-20T13:11:32Z</time>
      </trkpt>
      <trkpt lat="47.21835" lon="-0.07932">
        <ele>87</ele>
        <time>2011-02-20T13:11:37Z</time>
      </trkpt>
      <trkpt lat="47.21835" lon="-0.0794">
        <ele>87</ele>
        <time>2011-02-20T13:11:42Z</time>
      </trkpt>
      <trkpt lat="47.21834" lon="-0.07947">
        <ele>87</ele>
        <time>2011-02-20T13:11:46Z</time>
      </trkpt>
      <trkpt lat="47.21834" lon="-0.07955">
        <ele>87</ele>
        <time>2011-02-20T13:11:51Z</time>
      </trkpt>
      <trkpt lat="47.21833" lon="-0.07962">
        <ele>87</ele>
        <time>2011-02-20T13:11:56Z</time>
      </trkpt>
      <trkpt lat="47.21832" lon="-0.0797">
        <ele>87</ele>
        <time>2011-02-20T13:12:01Z</time>
      </trkpt>
      <trkpt lat="47.21831" lon="-0.07978">
        <ele>87</ele>
        <time>2011-02-20T13:12:06Z</time>
      </trkpt>
      <trkpt lat="47.21831" lon="-0.07986">
        <ele>87</ele>
        <time>2011-02-20T13:12:11Z</time>
      </trkpt>
      <trkpt lat="47.21829" lon="-0.07993">
        <ele>87</ele>
        <time>2011-02-20T13:12:15Z</time>
      </trkpt>
      <trkpt lat="47.21827" lon="-0.08">
        <ele>87</ele>
        <time>2011-02-20T13:12:20Z</time>
      </trkpt>
      <trkpt lat="47.21825" lon="-0.08006">
        <ele>87</ele>
        <time>2011-02-20T13:12:24Z</time>
      </trkpt>
      <trkpt lat="47.2182" lon="-0.0801">
        <ele>87</ele>
        <time>2011-02-20T13:12:29Z</time>
      </trkpt>
      <trkpt lat="47.21815" lon="-0.0801">
        <ele>87</ele>
        <time>2011-02-20T13:12:34Z</time>
      </trkpt>
      <trkpt lat="47.21811" lon="-0.08009">
        <ele>87</ele>
        <time>2011-02-20T13:12:39Z</time>
      </trkpt>
      <trkpt lat="47.21806" lon="-0.08008">
        <ele>87</ele>
        <time>2011-02-20T13:12:44Z</time>
      </trkpt>
      <trkpt lat="47.21801" lon="-0.08007">
        <ele>87</ele>
        <time>2011-02-20T13:12:49Z</time>
      </trkpt>
      <trkpt lat="47.21796" lon="-0.08006">
        <ele>87</ele>
        <time>2011-02-20T13:12:54Z</time>
      </trkpt>
      <trkpt lat="47.21791" lon="-0.08003">
        <ele>86</ele>
        <time>2011-02-20T13:12:59Z</time>
      </trkpt>
      <trkpt lat="47.21787" lon="-0.08001">
        <ele>86</ele>
        <time>2011-02-20T13:13:03Z</time>
      </trkpt>
      <trkpt lat="47.21782" lon="-0.07998">
        <ele>86</ele>
        <time>2011-02-20T13:13:07Z</time>
      </trkpt>
      <trkpt lat="47.21778" lon="-0.07996">
        <ele>86</ele>
        <time>2011-02-20T13:13:11Z</time>
      </trkpt>
      <trkpt lat="47.21774" lon="-0.07991">
        <ele>86</ele>
        <time>2011-02-20T13:13:15Z</time>
      </trkpt>
      <trkpt lat="47.2177" lon="-0.07987">
        <ele>86</ele>
        <time>2011-02-20T13:13:19Z</time>
      </trkpt>
      <trkpt lat="47.21766" lon="-0.07982">
        <ele>85</ele>
        <time>2011-02-20T13:13:24Z</time>
      </trkpt>
      <trkpt lat="47.21762" lon="-0.07977">
        <ele>85</ele>
        <time>2011-02-20T13:13:29Z</time>
      </trkpt>
      <trkpt lat="47.21758" lon="-0.07973">
        <ele>85</ele>
        <time>2011-02-20T13:13:33Z</time>
      </trkpt>
      <trkpt lat="47.21753" lon="-0.0797">
        <ele>85</ele>
        <time>2011-02-20T13:13:37Z</time>
      </trkpt>
      <trkpt lat="47.21749" lon="-0.07968">
        <ele>85</ele>
        <time>2011-02-20T13:13:41Z</time>
      </trkpt>
      <trkpt lat="47.21744" lon="-0.07967">
        <ele>84</ele>
        <time>2011-02-20T13:13:45Z</time>
      </trkpt>
      <trkpt lat="47.2174" lon="-0.07968">
        <ele>84</ele>
        <time>2011-02-20T13:13:49Z</time>
      </trkpt>
      <trkpt lat="47.21735" lon="-0.07969">
        <ele>84</ele>
        <time>2011-02-20T13:13:53Z</time>
      </trkpt>
      <trkpt lat="47.2173" lon="-0.07969">
        <ele>83</ele>
        <time>2011-02-20T13:13:58Z</time>
      </trkpt>
      <trkpt lat="47.21724" lon="-0.07968">
        <ele>83</ele>
        <time>2011-02-20T13:14:03Z</time>
      </trkpt>
      <trkpt lat="47.2172" lon="-0.07967">
        <ele>83</ele>
        <time>2011-02-20T13:14:07Z</time>
      </trkpt>
      <trkpt lat="47.21715" lon="-0.07965">
        <ele>82</ele>
        <time>2011-02-20T13:14:11Z</time>
      </trkpt>
      <trkpt lat="47.2171" lon="-0.07964">
        <ele>82</ele>
        <time>2011-02-20T13:14:15Z</time>
      </trkpt>
      <trkpt lat="47.21705" lon="-0.07963">
        <ele>81</ele>
        <time>2011-02-20T13:14:19Z</time>
      </trkpt>
      <trkpt lat="47.217" lon="-0.07962">
        <ele>81</ele>
        <time>2011-02-20T13:14:24Z</time>
      </trkpt>
      <trkpt lat="47.21694" lon="-0.07961">
        <ele>80</ele>
        <time>2011-02-20T13:14:29Z</time>
      </trkpt>
      <trkpt lat="47.21689" lon="-0.07961">
        <ele>80</ele>
        <time>2011-02-20T13:14:33Z</time>
      </trkpt>
      <trkpt lat="47.21684" lon="-0.07961">
        <ele>79</ele>
        <time>2011-02-20T13:14:37Z</time>
      </trkpt>
      <trkpt lat="47.21679" lon="-0.07961">
        <ele>79</ele>
        <time>2011-02-20T13:14:41Z</time>
      </trkpt>
      <trkpt lat="47.21674" lon="-0.07961">
        <ele>79</ele>
        <time>2011-02-20T13:14:45Z</time>
      </trkpt>
      <trkpt lat="47.2167" lon="-0.0796">
        <ele>79</ele>
        <time>2011-02-20T13:14:49Z</time>
      </trkpt>
      <trkpt lat="47.21664" lon="-0.0796">
        <ele>79</ele>
        <time>2011-02-20T13:14:53Z</time>
      </trkpt>
      <trkpt lat="47.21659" lon="-0.0796">
        <ele>79</ele>
        <time>2011-02-20T13:14:57Z</time>
      </trkpt>
      <trkpt lat="47.21655" lon="-0.07959">
        <ele>79</ele>
        <time>2011-02-20T13:15:01Z</time>
      </trkpt>
      <trkpt lat="47.21649" lon="-0.07958">
        <ele>79</ele>
        <time>2011-02-20T13:15:06Z</time>
      </trkpt>
      <trkpt lat="47.21645" lon="-0.07957">
        <ele>79</ele>
        <time>2011-02-20T13:15:11Z</time>
      </trkpt>
      <trkpt lat="47.21639" lon="-0.07957">
        <ele>79</ele>
        <time>2011-02-20T13:15:17Z</time>
      </trkpt>
      <trkpt lat="47.21634" lon="-0.07955">
        <ele>79</ele>
        <time>2011-02-20T13:15:23Z</time>
      </trkpt>
      <trkpt lat="47.21629" lon="-0.07955">
        <ele>79</ele>
        <time>2011-02-20T13:15:27Z</time>
      </trkpt>
      <trkpt lat="47.21624" lon="-0.07955">
        <ele>80</ele>
        <time>2011-02-20T13:15:31Z</time>
      </trkpt>
      <trkpt lat="47.2162" lon="-0.07956">
        <ele>80</ele>
        <time>2011-02-20T13:15:35Z</time>
      </trkpt>
      <trkpt lat="47.21615" lon="-0.07956">
        <ele>80</ele>
        <time>2011-02-20T13:15:40Z</time>
      </trkpt>
      <trkpt lat="47.2161" lon="-0.07957">
        <ele>80</ele>
        <time>2011-02-20T13:15:46Z</time>
      </trkpt>
      <trkpt lat="47.21605" lon="-0.07958">
        <ele>80</ele>
        <time>2011-02-20T13:15:53Z</time>
      </trkpt>
      <trkpt lat="47.216" lon="-0.0796">
        <ele>81</ele>
        <time>2011-02-20T13:15:58Z</time>
      </trkpt>
      <trkpt lat="47.21596" lon="-0.07961">
        <ele>81</ele>
        <time>2011-02-20T13:16:04Z</time>
      </trkpt>
      <trkpt lat="47.21591" lon="-0.07964">
        <ele>81</ele>
        <time>2011-02-20T13:16:13Z</time>
      </trkpt>
      <trkpt lat="47.21587" lon="-0.07964">
        <ele>82</ele>
        <time>2011-02-20T13:16:20Z</time>
      </trkpt>
      <trkpt lat="47.21582" lon="-0.07965">
        <ele>82</ele>
        <time>2011-02-20T13:16:26Z</time>
      </trkpt>
      <trkpt lat="47.21577" lon="-0.07965">
        <ele>82</ele>
        <time>2011-02-20T13:16:33Z</time>
      </trkpt>
      <trkpt lat="47.21572" lon="-0.07965">
        <ele>82</ele>
        <time>2011-02-20T13:16:42Z</time>
      </trkpt>
      <trkpt lat="47.21567" lon="-0.07966">
        <ele>82</ele>
        <time>2011-02-20T13:16:51Z</time>
      </trkpt>
      <trkpt lat="47.21562" lon="-0.07966">
        <ele>82</ele>
        <time>2011-02-20T13:16:56Z</time>
      </trkpt>
      <trkpt lat="47.21557" lon="-0.07966">
        <ele>82</ele>
        <time>2011-02-20T13:17:01Z</time>
      </trkpt>
      <trkpt lat="47.21552" lon="-0.07968">
        <ele>82</ele>
        <time>2011-02-20T13:17:06Z</time>
      </trkpt>
      <trkpt lat="47.21548" lon="-0.07969">
        <ele>82</ele>
        <time>2011-02-20T13:17:11Z</time>
      </trkpt>
      <trkpt lat="47.21543" lon="-0.07971">
        <ele>81</ele>
        <time>2011-02-20T13:17:16Z</time>
      </trkpt>
      <trkpt lat="47.21538" lon="-0.07973">
        <ele>81</ele>
        <time>2011-02-20T13:17:21Z</time>
      </trkpt>
      <trkpt lat="47.21533" lon="-0.07975">
        <ele>81</ele>
        <time>2011-02-20T13:17:26Z</time>
      </trkpt>
      <trkpt lat="47.21528" lon="-0.07977">
        <ele>81</ele>
        <time>2011-02-20T13:17:31Z</time>
      </trkpt>
      <trkpt lat="47.21522" lon="-0.07979">
        <ele>81</ele>
        <time>2011-02-20T13:17:36Z</time>
      </trkpt>
      <trkpt lat="47.21517" lon="-0.0798">
        <ele>81</ele>
        <time>2011-02-20T13:17:41Z</time>
      </trkpt>
      <trkpt lat="47.21513" lon="-0.07981">
        <ele>81</ele>
        <time>2011-02-20T13:17:45Z</time>
      </trkpt>
      <trkpt lat="47.21508" lon="-0.07982">
        <ele>81</ele>
        <time>2011-02-20T13:17:49Z</time>
      </trkpt>
      <trkpt lat="47.21503" lon="-0.07983">
        <ele>81</ele>
        <time>2011-02-20T13:17:53Z</time>
      </trkpt>
      <trkpt lat="47.21498" lon="-0.07983">
        <ele>81</ele>
        <time>2011-02-20T13:17:58Z</time>
      </trkpt>
      <trkpt lat="47.21492" lon="-0.07984">
        <ele>82</ele>
        <time>2011-02-20T13:18:03Z</time>
      </trkpt>
      <trkpt lat="47.21487" lon="-0.07983">
        <ele>82</ele>
        <time>2011-02-20T13:18:08Z</time>
      </trkpt>
      <trkpt lat="47.21482" lon="-0.07983">
        <ele>82</ele>
        <time>2011-02-20T13:18:13Z</time>
      </trkpt>
      <trkpt lat="47.21477" lon="-0.07982">
        <ele>82</ele>
        <time>2011-02-20T13:18:18Z</time>
      </trkpt>
      <trkpt lat="47.21472" lon="-0.07981">
        <ele>82</ele>
        <time>2011-02-20T13:18:22Z</time>
      </trkpt>
      <trkpt lat="47.21468" lon="-0.0798">
        <ele>82</ele>
        <time>2011-02-20T13:18:26Z</time>
      </trkpt>
      <trkpt lat="47.21462" lon="-0.07979">
        <ele>82</ele>
        <time>2011-02-20T13:18:31Z</time>
      </trkpt>
      <trkpt lat="47.21457" lon="-0.07979">
        <ele>82</ele>
        <time>2011-02-20T13:18:36Z</time>
      </trkpt>
      <trkpt lat="47.21452" lon="-0.07979">
        <ele>82</ele>
        <time>2011-02-20T13:18:40Z</time>
      </trkpt>
      <trkpt lat="47.21447" lon="-0.07978">
        <ele>82</ele>
        <time>2011-02-20T13:18:44Z</time>
      </trkpt>
      <trkpt lat="47.21442" lon="-0.07978">
        <ele>82</ele>
        <time>2011-02-20T13:18:48Z</time>
      </trkpt>
      <trkpt lat="47.21437" lon="-0.07977">
        <ele>82</ele>
        <time>2011-02-20T13:18:53Z</time>
      </trkpt>
      <trkpt lat="47.21431" lon="-0.07977">
        <ele>83</ele>
        <time>2011-02-20T13:18:58Z</time>
      </trkpt>
      <trkpt lat="47.21426" lon="-0.07973">
        <ele>83</ele>
        <time>2011-02-20T13:19:03Z</time>
      </trkpt>
      <trkpt lat="47.21421" lon="-0.07971">
        <ele>83</ele>
        <time>2011-02-20T13:19:08Z</time>
      </trkpt>
      <trkpt lat="47.21416" lon="-0.07969">
        <ele>83</ele>
        <time>2011-02-20T13:19:12Z</time>
      </trkpt>
      <trkpt lat="47.2141" lon="-0.07967">
        <ele>83</ele>
        <time>2011-02-20T13:19:17Z</time>
      </trkpt>
      <trkpt lat="47.21406" lon="-0.0797">
        <ele>83</ele>
        <time>2011-02-20T13:19:34Z</time>
      </trkpt>
      <trkpt lat="47.21402" lon="-0.07966">
        <ele>84</ele>
        <time>2011-02-20T13:19:53Z</time>
      </trkpt>
      <trkpt lat="47.21397" lon="-0.07964">
        <ele>84</ele>
        <time>2011-02-20T13:19:59Z</time>
      </trkpt>
      <trkpt lat="47.21393" lon="-0.0796">
        <ele>84</ele>
        <time>2011-02-20T13:20:17Z</time>
      </trkpt>
      <trkpt lat="47.21389" lon="-0.07958">
        <ele>84</ele>
        <time>2011-02-20T13:20:41Z</time>
      </trkpt>
      <trkpt lat="47.21384" lon="-0.0796">
        <ele>84</ele>
        <time>2011-02-20T13:21:18Z</time>
      </trkpt>
      <trkpt lat="47.21378" lon="-0.07958">
        <ele>84</ele>
        <time>2011-02-20T13:21:22Z</time>
      </trkpt>
      <trkpt lat="47.21373" lon="-0.07957">
        <ele>84</ele>
        <time>2011-02-20T13:21:26Z</time>
      </trkpt>
      <trkpt lat="47.21369" lon="-0.07955">
        <ele>84</ele>
        <time>2011-02-20T13:21:30Z</time>
      </trkpt>
      <trkpt lat="47.21364" lon="-0.07954">
        <ele>84</ele>
        <time>2011-02-20T13:21:34Z</time>
      </trkpt>
      <trkpt lat="47.21359" lon="-0.07953">
        <ele>84</ele>
        <time>2011-02-20T13:21:38Z</time>
      </trkpt>
      <trkpt lat="47.21354" lon="-0.07951">
        <ele>85</ele>
        <time>2011-02-20T13:21:50Z</time>
      </trkpt>
      <trkpt lat="47.2135" lon="-0.07946">
        <ele>85</ele>
        <time>2011-02-20T13:21:56Z</time>
      </trkpt>
      <trkpt lat="47.21345" lon="-0.07944">
        <ele>84</ele>
        <time>2011-02-20T13:22:01Z</time>
      </trkpt>
      <trkpt lat="47.21341" lon="-0.07942">
        <ele>84</ele>
        <time>2011-02-20T13:22:06Z</time>
      </trkpt>
      <trkpt lat="47.21336" lon="-0.07942">
        <ele>84</ele>
        <time>2011-02-20T13:22:11Z</time>
      </trkpt>
      <trkpt lat="47.2133" lon="-0.07942">
        <ele>84</ele>
        <time>2011-02-20T13:22:16Z</time>
      </trkpt>
      <trkpt lat="47.21325" lon="-0.07943">
        <ele>84</ele>
        <time>2011-02-20T13:22:21Z</time>
      </trkpt>
      <trkpt lat="47.21319" lon="-0.07945">
        <ele>84</ele>
        <time>2011-02-20T13:22:26Z</time>
      </trkpt>
      <trkpt lat="47.21314" lon="-0.07948">
        <ele>84</ele>
        <time>2011-02-20T13:22:31Z</time>
      </trkpt>
      <trkpt lat="47.2131" lon="-0.07951">
        <ele>84</ele>
        <time>2011-02-20T13:22:36Z</time>
      </trkpt>
      <trkpt lat="47.21305" lon="-0.07954">
        <ele>84</ele>
        <time>2011-02-20T13:22:41Z</time>
      </trkpt>
      <trkpt lat="47.213" lon="-0.07957">
        <ele>84</ele>
        <time>2011-02-20T13:22:46Z</time>
      </trkpt>
      <trkpt lat="47.21296" lon="-0.0796">
        <ele>84</ele>
        <time>2011-02-20T13:22:51Z</time>
      </trkpt>
      <trkpt lat="47.21291" lon="-0.07963">
        <ele>84</ele>
        <time>2011-02-20T13:22:56Z</time>
      </trkpt>
      <trkpt lat="47.21287" lon="-0.07967">
        <ele>84</ele>
        <time>2011-02-20T13:23:01Z</time>
      </trkpt>
      <trkpt lat="47.21283" lon="-0.07971">
        <ele>84</ele>
        <time>2011-02-20T13:23:06Z</time>
      </trkpt>
      <trkpt lat="47.21278" lon="-0.07974">
        <ele>85</ele>
        <time>2011-02-20T13:23:11Z</time>
      </trkpt>
      <trkpt lat="47.21274" lon="-0.07976">
        <ele>85</ele>
        <time>2011-02-20T13:23:15Z</time>
      </trkpt>
      <trkpt lat="47.21269" lon="-0.07979">
        <ele>85</ele>
        <time>2011-02-20T13:23:19Z</time>
      </trkpt>
      <trkpt lat="47.21264" lon="-0.07981">
        <ele>85</ele>
        <time>2011-02-20T13:23:24Z</time>
      </trkpt>
      <trkpt lat="47.21259" lon="-0.07982">
        <ele>85</ele>
        <time>2011-02-20T13:23:28Z</time>
      </trkpt>
      <trkpt lat="47.21254" lon="-0.07983">
        <ele>85</ele>
        <time>2011-02-20T13:23:32Z</time>
      </trkpt>
      <trkpt lat="47.21249" lon="-0.07983">
        <ele>85</ele>
        <time>2011-02-20T13:23:35Z</time>
      </trkpt>
      <trkpt lat="47.21245" lon="-0.07984">
        <ele>85</ele>
        <time>2011-02-20T13:23:38Z</time>
      </trkpt>
      <trkpt lat="47.21239" lon="-0.07984">
        <ele>86</ele>
        <time>2011-02-20T13:23:42Z</time>
      </trkpt>
      <trkpt lat="47.21234" lon="-0.07984">
        <ele>86</ele>
        <time>2011-02-20T13:23:46Z</time>
      </trkpt>
      <trkpt lat="47.21229" lon="-0.07983">
        <ele>86</ele>
        <time>2011-02-20T13:23:50Z</time>
      </trkpt>
      <trkpt lat="47.21224" lon="-0.07983">
        <ele>86</ele>
        <time>2011-02-20T13:23:54Z</time>
      </trkpt>
      <trkpt lat="47.2122" lon="-0.07981">
        <ele>86</ele>
        <time>2011-02-20T13:23:58Z</time>
      </trkpt>
      <trkpt lat="47.21215" lon="-0.07979">
        <ele>86</ele>
        <time>2011-02-20T13:24:02Z</time>
      </trkpt>
      <trkpt lat="47.21211" lon="-0.07976">
        <ele>86</ele>
        <time>2011-02-20T13:24:06Z</time>
      </trkpt>
      <trkpt lat="47.21206" lon="-0.07973">
        <ele>87</ele>
        <time>2011-02-20T13:24:10Z</time>
      </trkpt>
      <trkpt lat="47.21201" lon="-0.07969">
        <ele>87</ele>
        <time>2011-02-20T13:24:14Z</time>
      </trkpt>
      <trkpt lat="47.21197" lon="-0.07966">
        <ele>87</ele>
        <time>2011-02-20T13:24:18Z</time>
      </trkpt>
      <trkpt lat="47.21192" lon="-0.07963">
        <ele>87</ele>
        <time>2011-02-20T13:24:23Z</time>
      </trkpt>
      <trkpt lat="47.21187" lon="-0.07961">
        <ele>87</ele>
        <time>2011-02-20T13:24:28Z</time>
      </trkpt>
      <trkpt lat="47.21182" lon="-0.07959">
        <ele>87</ele>
        <time>2011-02-20T13:24:32Z</time>
      </trkpt>
      <trkpt lat="47.21177" lon="-0.07957">
        <ele>87</ele>
        <time>2011-02-20T13:24:36Z</time>
      </trkpt>
      <trkpt lat="47.21172" lon="-0.07956">
        <ele>87</ele>
        <time>2011-02-20T13:24:40Z</time>
      </trkpt>
      <trkpt lat="47.21167" lon="-0.07954">
        <ele>87</ele>
        <time>2011-02-20T13:24:44Z</time>
      </trkpt>
      <trkpt lat="47.21163" lon="-0.07952">
        <ele>86</ele>
        <time>2011-02-20T13:24:48Z</time>
      </trkpt>
      <trkpt lat="47.21158" lon="-0.07951">
        <ele>86</ele>
        <time>2011-02-20T13:24:52Z</time>
      </trkpt>
      <trkpt lat="47.21153" lon="-0.0795">
        <ele>86</ele>
        <time>2011-02-20T13:24:56Z</time>
      </trkpt>
      <trkpt lat="47.21149" lon="-0.0795">
        <ele>86</ele>
        <time>2011-02-20T13:25:00Z</time>
      </trkpt>
      <trkpt lat="47.21144" lon="-0.07949">
        <ele>86</ele>
        <time>2011-02-20T13:25:04Z</time>
      </trkpt>
      <trkpt lat="47.21139" lon="-0.0795">
        <ele>85</ele>
        <time>2011-02-20T13:25:18Z</time>
      </trkpt>
      <trkpt lat="47.21135" lon="-0.07953">
        <ele>85</ele>
        <time>2011-02-20T13:25:25Z</time>
      </trkpt>
      <trkpt lat="47.2113" lon="-0.07953">
        <ele>85</ele>
        <time>2011-02-20T13:25:56Z</time>
      </trkpt>
      <trkpt lat="47.21124" lon="-0.07953">
        <ele>85</ele>
        <time>2011-02-20T13:26:01Z</time>
      </trkpt>
      <trkpt lat="47.21119" lon="-0.07955">
        <ele>85</ele>
        <time>2011-02-20T13:26:07Z</time>
      </trkpt>
      <trkpt lat="47.21115" lon="-0.07956">
        <ele>85</ele>
        <time>2011-02-20T13:26:18Z</time>
      </trkpt>
      <trkpt lat="47.21109" lon="-0.07958">
        <ele>85</ele>
        <time>2011-02-20T13:26:24Z</time>
      </trkpt>
      <trkpt lat="47.21104" lon="-0.07959">
        <ele>86</ele>
        <time>2011-02-20T13:26:36Z</time>
      </trkpt>
      <trkpt lat="47.211" lon="-0.07961">
        <ele>86</ele>
        <time>2011-02-20T13:26:41Z</time>
      </trkpt>
      <trkpt lat="47.21095" lon="-0.07963">
        <ele>87</ele>
        <time>2011-02-20T13:26:45Z</time>
      </trkpt>
      <trkpt lat="47.21089" lon="-0.07966">
        <ele>87</ele>
        <time>2011-02-20T13:26:50Z</time>
      </trkpt>
      <trkpt lat="47.21085" lon="-0.07968">
        <ele>87</ele>
        <time>2011-02-20T13:26:53Z</time>
      </trkpt>
      <trkpt lat="47.2108" lon="-0.07971">
        <ele>88</ele>
        <time>2011-02-20T13:26:56Z</time>
      </trkpt>
      <trkpt lat="47.21075" lon="-0.07973">
        <ele>88</ele>
        <time>2011-02-20T13:26:59Z</time>
      </trkpt>
      <trkpt lat="47.2107" lon="-0.07974">
        <ele>88</ele>
        <time>2011-02-20T13:27:02Z</time>
      </trkpt>
      <trkpt lat="47.21066" lon="-0.07975">
        <ele>89</ele>
        <time>2011-02-20T13:27:05Z</time>
      </trkpt>
      <trkpt lat="47.2106" lon="-0.07977">
        <ele>89</ele>
        <time>2011-02-20T13:27:09Z</time>
      </trkpt>
      <trkpt lat="47.21055" lon="-0.07978">
        <ele>89</ele>
        <time>2011-02-20T13:27:13Z</time>
      </trkpt>
      <trkpt lat="47.2105" lon="-0.0798">
        <ele>90</ele>
        <time>2011-02-20T13:27:21Z</time>
      </trkpt>
      <trkpt lat="47.21044" lon="-0.0798">
        <ele>90</ele>
        <time>2011-02-20T13:27:27Z</time>
      </trkpt>
      <trkpt lat="47.21039" lon="-0.0798">
        <ele>90</ele>
        <time>2011-02-20T13:27:32Z</time>
      </trkpt>
      <trkpt lat="47.21035" lon="-0.07979">
        <ele>90</ele>
        <time>2011-02-20T13:27:37Z</time>
      </trkpt>
      <trkpt lat="47.21029" lon="-0.0798">
        <ele>90</ele>
        <time>2011-02-20T13:27:42Z</time>
      </trkpt>
      <trkpt lat="47.21024" lon="-0.07982">
        <ele>89</ele>
        <time>2011-02-20T13:27:46Z</time>
      </trkpt>
      <trkpt lat="47.21019" lon="-0.07985">
        <ele>89</ele>
        <time>2011-02-20T13:27:51Z</time>
      </trkpt>
      <trkpt lat="47.21015" lon="-0.0799">
        <ele>88</ele>
        <time>2011-02-20T13:27:57Z</time>
      </trkpt>
      <trkpt lat="47.21011" lon="-0.07992">
        <ele>86</ele>
        <time>2011-02-20T13:29:08Z</time>
      </trkpt>
      <trkpt lat="47.21007" lon="-0.07996">
        <ele>86</ele>
        <time>2011-02-20T13:29:22Z</time>
      </trkpt>
      <trkpt lat="47.21005" lon="-0.08001">
        <ele>86</ele>
        <time>2011-02-20T13:29:56Z</time>
      </trkpt>
      <trkpt lat="47.21008" lon="-0.08007">
        <ele>86</ele>
        <time>2011-02-20T13:30:06Z</time>
      </trkpt>
      <trkpt lat="47.21009" lon="-0.08014">
        <ele>85</ele>
        <time>2011-02-20T13:30:12Z</time>
      </trkpt>
      <trkpt lat="47.21008" lon="-0.0802">
        <ele>85</ele>
        <time>2011-02-20T13:30:18Z</time>
      </trkpt>
      <trkpt lat="47.21004" lon="-0.08025">
        <ele>85</ele>
        <time>2011-02-20T13:30:23Z</time>
      </trkpt>
      <trkpt lat="47.21" lon="-0.0803">
        <ele>85</ele>
        <time>2011-02-20T13:30:29Z</time>
      </trkpt>
      <trkpt lat="47.20996" lon="-0.08034">
        <ele>85</ele>
        <time>2011-02-20T13:30:36Z</time>
      </trkpt>
      <trkpt lat="47.20991" lon="-0.08039">
        <ele>85</ele>
        <time>2011-02-20T13:30:43Z</time>
      </trkpt>
      <trkpt lat="47.20988" lon="-0.08044">
        <ele>85</ele>
        <time>2011-02-20T13:30:49Z</time>
      </trkpt>
      <trkpt lat="47.20985" lon="-0.08049">
        <ele>85</ele>
        <time>2011-02-20T13:30:58Z</time>
      </trkpt>
      <trkpt lat="47.20981" lon="-0.08053">
        <ele>85</ele>
        <time>2011-02-20T13:31:06Z</time>
      </trkpt>
      <trkpt lat="47.20976" lon="-0.08057">
        <ele>85</ele>
        <time>2011-02-20T13:31:12Z</time>
      </trkpt>
      <trkpt lat="47.2097" lon="-0.0806">
        <ele>85</ele>
        <time>2011-02-20T13:31:16Z</time>
      </trkpt>
      <trkpt lat="47.20966" lon="-0.08062">
        <ele>85</ele>
        <time>2011-02-20T13:31:19Z</time>
      </trkpt>
      <trkpt lat="47.20961" lon="-0.08067">
        <ele>85</ele>
        <time>2011-02-20T13:31:23Z</time>
      </trkpt>
      <trkpt lat="47.20957" lon="-0.0807">
        <ele>85</ele>
        <time>2011-02-20T13:31:26Z</time>
      </trkpt>
      <trkpt lat="47.20952" lon="-0.08074">
        <ele>85</ele>
        <time>2011-02-20T13:31:29Z</time>
      </trkpt>
      <trkpt lat="47.20947" lon="-0.08078">
        <ele>85</ele>
        <time>2011-02-20T13:31:32Z</time>
      </trkpt>
      <trkpt lat="47.20942" lon="-0.08082">
        <ele>85</ele>
        <time>2011-02-20T13:31:36Z</time>
      </trkpt>
      <trkpt lat="47.20938" lon="-0.08087">
        <ele>85</ele>
        <time>2011-02-20T13:31:40Z</time>
      </trkpt>
      <trkpt lat="47.20934" lon="-0.08092">
        <ele>85</ele>
        <time>2011-02-20T13:31:44Z</time>
      </trkpt>
      <trkpt lat="47.2093" lon="-0.08097">
        <ele>86</ele>
        <time>2011-02-20T13:31:48Z</time>
      </trkpt>
      <trkpt lat="47.20927" lon="-0.08102">
        <ele>86</ele>
        <time>2011-02-20T13:31:53Z</time>
      </trkpt>
      <trkpt lat="47.20923" lon="-0.08109">
        <ele>86</ele>
        <time>2011-02-20T13:31:58Z</time>
      </trkpt>
      <trkpt lat="47.20922" lon="-0.08116">
        <ele>86</ele>
        <time>2011-02-20T13:32:01Z</time>
      </trkpt>
      <trkpt lat="47.2092" lon="-0.08122">
        <ele>86</ele>
        <time>2011-02-20T13:32:04Z</time>
      </trkpt>
      <trkpt lat="47.20917" lon="-0.08128">
        <ele>86</ele>
        <time>2011-02-20T13:32:08Z</time>
      </trkpt>
      <trkpt lat="47.20913" lon="-0.08133">
        <ele>86</ele>
        <time>2011-02-20T13:32:13Z</time>
      </trkpt>
      <trkpt lat="47.20908" lon="-0.08137">
        <ele>86</ele>
        <time>2011-02-20T13:32:18Z</time>
      </trkpt>
      <trkpt lat="47.20903" lon="-0.0814">
        <ele>86</ele>
        <time>2011-02-20T13:32:23Z</time>
      </trkpt>
      <trkpt lat="47.20898" lon="-0.08141">
        <ele>86</ele>
        <time>2011-02-20T13:32:27Z</time>
      </trkpt>
      <trkpt lat="47.20892" lon="-0.08143">
        <ele>87</ele>
        <time>2011-02-20T13:32:31Z</time>
      </trkpt>
      <trkpt lat="47.20887" lon="-0.08144">
        <ele>87</ele>
        <time>2011-02-20T13:32:35Z</time>
      </trkpt>
      <trkpt lat="47.20881" lon="-0.08145">
        <ele>87</ele>
        <time>2011-02-20T13:32:39Z</time>
      </trkpt>
      <trkpt lat="47.20876" lon="-0.08147">
        <ele>87</ele>
        <time>2011-02-20T13:32:43Z</time>
      </trkpt>
      <trkpt lat="47.2087" lon="-0.08149">
        <ele>87</ele>
        <time>2011-02-20T13:32:47Z</time>
      </trkpt>
      <trkpt lat="47.20865" lon="-0.0815">
        <ele>87</ele>
        <time>2011-02-20T13:32:51Z</time>
      </trkpt>
      <trkpt lat="47.2086" lon="-0.08152">
        <ele>87</ele>
        <time>2011-02-20T13:32:55Z</time>
      </trkpt>
      <trkpt lat="47.20854" lon="-0.08153">
        <ele>87</ele>
        <time>2011-02-20T13:32:59Z</time>
      </trkpt>
      <trkpt lat="47.20849" lon="-0.08155">
        <ele>87</ele>
        <time>2011-02-20T13:33:03Z</time>
      </trkpt>
      <trkpt lat="47.20844" lon="-0.08156">
        <ele>87</ele>
        <time>2011-02-20T13:33:07Z</time>
      </trkpt>
      <trkpt lat="47.20839" lon="-0.08158">
        <ele>87</ele>
        <time>2011-02-20T13:33:11Z</time>
      </trkpt>
      <trkpt lat="47.20834" lon="-0.0816">
        <ele>87</ele>
        <time>2011-02-20T13:33:15Z</time>
      </trkpt>
      <trkpt lat="47.20828" lon="-0.08162">
        <ele>86</ele>
        <time>2011-02-20T13:33:19Z</time>
      </trkpt>
      <trkpt lat="47.20822" lon="-0.08164">
        <ele>86</ele>
        <time>2011-02-20T13:33:23Z</time>
      </trkpt>
      <trkpt lat="47.20817" lon="-0.08166">
        <ele>86</ele>
        <time>2011-02-20T13:33:27Z</time>
      </trkpt>
      <trkpt lat="47.20811" lon="-0.08167">
        <ele>86</ele>
        <time>2011-02-20T13:33:31Z</time>
      </trkpt>
      <trkpt lat="47.20806" lon="-0.08169">
        <ele>86</ele>
        <time>2011-02-20T13:33:35Z</time>
      </trkpt>
      <trkpt lat="47.20801" lon="-0.0817">
        <ele>86</ele>
        <time>2011-02-20T13:33:39Z</time>
      </trkpt>
      <trkpt lat="47.20795" lon="-0.08171">
        <ele>86</ele>
        <time>2011-02-20T13:33:43Z</time>
      </trkpt>
      <trkpt lat="47.2079" lon="-0.08173">
        <ele>86</ele>
        <time>2011-02-20T13:33:47Z</time>
      </trkpt>
      <trkpt lat="47.20785" lon="-0.08174">
        <ele>86</ele>
        <time>2011-02-20T13:33:51Z</time>
      </trkpt>
      <trkpt lat="47.20781" lon="-0.08176">
        <ele>85</ele>
        <time>2011-02-20T13:33:55Z</time>
      </trkpt>
      <trkpt lat="47.20776" lon="-0.08178">
        <ele>85</ele>
        <time>2011-02-20T13:34:00Z</time>
      </trkpt>
      <trkpt lat="47.20771" lon="-0.0818">
        <ele>85</ele>
        <time>2011-02-20T13:34:05Z</time>
      </trkpt>
      <trkpt lat="47.20766" lon="-0.08182">
        <ele>85</ele>
        <time>2011-02-20T13:34:10Z</time>
      </trkpt>
      <trkpt lat="47.20761" lon="-0.08184">
        <ele>85</ele>
        <time>2011-02-20T13:34:14Z</time>
      </trkpt>
      <trkpt lat="47.20757" lon="-0.08185">
        <ele>85</ele>
        <time>2011-02-20T13:34:18Z</time>
      </trkpt>
      <trkpt lat="47.20752" lon="-0.08186">
        <ele>85</ele>
        <time>2011-02-20T13:34:22Z</time>
      </trkpt>
      <trkpt lat="47.20748" lon="-0.08188">
        <ele>84</ele>
        <time>2011-02-20T13:34:26Z</time>
      </trkpt>
      <trkpt lat="47.20743" lon="-0.08189">
        <ele>84</ele>
        <time>2011-02-20T13:34:30Z</time>
      </trkpt>
      <trkpt lat="47.20738" lon="-0.0819">
        <ele>84</ele>
        <time>2011-02-20T13:34:34Z</time>
      </trkpt>
      <trkpt lat="47.20733" lon="-0.08192">
        <ele>84</ele>
        <time>2011-02-20T13:34:38Z</time>
      </trkpt>
      <trkpt lat="47.20728" lon="-0.08193">
        <ele>84</ele>
        <time>2011-02-20T13:34:42Z</time>
      </trkpt>
      <trkpt lat="47.20723" lon="-0.08195">
        <ele>84</ele>
        <time>2011-02-20T13:34:46Z</time>
      </trkpt>
      <trkpt lat="47.20718" lon="-0.08196">
        <ele>84</ele>
        <time>2011-02-20T13:34:50Z</time>
      </trkpt>
      <trkpt lat="47.20713" lon="-0.08198">
        <ele>84</ele>
        <time>2011-02-20T13:34:55Z</time>
      </trkpt>
      <trkpt lat="47.20707" lon="-0.082">
        <ele>84</ele>
        <time>2011-02-20T13:35:00Z</time>
      </trkpt>
      <trkpt lat="47.20703" lon="-0.08201">
        <ele>84</ele>
        <time>2011-02-20T13:35:04Z</time>
      </trkpt>
      <trkpt lat="47.20698" lon="-0.08202">
        <ele>84</ele>
        <time>2011-02-20T13:35:08Z</time>
      </trkpt>
      <trkpt lat="47.20693" lon="-0.08203">
        <ele>84</ele>
        <time>2011-02-20T13:35:12Z</time>
      </trkpt>
      <trkpt lat="47.20688" lon="-0.08205">
        <ele>83</ele>
        <time>2011-02-20T13:35:16Z</time>
      </trkpt>
      <trkpt lat="47.20683" lon="-0.08207">
        <ele>83</ele>
        <time>2011-02-20T13:35:20Z</time>
      </trkpt>
      <trkpt lat="47.20678" lon="-0.08209">
        <ele>83</ele>
        <time>2011-02-20T13:35:24Z</time>
      </trkpt>
      <trkpt lat="47.20673" lon="-0.08211">
        <ele>83</ele>
        <time>2011-02-20T13:35:28Z</time>
      </trkpt>
      <trkpt lat="47.20669" lon="-0.08213">
        <ele>83</ele>
        <time>2011-02-20T13:35:32Z</time>
      </trkpt>
      <trkpt lat="47.20663" lon="-0.08216">
        <ele>83</ele>
        <time>2011-02-20T13:35:37Z</time>
      </trkpt>
      <trkpt lat="47.20659" lon="-0.08217">
        <ele>83</ele>
        <time>2011-02-20T13:35:41Z</time>
      </trkpt>
      <trkpt lat="47.20654" lon="-0.08219">
        <ele>83</ele>
        <time>2011-02-20T13:35:45Z</time>
      </trkpt>
      <trkpt lat="47.2065" lon="-0.08221">
        <ele>82</ele>
        <time>2011-02-20T13:35:49Z</time>
      </trkpt>
      <trkpt lat="47.20644" lon="-0.08223">
        <ele>82</ele>
        <time>2011-02-20T13:35:54Z</time>
      </trkpt>
      <trkpt lat="47.2064" lon="-0.08225">
        <ele>82</ele>
        <time>2011-02-20T13:35:58Z</time>
      </trkpt>
      <trkpt lat="47.20635" lon="-0.08228">
        <ele>82</ele>
        <time>2011-02-20T13:36:02Z</time>
      </trkpt>
      <trkpt lat="47.20631" lon="-0.0823">
        <ele>82</ele>
        <time>2011-02-20T13:36:06Z</time>
      </trkpt>
      <trkpt lat="47.20627" lon="-0.08231">
        <ele>82</ele>
        <time>2011-02-20T13:36:10Z</time>
      </trkpt>
      <trkpt lat="47.20622" lon="-0.08232">
        <ele>82</ele>
        <time>2011-02-20T13:36:14Z</time>
      </trkpt>
      <trkpt lat="47.20616" lon="-0.08234">
        <ele>82</ele>
        <time>2011-02-20T13:36:19Z</time>
      </trkpt>
      <trkpt lat="47.20612" lon="-0.08236">
        <ele>82</ele>
        <time>2011-02-20T13:36:23Z</time>
      </trkpt>
      <trkpt lat="47.20607" lon="-0.08238">
        <ele>82</ele>
        <time>2011-02-20T13:36:27Z</time>
      </trkpt>
      <trkpt lat="47.20602" lon="-0.0824">
        <ele>82</ele>
        <time>2011-02-20T13:36:31Z</time>
      </trkpt>
      <trkpt lat="47.20597" lon="-0.08242">
        <ele>82</ele>
        <time>2011-02-20T13:36:35Z</time>
      </trkpt>
      <trkpt lat="47.20592" lon="-0.08244">
        <ele>82</ele>
        <time>2011-02-20T13:36:39Z</time>
      </trkpt>
      <trkpt lat="47.20588" lon="-0.08246">
        <ele>82</ele>
        <time>2011-02-20T13:36:43Z</time>
      </trkpt>
      <trkpt lat="47.20583" lon="-0.0825">
        <ele>82</ele>
        <time>2011-02-20T13:36:48Z</time>
      </trkpt>
      <trkpt lat="47.20578" lon="-0.08253">
        <ele>82</ele>
        <time>2011-02-20T13:36:53Z</time>
      </trkpt>
      <trkpt lat="47.20573" lon="-0.08257">
        <ele>82</ele>
        <time>2011-02-20T13:36:58Z</time>
      </trkpt>
      <trkpt lat="47.20568" lon="-0.08259">
        <ele>82</ele>
        <time>2011-02-20T13:37:02Z</time>
      </trkpt>
      <trkpt lat="47.20564" lon="-0.08263">
        <ele>82</ele>
        <time>2011-02-20T13:37:06Z</time>
      </trkpt>
      <trkpt lat="47.20559" lon="-0.08265">
        <ele>82</ele>
        <time>2011-02-20T13:37:10Z</time>
      </trkpt>
      <trkpt lat="47.20555" lon="-0.08268">
        <ele>82</ele>
        <time>2011-02-20T13:37:14Z</time>
      </trkpt>
      <trkpt lat="47.2055" lon="-0.08271">
        <ele>82</ele>
        <time>2011-02-20T13:37:18Z</time>
      </trkpt>
      <trkpt lat="47.20546" lon="-0.08272">
        <ele>82</ele>
        <time>2011-02-20T13:37:22Z</time>
      </trkpt>
      <trkpt lat="47.20541" lon="-0.08274">
        <ele>82</ele>
        <time>2011-02-20T13:37:26Z</time>
      </trkpt>
      <trkpt lat="47.20536" lon="-0.08275">
        <ele>83</ele>
        <time>2011-02-20T13:37:30Z</time>
      </trkpt>
      <trkpt lat="47.20531" lon="-0.08276">
        <ele>83</ele>
        <time>2011-02-20T13:37:34Z</time>
      </trkpt>
      <trkpt lat="47.20526" lon="-0.08277">
        <ele>83</ele>
        <time>2011-02-20T13:37:38Z</time>
      </trkpt>
      <trkpt lat="47.2052" lon="-0.08278">
        <ele>83</ele>
        <time>2011-02-20T13:37:42Z</time>
      </trkpt>
      <trkpt lat="47.20515" lon="-0.08279">
        <ele>83</ele>
        <time>2011-02-20T13:37:46Z</time>
      </trkpt>
      <trkpt lat="47.2051" lon="-0.08279">
        <ele>83</ele>
        <time>2011-02-20T13:37:50Z</time>
      </trkpt>
      <trkpt lat="47.20505" lon="-0.0828">
        <ele>83</ele>
        <time>2011-02-20T13:37:54Z</time>
      </trkpt>
      <trkpt lat="47.205" lon="-0.0828">
        <ele>83</ele>
        <time>2011-02-20T13:37:58Z</time>
      </trkpt>
      <trkpt lat="47.20495" lon="-0.0828">
        <ele>83</ele>
        <time>2011-02-20T13:38:02Z</time>
      </trkpt>
      <trkpt lat="47.2049" lon="-0.0828">
        <ele>83</ele>
        <time>2011-02-20T13:38:06Z</time>
      </trkpt>
      <trkpt lat="47.20485" lon="-0.08279">
        <ele>83</ele>
        <time>2011-02-20T13:38:10Z</time>
      </trkpt>
      <trkpt lat="47.2048" lon="-0.08279">
        <ele>83</ele>
        <time>2011-02-20T13:38:14Z</time>
      </trkpt>
      <trkpt lat="47.20474" lon="-0.0828">
        <ele>83</ele>
        <time>2011-02-20T13:38:18Z</time>
      </trkpt>
      <trkpt lat="47.20469" lon="-0.0828">
        <ele>83</ele>
        <time>2011-02-20T13:38:22Z</time>
      </trkpt>
      <trkpt lat="47.20464" lon="-0.08281">
        <ele>83</ele>
        <time>2011-02-20T13:38:26Z</time>
      </trkpt>
      <trkpt lat="47.20459" lon="-0.08281">
        <ele>83</ele>
        <time>2011-02-20T13:38:30Z</time>
      </trkpt>
      <trkpt lat="47.20454" lon="-0.08282">
        <ele>83</ele>
        <time>2011-02-20T13:38:34Z</time>
      </trkpt>
      <trkpt lat="47.20449" lon="-0.08282">
        <ele>83</ele>
        <time>2011-02-20T13:38:38Z</time>
      </trkpt>
      <trkpt lat="47.20445" lon="-0.08282">
        <ele>83</ele>
        <time>2011-02-20T13:38:42Z</time>
      </trkpt>
      <trkpt lat="47.20439" lon="-0.08281">
        <ele>83</ele>
        <time>2011-02-20T13:38:47Z</time>
      </trkpt>
      <trkpt lat="47.20434" lon="-0.0828">
        <ele>83</ele>
        <time>2011-02-20T13:38:52Z</time>
      </trkpt>
      <trkpt lat="47.20429" lon="-0.0828">
        <ele>83</ele>
        <time>2011-02-20T13:38:57Z</time>
      </trkpt>
      <trkpt lat="47.20424" lon="-0.08279">
        <ele>82</ele>
        <time>2011-02-20T13:39:02Z</time>
      </trkpt>
      <trkpt lat="47.20418" lon="-0.08279">
        <ele>82</ele>
        <time>2011-02-20T13:39:07Z</time>
      </trkpt>
      <trkpt lat="47.20414" lon="-0.08279">
        <ele>82</ele>
        <time>2011-02-20T13:39:11Z</time>
      </trkpt>
      <trkpt lat="47.20408" lon="-0.0828">
        <ele>82</ele>
        <time>2011-02-20T13:39:15Z</time>
      </trkpt>
      <trkpt lat="47.20403" lon="-0.08281">
        <ele>82</ele>
        <time>2011-02-20T13:39:19Z</time>
      </trkpt>
      <trkpt lat="47.20398" lon="-0.08281">
        <ele>82</ele>
        <time>2011-02-20T13:39:23Z</time>
      </trkpt>
      <trkpt lat="47.20393" lon="-0.0828">
        <ele>83</ele>
        <time>2011-02-20T13:39:27Z</time>
      </trkpt>
      <trkpt lat="47.20389" lon="-0.08279">
        <ele>83</ele>
        <time>2011-02-20T13:39:31Z</time>
      </trkpt>
      <trkpt lat="47.20383" lon="-0.08279">
        <ele>83</ele>
        <time>2011-02-20T13:39:36Z</time>
      </trkpt>
      <trkpt lat="47.20378" lon="-0.08278">
        <ele>83</ele>
        <time>2011-02-20T13:39:41Z</time>
      </trkpt>
      <trkpt lat="47.20372" lon="-0.08278">
        <ele>83</ele>
        <time>2011-02-20T13:39:46Z</time>
      </trkpt>
      <trkpt lat="47.20367" lon="-0.08278">
        <ele>83</ele>
        <time>2011-02-20T13:39:50Z</time>
      </trkpt>
      <trkpt lat="47.20362" lon="-0.08279">
        <ele>83</ele>
        <time>2011-02-20T13:39:55Z</time>
      </trkpt>
      <trkpt lat="47.20357" lon="-0.08279">
        <ele>83</ele>
        <time>2011-02-20T13:39:59Z</time>
      </trkpt>
      <trkpt lat="47.20352" lon="-0.08279">
        <ele>83</ele>
        <time>2011-02-20T13:40:11Z</time>
      </trkpt>
      <trkpt lat="47.20347" lon="-0.0828">
        <ele>83</ele>
        <time>2011-02-20T13:40:30Z</time>
      </trkpt>
      <trkpt lat="47.20345" lon="-0.08287">
        <ele>83</ele>
        <time>2011-02-20T13:40:39Z</time>
      </trkpt>
      <trkpt lat="47.20343" lon="-0.08293">
        <ele>82</ele>
        <time>2011-02-20T13:40:48Z</time>
      </trkpt>
      <trkpt lat="47.20342" lon="-0.083">
        <ele>82</ele>
        <time>2011-02-20T13:40:56Z</time>
      </trkpt>
      <trkpt lat="47.20341" lon="-0.08306">
        <ele>82</ele>
        <time>2011-02-20T13:41:04Z</time>
      </trkpt>
      <trkpt lat="47.20341" lon="-0.08314">
        <ele>82</ele>
        <time>2011-02-20T13:41:08Z</time>
      </trkpt>
      <trkpt lat="47.20341" lon="-0.08322">
        <ele>82</ele>
        <time>2011-02-20T13:41:11Z</time>
      </trkpt>
      <trkpt lat="47.20341" lon="-0.08331">
        <ele>82</ele>
        <time>2011-02-20T13:41:15Z</time>
      </trkpt>
      <trkpt lat="47.20339" lon="-0.08337">
        <ele>82</ele>
        <time>2011-02-20T13:41:20Z</time>
      </trkpt>
      <trkpt lat="47.20335" lon="-0.08341">
        <ele>82</ele>
        <time>2011-02-20T13:41:26Z</time>
      </trkpt>
      <trkpt lat="47.2033" lon="-0.08344">
        <ele>82</ele>
        <time>2011-02-20T13:41:32Z</time>
      </trkpt>
      <trkpt lat="47.20326" lon="-0.08347">
        <ele>82</ele>
        <time>2011-02-20T13:41:37Z</time>
      </trkpt>
      <trkpt lat="47.20323" lon="-0.08352">
        <ele>83</ele>
        <time>2011-02-20T13:41:44Z</time>
      </trkpt>
      <trkpt lat="47.20318" lon="-0.08354">
        <ele>83</ele>
        <time>2011-02-20T13:41:54Z</time>
      </trkpt>
      <trkpt lat="47.20314" lon="-0.08355">
        <ele>82</ele>
        <time>2011-02-20T13:41:59Z</time>
      </trkpt>
      <trkpt lat="47.2031" lon="-0.08358">
        <ele>82</ele>
        <time>2011-02-20T13:42:19Z</time>
      </trkpt>
      <trkpt lat="47.20308" lon="-0.08364">
        <ele>82</ele>
        <time>2011-02-20T13:42:25Z</time>
      </trkpt>
      <trkpt lat="47.20303" lon="-0.08367">
        <ele>83</ele>
        <time>2011-02-20T13:42:29Z</time>
      </trkpt>
      <trkpt lat="47.20299" lon="-0.08371">
        <ele>83</ele>
        <time>2011-02-20T13:42:34Z</time>
      </trkpt>
      <trkpt lat="47.20295" lon="-0.08373">
        <ele>83</ele>
        <time>2011-02-20T13:42:39Z</time>
      </trkpt>
      <trkpt lat="47.20291" lon="-0.08377">
        <ele>83</ele>
        <time>2011-02-20T13:42:45Z</time>
      </trkpt>
      <trkpt lat="47.20287" lon="-0.08381">
        <ele>83</ele>
        <time>2011-02-20T13:42:52Z</time>
      </trkpt>
      <trkpt lat="47.20283" lon="-0.08378">
        <ele>83</ele>
        <time>2011-02-20T13:43:17Z</time>
      </trkpt>
      <trkpt lat="47.20277" lon="-0.08378">
        <ele>83</ele>
        <time>2011-02-20T13:43:26Z</time>
      </trkpt>
      <trkpt lat="47.20273" lon="-0.08377">
        <ele>83</ele>
        <time>2011-02-20T13:44:28Z</time>
      </trkpt>
      <trkpt lat="47.20268" lon="-0.08378">
        <ele>83</ele>
        <time>2011-02-20T13:44:35Z</time>
      </trkpt>
      <trkpt lat="47.20263" lon="-0.08378">
        <ele>83</ele>
        <time>2011-02-20T13:44:40Z</time>
      </trkpt>
      <trkpt lat="47.20258" lon="-0.08378">
        <ele>82</ele>
        <time>2011-02-20T13:44:47Z</time>
      </trkpt>
      <trkpt lat="47.20253" lon="-0.08377">
        <ele>82</ele>
        <time>2011-02-20T13:44:53Z</time>
      </trkpt>
      <trkpt lat="47.20248" lon="-0.08377">
        <ele>82</ele>
        <time>2011-02-20T13:45:11Z</time>
      </trkpt>
      <trkpt lat="47.20243" lon="-0.08376">
        <ele>82</ele>
        <time>2011-02-20T13:45:16Z</time>
      </trkpt>
      <trkpt lat="47.20239" lon="-0.08374">
        <ele>82</ele>
        <time>2011-02-20T13:45:22Z</time>
      </trkpt>
      <trkpt lat="47.20233" lon="-0.08372">
        <ele>82</ele>
        <time>2011-02-20T13:45:28Z</time>
      </trkpt>
      <trkpt lat="47.20228" lon="-0.08371">
        <ele>82</ele>
        <time>2011-02-20T13:45:33Z</time>
      </trkpt>
      <trkpt lat="47.20223" lon="-0.08369">
        <ele>82</ele>
        <time>2011-02-20T13:45:38Z</time>
      </trkpt>
      <trkpt lat="47.20219" lon="-0.08366">
        <ele>81</ele>
        <time>2011-02-20T13:45:43Z</time>
      </trkpt>
      <trkpt lat="47.20215" lon="-0.08364">
        <ele>81</ele>
        <time>2011-02-20T13:45:48Z</time>
      </trkpt>
      <trkpt lat="47.2021" lon="-0.08361">
        <ele>82</ele>
        <time>2011-02-20T13:45:58Z</time>
      </trkpt>
      <trkpt lat="47.20206" lon="-0.08357">
        <ele>82</ele>
        <time>2011-02-20T13:46:07Z</time>
      </trkpt>
      <trkpt lat="47.20201" lon="-0.08355">
        <ele>82</ele>
        <time>2011-02-20T13:46:12Z</time>
      </trkpt>
      <trkpt lat="47.20197" lon="-0.08353">
        <ele>82</ele>
        <time>2011-02-20T13:46:17Z</time>
      </trkpt>
      <trkpt lat="47.20192" lon="-0.0835">
        <ele>82</ele>
        <time>2011-02-20T13:46:22Z</time>
      </trkpt>
      <trkpt lat="47.20187" lon="-0.08348">
        <ele>82</ele>
        <time>2011-02-20T13:46:28Z</time>
      </trkpt>
      <trkpt lat="47.20184" lon="-0.08342">
        <ele>82</ele>
        <time>2011-02-20T13:46:43Z</time>
      </trkpt>
      <trkpt lat="47.20179" lon="-0.0834">
        <ele>82</ele>
        <time>2011-02-20T13:46:48Z</time>
      </trkpt>
      <trkpt lat="47.20174" lon="-0.08338">
        <ele>82</ele>
        <time>2011-02-20T13:46:53Z</time>
      </trkpt>
      <trkpt lat="47.2017" lon="-0.08336">
        <ele>81</ele>
        <time>2011-02-20T13:47:07Z</time>
      </trkpt>
      <trkpt lat="47.20172" lon="-0.0833">
        <ele>82</ele>
        <time>2011-02-20T13:47:21Z</time>
      </trkpt>
      <trkpt lat="47.20169" lon="-0.08324">
        <ele>82</ele>
        <time>2011-02-20T13:47:30Z</time>
      </trkpt>
      <trkpt lat="47.20164" lon="-0.08323">
        <ele>83</ele>
        <time>2011-02-20T13:47:38Z</time>
      </trkpt>
      <trkpt lat="47.20159" lon="-0.08322">
        <ele>83</ele>
        <time>2011-02-20T13:47:44Z</time>
      </trkpt>
      <trkpt lat="47.20154" lon="-0.08319">
        <ele>83</ele>
        <time>2011-02-20T13:47:50Z</time>
      </trkpt>
      <trkpt lat="47.20149" lon="-0.08317">
        <ele>83</ele>
        <time>2011-02-20T13:47:56Z</time>
      </trkpt>
      <trkpt lat="47.20144" lon="-0.08316">
        <ele>83</ele>
        <time>2011-02-20T13:48:01Z</time>
      </trkpt>
      <trkpt lat="47.2014" lon="-0.08314">
        <ele>83</ele>
        <time>2011-02-20T13:48:06Z</time>
      </trkpt>
      <trkpt lat="47.20135" lon="-0.08311">
        <ele>83</ele>
        <time>2011-02-20T13:48:12Z</time>
      </trkpt>
      <trkpt lat="47.20131" lon="-0.08306">
        <ele>83</ele>
        <time>2011-02-20T13:48:18Z</time>
      </trkpt>
      <trkpt lat="47.20127" lon="-0.08303">
        <ele>83</ele>
        <time>2011-02-20T13:48:27Z</time>
      </trkpt>
      <trkpt lat="47.20122" lon="-0.08301">
        <ele>82</ele>
        <time>2011-02-20T13:48:33Z</time>
      </trkpt>
      <trkpt lat="47.20117" lon="-0.08298">
        <ele>83</ele>
        <time>2011-02-20T13:48:39Z</time>
      </trkpt>
      <trkpt lat="47.20113" lon="-0.08293">
        <ele>83</ele>
        <time>2011-02-20T13:48:44Z</time>
      </trkpt>
      <trkpt lat="47.2011" lon="-0.08288">
        <ele>83</ele>
        <time>2011-02-20T13:48:49Z</time>
      </trkpt>
      <trkpt lat="47.20107" lon="-0.08282">
        <ele>83</ele>
        <time>2011-02-20T13:48:54Z</time>
      </trkpt>
      <trkpt lat="47.20105" lon="-0.08275">
        <ele>84</ele>
        <time>2011-02-20T13:48:59Z</time>
      </trkpt>
      <trkpt lat="47.20104" lon="-0.08269">
        <ele>84</ele>
        <time>2011-02-20T13:49:08Z</time>
      </trkpt>
      <trkpt lat="47.20103" lon="-0.08262">
        <ele>84</ele>
        <time>2011-02-20T13:49:13Z</time>
      </trkpt>
      <trkpt lat="47.20103" lon="-0.08254">
        <ele>84</ele>
        <time>2011-02-20T13:49:19Z</time>
      </trkpt>
      <trkpt lat="47.20101" lon="-0.08248">
        <ele>84</ele>
        <time>2011-02-20T13:49:26Z</time>
      </trkpt>
      <trkpt lat="47.20098" lon="-0.08242">
        <ele>84</ele>
        <time>2011-02-20T13:49:31Z</time>
      </trkpt>
      <trkpt lat="47.20095" lon="-0.08236">
        <ele>83</ele>
        <time>2011-02-20T13:49:35Z</time>
      </trkpt>
      <trkpt lat="47.20091" lon="-0.0823">
        <ele>83</ele>
        <time>2011-02-20T13:49:40Z</time>
      </trkpt>
      <trkpt lat="47.20086" lon="-0.08228">
        <ele>83</ele>
        <time>2011-02-20T13:49:46Z</time>
      </trkpt>
      <trkpt lat="47.20081" lon="-0.08226">
        <ele>83</ele>
        <time>2011-02-20T13:49:52Z</time>
      </trkpt>
      <trkpt lat="47.20076" lon="-0.08225">
        <ele>83</ele>
        <time>2011-02-20T13:49:57Z</time>
      </trkpt>
      <trkpt lat="47.20071" lon="-0.08224">
        <ele>83</ele>
        <time>2011-02-20T13:50:03Z</time>
      </trkpt>
      <trkpt lat="47.20067" lon="-0.08222">
        <ele>83</ele>
        <time>2011-02-20T13:50:09Z</time>
      </trkpt>
      <trkpt lat="47.20062" lon="-0.08221">
        <ele>83</ele>
        <time>2011-02-20T13:50:15Z</time>
      </trkpt>
      <trkpt lat="47.20057" lon="-0.08221">
        <ele>83</ele>
        <time>2011-02-20T13:50:21Z</time>
      </trkpt>
      <trkpt lat="47.20051" lon="-0.0822">
        <ele>83</ele>
        <time>2011-02-20T13:50:27Z</time>
      </trkpt>
      <trkpt lat="47.20047" lon="-0.08218">
        <ele>83</ele>
        <time>2011-02-20T13:50:34Z</time>
      </trkpt>
      <trkpt lat="47.20042" lon="-0.08216">
        <ele>83</ele>
        <time>2011-02-20T13:50:41Z</time>
      </trkpt>
      <trkpt lat="47.20038" lon="-0.08215">
        <ele>83</ele>
        <time>2011-02-20T13:50:47Z</time>
      </trkpt>
      <trkpt lat="47.20032" lon="-0.08214">
        <ele>83</ele>
        <time>2011-02-20T13:50:58Z</time>
      </trkpt>
      <trkpt lat="47.20028" lon="-0.08212">
        <ele>83</ele>
        <time>2011-02-20T13:51:03Z</time>
      </trkpt>
      <trkpt lat="47.20023" lon="-0.0821">
        <ele>83</ele>
        <time>2011-02-20T13:51:08Z</time>
      </trkpt>
      <trkpt lat="47.20018" lon="-0.08207">
        <ele>83</ele>
        <time>2011-02-20T13:51:14Z</time>
      </trkpt>
      <trkpt lat="47.20013" lon="-0.08208">
        <ele>83</ele>
        <time>2011-02-20T13:51:20Z</time>
      </trkpt>
      <trkpt lat="47.20009" lon="-0.08213">
        <ele>84</ele>
        <time>2011-02-20T13:52:02Z</time>
      </trkpt>
      <trkpt lat="47.20004" lon="-0.08212">
        <ele>84</ele>
        <time>2011-02-20T13:52:06Z</time>
      </trkpt>
      <trkpt lat="47.2" lon="-0.08212">
        <ele>84</ele>
        <time>2011-02-20T13:52:10Z</time>
      </trkpt>
      <trkpt lat="47.19995" lon="-0.0821">
        <ele>84</ele>
        <time>2011-02-20T13:52:15Z</time>
      </trkpt>
      <trkpt lat="47.19991" lon="-0.08206">
        <ele>85</ele>
        <time>2011-02-20T13:52:28Z</time>
      </trkpt>
      <trkpt lat="47.19987" lon="-0.08203">
        <ele>85</ele>
        <time>2011-02-20T13:52:34Z</time>
      </trkpt>
      <trkpt lat="47.19982" lon="-0.08203">
        <ele>85</ele>
        <time>2011-02-20T13:52:43Z</time>
      </trkpt>
      <trkpt lat="47.19977" lon="-0.08201">
        <ele>86</ele>
        <time>2011-02-20T13:52:53Z</time>
      </trkpt>
      <trkpt lat="47.19971" lon="-0.082">
        <ele>86</ele>
        <time>2011-02-20T13:52:58Z</time>
      </trkpt>
      <trkpt lat="47.19967" lon="-0.082">
        <ele>86</ele>
        <time>2011-02-20T13:53:02Z</time>
      </trkpt>
      <trkpt lat="47.19961" lon="-0.08199">
        <ele>86</ele>
        <time>2011-02-20T13:53:07Z</time>
      </trkpt>
      <trkpt lat="47.19956" lon="-0.08197">
        <ele>86</ele>
        <time>2011-02-20T13:53:12Z</time>
      </trkpt>
      <trkpt lat="47.19952" lon="-0.08196">
        <ele>87</ele>
        <time>2011-02-20T13:53:17Z</time>
      </trkpt>
      <trkpt lat="47.19947" lon="-0.08195">
        <ele>87</ele>
        <time>2011-02-20T13:53:22Z</time>
      </trkpt>
      <trkpt lat="47.19941" lon="-0.08195">
        <ele>87</ele>
        <time>2011-02-20T13:53:27Z</time>
      </trkpt>
      <trkpt lat="47.19936" lon="-0.08192">
        <ele>87</ele>
        <time>2011-02-20T13:53:31Z</time>
      </trkpt>
      <trkpt lat="47.19932" lon="-0.0819">
        <ele>87</ele>
        <time>2011-02-20T13:53:35Z</time>
      </trkpt>
      <trkpt lat="47.19927" lon="-0.08188">
        <ele>86</ele>
        <time>2011-02-20T13:53:39Z</time>
      </trkpt>
      <trkpt lat="47.19922" lon="-0.08188">
        <ele>86</ele>
        <time>2011-02-20T13:53:44Z</time>
      </trkpt>
      <trkpt lat="47.19917" lon="-0.08188">
        <ele>86</ele>
        <time>2011-02-20T13:53:49Z</time>
      </trkpt>
      <trkpt lat="47.19913" lon="-0.08192">
        <ele>85</ele>
        <time>2011-02-20T13:53:55Z</time>
      </trkpt>
      <trkpt lat="47.1991" lon="-0.08197">
        <ele>85</ele>
        <time>2011-02-20T13:54:09Z</time>
      </trkpt>
      <trkpt lat="47.19906" lon="-0.08202">
        <ele>86</ele>
        <time>2011-02-20T13:54:24Z</time>
      </trkpt>
      <trkpt lat="47.19904" lon="-0.08208">
        <ele>86</ele>
        <time>2011-02-20T13:54:31Z</time>
      </trkpt>
      <trkpt lat="47.19902" lon="-0.08214">
        <ele>86</ele>
        <time>2011-02-20T13:54:38Z</time>
      </trkpt>
      <trkpt lat="47.19902" lon="-0.08221">
        <ele>87</ele>
        <time>2011-02-20T13:54:51Z</time>
      </trkpt>
      <trkpt lat="47.19902" lon="-0.08228">
        <ele>87</ele>
        <time>2011-02-20T13:55:08Z</time>
      </trkpt>
      <trkpt lat="47.19904" lon="-0.08222">
        <ele>87</ele>
        <time>2011-02-20T13:56:26Z</time>
      </trkpt>
      <trkpt lat="47.19907" lon="-0.08216">
        <ele>87</ele>
        <time>2011-02-20T13:56:34Z</time>
      </trkpt>
      <trkpt lat="47.1991" lon="-0.0821">
        <ele>86</ele>
        <time>2011-02-20T13:56:42Z</time>
      </trkpt>
      <trkpt lat="47.19913" lon="-0.08204">
        <ele>86</ele>
        <time>2011-02-20T13:56:49Z</time>
      </trkpt>
      <trkpt lat="47.19916" lon="-0.08198">
        <ele>86</ele>
        <time>2011-02-20T13:56:55Z</time>
      </trkpt>
      <trkpt lat="47.1992" lon="-0.08193">
        <ele>86</ele>
        <time>2011-02-20T13:56:59Z</time>
      </trkpt>
      <trkpt lat="47.19925" lon="-0.0819">
        <ele>86</ele>
        <time>2011-02-20T13:57:03Z</time>
      </trkpt>
      <trkpt lat="47.1993" lon="-0.08187">
        <ele>85</ele>
        <time>2011-02-20T13:57:07Z</time>
      </trkpt>
      <trkpt lat="47.19934" lon="-0.08186">
        <ele>85</ele>
        <time>2011-02-20T13:57:14Z</time>
      </trkpt>
      <trkpt lat="47.19939" lon="-0.08186">
        <ele>84</ele>
        <time>2011-02-20T13:57:20Z</time>
      </trkpt>
      <trkpt lat="47.19944" lon="-0.08186">
        <ele>84</ele>
        <time>2011-02-20T13:57:25Z</time>
      </trkpt>
      <trkpt lat="47.19948" lon="-0.08186">
        <ele>84</ele>
        <time>2011-02-20T13:57:30Z</time>
      </trkpt>
      <trkpt lat="47.19953" lon="-0.08187">
        <ele>84</ele>
        <time>2011-02-20T13:57:36Z</time>
      </trkpt>
      <trkpt lat="47.19958" lon="-0.08188">
        <ele>85</ele>
        <time>2011-02-20T13:57:42Z</time>
      </trkpt>
      <trkpt lat="47.19963" lon="-0.08188">
        <ele>85</ele>
        <time>2011-02-20T13:57:47Z</time>
      </trkpt>
      <trkpt lat="47.19968" lon="-0.08187">
        <ele>85</ele>
        <time>2011-02-20T13:57:52Z</time>
      </trkpt>
      <trkpt lat="47.19973" lon="-0.08186">
        <ele>85</ele>
        <time>2011-02-20T13:57:58Z</time>
      </trkpt>
      <trkpt lat="47.19977" lon="-0.08184">
        <ele>85</ele>
        <time>2011-02-20T13:58:06Z</time>
      </trkpt>
      <trkpt lat="47.19977" lon="-0.08177">
        <ele>84</ele>
        <time>2011-02-20T13:58:20Z</time>
      </trkpt>
      <trkpt lat="47.19982" lon="-0.08177">
        <ele>84</ele>
        <time>2011-02-20T13:58:37Z</time>
      </trkpt>
      <trkpt lat="47.19987" lon="-0.08175">
        <ele>84</ele>
        <time>2011-02-20T13:58:40Z</time>
      </trkpt>
      <trkpt lat="47.19992" lon="-0.08173">
        <ele>83</ele>
        <time>2011-02-20T13:58:45Z</time>
      </trkpt>
      <trkpt lat="47.19987" lon="-0.08169">
        <ele>83</ele>
        <time>2011-02-20T13:59:02Z</time>
      </trkpt>
      <trkpt lat="47.19982" lon="-0.08169">
        <ele>83</ele>
        <time>2011-02-20T13:59:07Z</time>
      </trkpt>
      <trkpt lat="47.19978" lon="-0.08173">
        <ele>83</ele>
        <time>2011-02-20T13:59:12Z</time>
      </trkpt>
      <trkpt lat="47.19973" lon="-0.08175">
        <ele>83</ele>
        <time>2011-02-20T13:59:35Z</time>
      </trkpt>
      <trkpt lat="47.19972" lon="-0.08169">
        <ele>83</ele>
        <time>2011-02-20T14:00:09Z</time>
      </trkpt>
      <trkpt lat="47.19977" lon="-0.08166">
        <ele>84</ele>
        <time>2011-02-20T14:00:21Z</time>
      </trkpt>
      <trkpt lat="47.19982" lon="-0.08165">
        <ele>84</ele>
        <time>2011-02-20T14:00:26Z</time>
      </trkpt>
      <trkpt lat="47.19986" lon="-0.08167">
        <ele>84</ele>
        <time>2011-02-20T14:00:32Z</time>
      </trkpt>
      <trkpt lat="47.19989" lon="-0.08173">
        <ele>84</ele>
        <time>2011-02-20T14:00:51Z</time>
      </trkpt>
      <trkpt lat="47.19993" lon="-0.08175">
        <ele>84</ele>
        <time>2011-02-20T14:01:32Z</time>
      </trkpt>
      <trkpt lat="47.1999" lon="-0.0817">
        <ele>84</ele>
        <time>2011-02-20T14:02:15Z</time>
      </trkpt>
      <trkpt lat="47.19986" lon="-0.08166">
        <ele>84</ele>
        <time>2011-02-20T14:02:21Z</time>
      </trkpt>
      <trkpt lat="47.19981" lon="-0.08164">
        <ele>84</ele>
        <time>2011-02-20T14:02:27Z</time>
      </trkpt>
      <trkpt lat="47.19977" lon="-0.08161">
        <ele>85</ele>
        <time>2011-02-20T14:02:33Z</time>
      </trkpt>
      <trkpt lat="47.19972" lon="-0.08158">
        <ele>85</ele>
        <time>2011-02-20T14:02:39Z</time>
      </trkpt>
      <trkpt lat="47.19967" lon="-0.08156">
        <ele>85</ele>
        <time>2011-02-20T14:02:48Z</time>
      </trkpt>
      <trkpt lat="47.19963" lon="-0.08153">
        <ele>85</ele>
        <time>2011-02-20T14:02:55Z</time>
      </trkpt>
      <trkpt lat="47.19959" lon="-0.0815">
        <ele>85</ele>
        <time>2011-02-20T14:03:00Z</time>
      </trkpt>
      <trkpt lat="47.19954" lon="-0.08147">
        <ele>85</ele>
        <time>2011-02-20T14:03:04Z</time>
      </trkpt>
      <trkpt lat="47.1995" lon="-0.08143">
        <ele>86</ele>
        <time>2011-02-20T14:03:08Z</time>
      </trkpt>
      <trkpt lat="47.19946" lon="-0.08139">
        <ele>86</ele>
        <time>2011-02-20T14:03:12Z</time>
      </trkpt>
      <trkpt lat="47.19942" lon="-0.08134">
        <ele>86</ele>
        <time>2011-02-20T14:03:17Z</time>
      </trkpt>
      <trkpt lat="47.19938" lon="-0.08131">
        <ele>86</ele>
        <time>2011-02-20T14:03:22Z</time>
      </trkpt>
      <trkpt lat="47.19934" lon="-0.08126">
        <ele>87</ele>
        <time>2011-02-20T14:03:27Z</time>
      </trkpt>
      <trkpt lat="47.1993" lon="-0.08121">
        <ele>87</ele>
        <time>2011-02-20T14:03:33Z</time>
      </trkpt>
      <trkpt lat="47.19926" lon="-0.08115">
        <ele>87</ele>
        <time>2011-02-20T14:03:39Z</time>
      </trkpt>
      <trkpt lat="47.19923" lon="-0.0811">
        <ele>87</ele>
        <time>2011-02-20T14:03:46Z</time>
      </trkpt>
      <trkpt lat="47.19919" lon="-0.08105">
        <ele>88</ele>
        <time>2011-02-20T14:03:53Z</time>
      </trkpt>
      <trkpt lat="47.19916" lon="-0.081">
        <ele>88</ele>
        <time>2011-02-20T14:03:58Z</time>
      </trkpt>
      <trkpt lat="47.19914" lon="-0.08093">
        <ele>88</ele>
        <time>2011-02-20T14:04:02Z</time>
      </trkpt>
      <trkpt lat="47.19912" lon="-0.08086">
        <ele>89</ele>
        <time>2011-02-20T14:04:06Z</time>
      </trkpt>
      <trkpt lat="47.19911" lon="-0.08078">
        <ele>89</ele>
        <time>2011-02-20T14:04:10Z</time>
      </trkpt>
      <trkpt lat="47.1991" lon="-0.08071">
        <ele>89</ele>
        <time>2011-02-20T14:04:14Z</time>
      </trkpt>
      <trkpt lat="47.19909" lon="-0.08063">
        <ele>89</ele>
        <time>2011-02-20T14:04:19Z</time>
      </trkpt>
      <trkpt lat="47.19908" lon="-0.08056">
        <ele>90</ele>
        <time>2011-02-20T14:04:24Z</time>
      </trkpt>
      <trkpt lat="47.19907" lon="-0.08049">
        <ele>90</ele>
        <time>2011-02-20T14:04:34Z</time>
      </trkpt>
      <trkpt lat="47.19906" lon="-0.08042">
        <ele>90</ele>
        <time>2011-02-20T14:04:42Z</time>
      </trkpt>
      <trkpt lat="47.19903" lon="-0.08036">
        <ele>91</ele>
        <time>2011-02-20T14:04:47Z</time>
      </trkpt>
      <trkpt lat="47.199" lon="-0.08032">
        <ele>91</ele>
        <time>2011-02-20T14:04:52Z</time>
      </trkpt>
      <trkpt lat="47.19895" lon="-0.08027">
        <ele>91</ele>
        <time>2011-02-20T14:04:58Z</time>
      </trkpt>
      <trkpt lat="47.19891" lon="-0.08023">
        <ele>91</ele>
        <time>2011-02-20T14:05:03Z</time>
      </trkpt>
      <trkpt lat="47.19887" lon="-0.08018">
        <ele>91</ele>
        <time>2011-02-20T14:05:10Z</time>
      </trkpt>
      <trkpt lat="47.19885" lon="-0.08013">
        <ele>92</ele>
        <time>2011-02-20T14:05:18Z</time>
      </trkpt>
      <trkpt lat="47.19881" lon="-0.08008">
        <ele>92</ele>
        <time>2011-02-20T14:05:22Z</time>
      </trkpt>
      <trkpt lat="47.19876" lon="-0.08004">
        <ele>92</ele>
        <time>2011-02-20T14:05:28Z</time>
      </trkpt>
      <trkpt lat="47.19873" lon="-0.07999">
        <ele>92</ele>
        <time>2011-02-20T14:05:32Z</time>
      </trkpt>
      <trkpt lat="47.1987" lon="-0.07992">
        <ele>92</ele>
        <time>2011-02-20T14:05:36Z</time>
      </trkpt>
      <trkpt lat="47.19869" lon="-0.07986">
        <ele>92</ele>
        <time>2011-02-20T14:05:40Z</time>
      </trkpt>
      <trkpt lat="47.19868" lon="-0.07978">
        <ele>93</ele>
        <time>2011-02-20T14:05:45Z</time>
      </trkpt>
      <trkpt lat="47.19866" lon="-0.0797">
        <ele>93</ele>
        <time>2011-02-20T14:05:49Z</time>
      </trkpt>
      <trkpt lat="47.19866" lon="-0.07962">
        <ele>94</ele>
        <time>2011-02-20T14:05:53Z</time>
      </trkpt>
      <trkpt lat="47.19868" lon="-0.07955">
        <ele>94</ele>
        <time>2011-02-20T14:05:57Z</time>
      </trkpt>
      <trkpt lat="47.19869" lon="-0.07948">
        <ele>95</ele>
        <time>2011-02-20T14:06:02Z</time>
      </trkpt>
      <trkpt lat="47.1987" lon="-0.0794">
        <ele>95</ele>
        <time>2011-02-20T14:06:07Z</time>
      </trkpt>
      <trkpt lat="47.19871" lon="-0.07933">
        <ele>96</ele>
        <time>2011-02-20T14:06:12Z</time>
      </trkpt>
      <trkpt lat="47.19871" lon="-0.07926">
        <ele>95</ele>
        <time>2011-02-20T14:06:16Z</time>
      </trkpt>
      <trkpt lat="47.19871" lon="-0.07919">
        <ele>95</ele>
        <time>2011-02-20T14:06:20Z</time>
      </trkpt>
      <trkpt lat="47.19872" lon="-0.07911">
        <ele>94</ele>
        <time>2011-02-20T14:06:24Z</time>
      </trkpt>
      <trkpt lat="47.19872" lon="-0.07903">
        <ele>94</ele>
        <time>2011-02-20T14:06:28Z</time>
      </trkpt>
      <trkpt lat="47.19871" lon="-0.07895">
        <ele>93</ele>
        <time>2011-02-20T14:06:32Z</time>
      </trkpt>
      <trkpt lat="47.19871" lon="-0.07887">
        <ele>93</ele>
        <time>2011-02-20T14:06:36Z</time>
      </trkpt>
      <trkpt lat="47.1987" lon="-0.07879">
        <ele>92</ele>
        <time>2011-02-20T14:06:40Z</time>
      </trkpt>
      <trkpt lat="47.19869" lon="-0.07873">
        <ele>92</ele>
        <time>2011-02-20T14:06:44Z</time>
      </trkpt>
      <trkpt lat="47.19869" lon="-0.07865">
        <ele>92</ele>
        <time>2011-02-20T14:06:50Z</time>
      </trkpt>
      <trkpt lat="47.19874" lon="-0.07867">
        <ele>92</ele>
        <time>2011-02-20T14:06:55Z</time>
      </trkpt>
      <trkpt lat="47.19878" lon="-0.0787">
        <ele>93</ele>
        <time>2011-02-20T14:07:05Z</time>
      </trkpt>
      <trkpt lat="47.1988" lon="-0.07863">
        <ele>94</ele>
        <time>2011-02-20T14:07:11Z</time>
      </trkpt>
      <trkpt lat="47.19878" lon="-0.07855">
        <ele>95</ele>
        <time>2011-02-20T14:07:16Z</time>
      </trkpt>
      <trkpt lat="47.19878" lon="-0.07847">
        <ele>96</ele>
        <time>2011-02-20T14:07:21Z</time>
      </trkpt>
      <trkpt lat="47.19876" lon="-0.0784">
        <ele>96</ele>
        <time>2011-02-20T14:07:27Z</time>
      </trkpt>
      <trkpt lat="47.19875" lon="-0.07833">
        <ele>97</ele>
        <time>2011-02-20T14:07:33Z</time>
      </trkpt>
      <trkpt lat="47.19875" lon="-0.07825">
        <ele>98</ele>
        <time>2011-02-20T14:07:39Z</time>
      </trkpt>
      <trkpt lat="47.19874" lon="-0.07817">
        <ele>98</ele>
        <time>2011-02-20T14:07:45Z</time>
      </trkpt>
      <trkpt lat="47.19874" lon="-0.0781">
        <ele>99</ele>
        <time>2011-02-20T14:07:50Z</time>
      </trkpt>
      <trkpt lat="47.19873" lon="-0.07803">
        <ele>99</ele>
        <time>2011-02-20T14:07:55Z</time>
      </trkpt>
      <trkpt lat="47.19873" lon="-0.07796">
        <ele>99</ele>
        <time>2011-02-20T14:08:00Z</time>
      </trkpt>
      <trkpt lat="47.19874" lon="-0.07789">
        <ele>100</ele>
        <time>2011-02-20T14:08:05Z</time>
      </trkpt>
      <trkpt lat="47.19874" lon="-0.07781">
        <ele>100</ele>
        <time>2011-02-20T14:08:10Z</time>
      </trkpt>
      <trkpt lat="47.19874" lon="-0.07774">
        <ele>100</ele>
        <time>2011-02-20T14:08:15Z</time>
      </trkpt>
      <trkpt lat="47.19876" lon="-0.07767">
        <ele>101</ele>
        <time>2011-02-20T14:08:20Z</time>
      </trkpt>
      <trkpt lat="47.1988" lon="-0.07763">
        <ele>101</ele>
        <time>2011-02-20T14:08:23Z</time>
      </trkpt>
      <trkpt lat="47.19884" lon="-0.0776">
        <ele>101</ele>
        <time>2011-02-20T14:08:26Z</time>
      </trkpt>
      <trkpt lat="47.19887" lon="-0.07754">
        <ele>102</ele>
        <time>2011-02-20T14:08:30Z</time>
      </trkpt>
      <trkpt lat="47.1989" lon="-0.07749">
        <ele>102</ele>
        <time>2011-02-20T14:08:34Z</time>
      </trkpt>
      <trkpt lat="47.19895" lon="-0.07746">
        <ele>103</ele>
        <time>2011-02-20T14:08:39Z</time>
      </trkpt>
      <trkpt lat="47.199" lon="-0.07745">
        <ele>103</ele>
        <time>2011-02-20T14:08:43Z</time>
      </trkpt>
      <trkpt lat="47.19904" lon="-0.07746">
        <ele>104</ele>
        <time>2011-02-20T14:08:47Z</time>
      </trkpt>
      <trkpt lat="47.1991" lon="-0.07747">
        <ele>105</ele>
        <time>2011-02-20T14:08:52Z</time>
      </trkpt>
      <trkpt lat="47.19914" lon="-0.07749">
        <ele>106</ele>
        <time>2011-02-20T14:08:57Z</time>
      </trkpt>
      <trkpt lat="47.19919" lon="-0.07751">
        <ele>107</ele>
        <time>2011-02-20T14:09:02Z</time>
      </trkpt>
      <trkpt lat="47.19923" lon="-0.07752">
        <ele>107</ele>
        <time>2011-02-20T14:09:07Z</time>
      </trkpt>
      <trkpt lat="47.19929" lon="-0.07754">
        <ele>108</ele>
        <time>2011-02-20T14:09:12Z</time>
      </trkpt>
      <trkpt lat="47.19933" lon="-0.07756">
        <ele>109</ele>
        <time>2011-02-20T14:09:16Z</time>
      </trkpt>
      <trkpt lat="47.19938" lon="-0.07758">
        <ele>109</ele>
        <time>2011-02-20T14:09:20Z</time>
      </trkpt>
      <trkpt lat="47.19943" lon="-0.0776">
        <ele>110</ele>
        <time>2011-02-20T14:09:24Z</time>
      </trkpt>
      <trkpt lat="47.19947" lon="-0.07762">
        <ele>110</ele>
        <time>2011-02-20T14:09:28Z</time>
      </trkpt>
      <trkpt lat="47.19952" lon="-0.07764">
        <ele>111</ele>
        <time>2011-02-20T14:09:32Z</time>
      </trkpt>
      <trkpt lat="47.19957" lon="-0.07766">
        <ele>111</ele>
        <time>2011-02-20T14:09:36Z</time>
      </trkpt>
      <trkpt lat="47.19962" lon="-0.07766">
        <ele>112</ele>
        <time>2011-02-20T14:09:40Z</time>
      </trkpt>
      <trkpt lat="47.19966" lon="-0.07767">
        <ele>112</ele>
        <time>2011-02-20T14:09:44Z</time>
      </trkpt>
      <trkpt lat="47.19971" lon="-0.07769">
        <ele>112</ele>
        <time>2011-02-20T14:09:48Z</time>
      </trkpt>
      <trkpt lat="47.19975" lon="-0.0777">
        <ele>113</ele>
        <time>2011-02-20T14:09:52Z</time>
      </trkpt>
      <trkpt lat="47.19981" lon="-0.0777">
        <ele>113</ele>
        <time>2011-02-20T14:09:57Z</time>
      </trkpt>
      <trkpt lat="47.19986" lon="-0.07769">
        <ele>114</ele>
        <time>2011-02-20T14:10:02Z</time>
      </trkpt>
      <trkpt lat="47.19991" lon="-0.0777">
        <ele>114</ele>
        <time>2011-02-20T14:10:07Z</time>
      </trkpt>
      <trkpt lat="47.19996" lon="-0.0777">
        <ele>114</ele>
        <time>2011-02-20T14:10:11Z</time>
      </trkpt>
      <trkpt lat="47.20001" lon="-0.0777">
        <ele>115</ele>
        <time>2011-02-20T14:10:15Z</time>
      </trkpt>
      <trkpt lat="47.20005" lon="-0.07771">
        <ele>115</ele>
        <time>2011-02-20T14:10:19Z</time>
      </trkpt>
      <trkpt lat="47.2001" lon="-0.07771">
        <ele>115</ele>
        <time>2011-02-20T14:10:23Z</time>
      </trkpt>
      <trkpt lat="47.20015" lon="-0.0777">
        <ele>115</ele>
        <time>2011-02-20T14:10:28Z</time>
      </trkpt>
      <trkpt lat="47.20021" lon="-0.0777">
        <ele>116</ele>
        <time>2011-02-20T14:10:33Z</time>
      </trkpt>
      <trkpt lat="47.20026" lon="-0.0777">
        <ele>116</ele>
        <time>2011-02-20T14:10:38Z</time>
      </trkpt>
      <trkpt lat="47.20031" lon="-0.07771">
        <ele>116</ele>
        <time>2011-02-20T14:10:43Z</time>
      </trkpt>
      <trkpt lat="47.20036" lon="-0.07771">
        <ele>116</ele>
        <time>2011-02-20T14:10:48Z</time>
      </trkpt>
      <trkpt lat="47.20041" lon="-0.07771">
        <ele>117</ele>
        <time>2011-02-20T14:10:52Z</time>
      </trkpt>
      <trkpt lat="47.20045" lon="-0.07771">
        <ele>117</ele>
        <time>2011-02-20T14:10:56Z</time>
      </trkpt>
      <trkpt lat="47.2005" lon="-0.07771">
        <ele>117</ele>
        <time>2011-02-20T14:11:00Z</time>
      </trkpt>
      <trkpt lat="47.20055" lon="-0.07772">
        <ele>117</ele>
        <time>2011-02-20T14:11:04Z</time>
      </trkpt>
      <trkpt lat="47.2006" lon="-0.07772">
        <ele>117</ele>
        <time>2011-02-20T14:11:08Z</time>
      </trkpt>
      <trkpt lat="47.20064" lon="-0.07773">
        <ele>117</ele>
        <time>2011-02-20T14:11:12Z</time>
      </trkpt>
      <trkpt lat="47.20069" lon="-0.07774">
        <ele>117</ele>
        <time>2011-02-20T14:11:16Z</time>
      </trkpt>
      <trkpt lat="47.20073" lon="-0.07775">
        <ele>118</ele>
        <time>2011-02-20T14:11:20Z</time>
      </trkpt>
      <trkpt lat="47.20078" lon="-0.07777">
        <ele>118</ele>
        <time>2011-02-20T14:11:24Z</time>
      </trkpt>
      <trkpt lat="47.20083" lon="-0.07779">
        <ele>118</ele>
        <time>2011-02-20T14:11:28Z</time>
      </trkpt>
      <trkpt lat="47.20087" lon="-0.07781">
        <ele>118</ele>
        <time>2011-02-20T14:11:32Z</time>
      </trkpt>
      <trkpt lat="47.20092" lon="-0.07783">
        <ele>118</ele>
        <time>2011-02-20T14:11:36Z</time>
      </trkpt>
      <trkpt lat="47.20097" lon="-0.07786">
        <ele>119</ele>
        <time>2011-02-20T14:11:41Z</time>
      </trkpt>
      <trkpt lat="47.20101" lon="-0.07789">
        <ele>119</ele>
        <time>2011-02-20T14:11:45Z</time>
      </trkpt>
      <trkpt lat="47.20105" lon="-0.07793">
        <ele>119</ele>
        <time>2011-02-20T14:11:49Z</time>
      </trkpt>
      <trkpt lat="47.20108" lon="-0.07796">
        <ele>119</ele>
        <time>2011-02-20T14:11:53Z</time>
      </trkpt>
      <trkpt lat="47.20112" lon="-0.078">
        <ele>119</ele>
        <time>2011-02-20T14:11:57Z</time>
      </trkpt>
      <trkpt lat="47.20116" lon="-0.07804">
        <ele>120</ele>
        <time>2011-02-20T14:12:01Z</time>
      </trkpt>
      <trkpt lat="47.2012" lon="-0.07808">
        <ele>120</ele>
        <time>2011-02-20T14:12:05Z</time>
      </trkpt>
      <trkpt lat="47.20125" lon="-0.07812">
        <ele>120</ele>
        <time>2011-02-20T14:12:09Z</time>
      </trkpt>
      <trkpt lat="47.20129" lon="-0.07816">
        <ele>120</ele>
        <time>2011-02-20T14:12:13Z</time>
      </trkpt>
      <trkpt lat="47.20134" lon="-0.07821">
        <ele>120</ele>
        <time>2011-02-20T14:12:17Z</time>
      </trkpt>
      <trkpt lat="47.20138" lon="-0.07825">
        <ele>120</ele>
        <time>2011-02-20T14:12:21Z</time>
      </trkpt>
      <trkpt lat="47.20143" lon="-0.07829">
        <ele>120</ele>
        <time>2011-02-20T14:12:25Z</time>
      </trkpt>
      <trkpt lat="47.20148" lon="-0.07832">
        <ele>120</ele>
        <time>2011-02-20T14:12:29Z</time>
      </trkpt>
      <trkpt lat="47.20153" lon="-0.07836">
        <ele>120</ele>
        <time>2011-02-20T14:12:33Z</time>
      </trkpt>
      <trkpt lat="47.20157" lon="-0.07839">
        <ele>120</ele>
        <time>2011-02-20T14:12:37Z</time>
      </trkpt>
      <trkpt lat="47.20162" lon="-0.07842">
        <ele>120</ele>
        <time>2011-02-20T14:12:41Z</time>
      </trkpt>
      <trkpt lat="47.20167" lon="-0.07844">
        <ele>120</ele>
        <time>2011-02-20T14:12:45Z</time>
      </trkpt>
      <trkpt lat="47.20172" lon="-0.07847">
        <ele>121</ele>
        <time>2011-02-20T14:12:49Z</time>
      </trkpt>
      <trkpt lat="47.20177" lon="-0.07849">
        <ele>121</ele>
        <time>2011-02-20T14:12:53Z</time>
      </trkpt>
      <trkpt lat="47.20181" lon="-0.07852">
        <ele>121</ele>
        <time>2011-02-20T14:12:57Z</time>
      </trkpt>
      <trkpt lat="47.20187" lon="-0.07853">
        <ele>121</ele>
        <time>2011-02-20T14:13:01Z</time>
      </trkpt>
      <trkpt lat="47.20192" lon="-0.07855">
        <ele>121</ele>
        <time>2011-02-20T14:13:05Z</time>
      </trkpt>
      <trkpt lat="47.20197" lon="-0.07857">
        <ele>121</ele>
        <time>2011-02-20T14:13:09Z</time>
      </trkpt>
      <trkpt lat="47.20201" lon="-0.0786">
        <ele>121</ele>
        <time>2011-02-20T14:13:13Z</time>
      </trkpt>
      <trkpt lat="47.20206" lon="-0.07862">
        <ele>121</ele>
        <time>2011-02-20T14:13:17Z</time>
      </trkpt>
      <trkpt lat="47.2021" lon="-0.07864">
        <ele>121</ele>
        <time>2011-02-20T14:13:21Z</time>
      </trkpt>
      <trkpt lat="47.20215" lon="-0.07866">
        <ele>121</ele>
        <time>2011-02-20T14:13:26Z</time>
      </trkpt>
      <trkpt lat="47.2022" lon="-0.07868">
        <ele>121</ele>
        <time>2011-02-20T14:13:31Z</time>
      </trkpt>
      <trkpt lat="47.20225" lon="-0.07871">
        <ele>121</ele>
        <time>2011-02-20T14:13:36Z</time>
      </trkpt>
      <trkpt lat="47.20229" lon="-0.07875">
        <ele>121</ele>
        <time>2011-02-20T14:13:41Z</time>
      </trkpt>
      <trkpt lat="47.20234" lon="-0.07878">
        <ele>121</ele>
        <time>2011-02-20T14:13:47Z</time>
      </trkpt>
      <trkpt lat="47.20238" lon="-0.07881">
        <ele>121</ele>
        <time>2011-02-20T14:13:53Z</time>
      </trkpt>
      <trkpt lat="47.20242" lon="-0.07884">
        <ele>122</ele>
        <time>2011-02-20T14:13:58Z</time>
      </trkpt>
      <trkpt lat="47.20247" lon="-0.07886">
        <ele>122</ele>
        <time>2011-02-20T14:14:03Z</time>
      </trkpt>
      <trkpt lat="47.20253" lon="-0.07888">
        <ele>122</ele>
        <time>2011-02-20T14:14:07Z</time>
      </trkpt>
      <trkpt lat="47.20258" lon="-0.07889">
        <ele>122</ele>
        <time>2011-02-20T14:14:11Z</time>
      </trkpt>
      <trkpt lat="47.20263" lon="-0.07889">
        <ele>122</ele>
        <time>2011-02-20T14:14:15Z</time>
      </trkpt>
      <trkpt lat="47.20267" lon="-0.07889">
        <ele>122</ele>
        <time>2011-02-20T14:14:19Z</time>
      </trkpt>
      <trkpt lat="47.20272" lon="-0.0789">
        <ele>122</ele>
        <time>2011-02-20T14:14:23Z</time>
      </trkpt>
      <trkpt lat="47.20277" lon="-0.0789">
        <ele>121</ele>
        <time>2011-02-20T14:14:28Z</time>
      </trkpt>
      <trkpt lat="47.20282" lon="-0.0789">
        <ele>121</ele>
        <time>2011-02-20T14:14:32Z</time>
      </trkpt>
      <trkpt lat="47.20286" lon="-0.07889">
        <ele>121</ele>
        <time>2011-02-20T14:14:36Z</time>
      </trkpt>
      <trkpt lat="47.20292" lon="-0.07889">
        <ele>121</ele>
        <time>2011-02-20T14:14:41Z</time>
      </trkpt>
      <trkpt lat="47.20296" lon="-0.07888">
        <ele>121</ele>
        <time>2011-02-20T14:14:45Z</time>
      </trkpt>
      <trkpt lat="47.20302" lon="-0.07886">
        <ele>121</ele>
        <time>2011-02-20T14:14:50Z</time>
      </trkpt>
      <trkpt lat="47.20307" lon="-0.07883">
        <ele>120</ele>
        <time>2011-02-20T14:14:55Z</time>
      </trkpt>
      <trkpt lat="47.20311" lon="-0.0788">
        <ele>120</ele>
        <time>2011-02-20T14:14:59Z</time>
      </trkpt>
      <trkpt lat="47.20316" lon="-0.07878">
        <ele>120</ele>
        <time>2011-02-20T14:15:03Z</time>
      </trkpt>
      <trkpt lat="47.2032" lon="-0.07876">
        <ele>120</ele>
        <time>2011-02-20T14:15:07Z</time>
      </trkpt>
      <trkpt lat="47.20325" lon="-0.07874">
        <ele>119</ele>
        <time>2011-02-20T14:15:12Z</time>
      </trkpt>
      <trkpt lat="47.2033" lon="-0.07871">
        <ele>119</ele>
        <time>2011-02-20T14:15:17Z</time>
      </trkpt>
      <trkpt lat="47.20335" lon="-0.07868">
        <ele>119</ele>
        <time>2011-02-20T14:15:21Z</time>
      </trkpt>
      <trkpt lat="47.20339" lon="-0.07866">
        <ele>119</ele>
        <time>2011-02-20T14:15:25Z</time>
      </trkpt>
      <trkpt lat="47.20343" lon="-0.07863">
        <ele>119</ele>
        <time>2011-02-20T14:15:29Z</time>
      </trkpt>
      <trkpt lat="47.20348" lon="-0.07862">
        <ele>118</ele>
        <time>2011-02-20T14:15:33Z</time>
      </trkpt>
      <trkpt lat="47.20352" lon="-0.0786">
        <ele>118</ele>
        <time>2011-02-20T14:15:37Z</time>
      </trkpt>
      <trkpt lat="47.20357" lon="-0.07858">
        <ele>118</ele>
        <time>2011-02-20T14:15:41Z</time>
      </trkpt>
      <trkpt lat="47.20361" lon="-0.07857">
        <ele>118</ele>
        <time>2011-02-20T14:15:45Z</time>
      </trkpt>
      <trkpt lat="47.20366" lon="-0.07856">
        <ele>118</ele>
        <time>2011-02-20T14:15:49Z</time>
      </trkpt>
      <trkpt lat="47.2037" lon="-0.07854">
        <ele>117</ele>
        <time>2011-02-20T14:15:53Z</time>
      </trkpt>
      <trkpt lat="47.20375" lon="-0.07853">
        <ele>117</ele>
        <time>2011-02-20T14:15:57Z</time>
      </trkpt>
      <trkpt lat="47.20381" lon="-0.07852">
        <ele>117</ele>
        <time>2011-02-20T14:16:01Z</time>
      </trkpt>
      <trkpt lat="47.20385" lon="-0.0785">
        <ele>117</ele>
        <time>2011-02-20T14:16:05Z</time>
      </trkpt>
      <trkpt lat="47.2039" lon="-0.0785">
        <ele>116</ele>
        <time>2011-02-20T14:16:09Z</time>
      </trkpt>
      <trkpt lat="47.20394" lon="-0.07849">
        <ele>116</ele>
        <time>2011-02-20T14:16:13Z</time>
      </trkpt>
      <trkpt lat="47.20399" lon="-0.07847">
        <ele>115</ele>
        <time>2011-02-20T14:16:17Z</time>
      </trkpt>
      <trkpt lat="47.20403" lon="-0.07846">
        <ele>115</ele>
        <time>2011-02-20T14:16:21Z</time>
      </trkpt>
      <trkpt lat="47.20408" lon="-0.07847">
        <ele>115</ele>
        <time>2011-02-20T14:16:25Z</time>
      </trkpt>
      <trkpt lat="47.20413" lon="-0.07847">
        <ele>114</ele>
        <time>2011-02-20T14:16:30Z</time>
      </trkpt>
      <trkpt lat="47.20418" lon="-0.07848">
        <ele>114</ele>
        <time>2011-02-20T14:16:35Z</time>
      </trkpt>
      <trkpt lat="47.20423" lon="-0.07848">
        <ele>113</ele>
        <time>2011-02-20T14:16:40Z</time>
      </trkpt>
      <trkpt lat="47.20428" lon="-0.07849">
        <ele>113</ele>
        <time>2011-02-20T14:16:45Z</time>
      </trkpt>
      <trkpt lat="47.20433" lon="-0.07848">
        <ele>112</ele>
        <time>2011-02-20T14:16:50Z</time>
      </trkpt>
      <trkpt lat="47.20438" lon="-0.07849">
        <ele>112</ele>
        <time>2011-02-20T14:16:55Z</time>
      </trkpt>
      <trkpt lat="47.20443" lon="-0.0785">
        <ele>111</ele>
        <time>2011-02-20T14:17:00Z</time>
      </trkpt>
      <trkpt lat="47.20449" lon="-0.0785">
        <ele>111</ele>
        <time>2011-02-20T14:17:05Z</time>
      </trkpt>
      <trkpt lat="47.20453" lon="-0.0785">
        <ele>110</ele>
        <time>2011-02-20T14:17:09Z</time>
      </trkpt>
      <trkpt lat="47.20458" lon="-0.07851">
        <ele>110</ele>
        <time>2011-02-20T14:17:13Z</time>
      </trkpt>
      <trkpt lat="47.20463" lon="-0.07851">
        <ele>109</ele>
        <time>2011-02-20T14:17:17Z</time>
      </trkpt>
      <trkpt lat="47.20468" lon="-0.07851">
        <ele>109</ele>
        <time>2011-02-20T14:17:21Z</time>
      </trkpt>
      <trkpt lat="47.20473" lon="-0.0785">
        <ele>108</ele>
        <time>2011-02-20T14:17:25Z</time>
      </trkpt>
      <trkpt lat="47.20478" lon="-0.07849">
        <ele>108</ele>
        <time>2011-02-20T14:17:29Z</time>
      </trkpt>
      <trkpt lat="47.20482" lon="-0.07848">
        <ele>107</ele>
        <time>2011-02-20T14:17:33Z</time>
      </trkpt>
      <trkpt lat="47.20487" lon="-0.07848">
        <ele>107</ele>
        <time>2011-02-20T14:17:37Z</time>
      </trkpt>
      <trkpt lat="47.20492" lon="-0.07847">
        <ele>107</ele>
        <time>2011-02-20T14:17:41Z</time>
      </trkpt>
      <trkpt lat="47.20496" lon="-0.07846">
        <ele>106</ele>
        <time>2011-02-20T14:17:45Z</time>
      </trkpt>
      <trkpt lat="47.20501" lon="-0.07845">
        <ele>106</ele>
        <time>2011-02-20T14:17:49Z</time>
      </trkpt>
      <trkpt lat="47.20506" lon="-0.07844">
        <ele>105</ele>
        <time>2011-02-20T14:17:54Z</time>
      </trkpt>
      <trkpt lat="47.20511" lon="-0.07843">
        <ele>104</ele>
        <time>2011-02-20T14:17:58Z</time>
      </trkpt>
      <trkpt lat="47.20516" lon="-0.07842">
        <ele>104</ele>
        <time>2011-02-20T14:18:03Z</time>
      </trkpt>
      <trkpt lat="47.20521" lon="-0.07841">
        <ele>103</ele>
        <time>2011-02-20T14:18:08Z</time>
      </trkpt>
      <trkpt lat="47.20526" lon="-0.0784">
        <ele>103</ele>
        <time>2011-02-20T14:18:13Z</time>
      </trkpt>
      <trkpt lat="47.20531" lon="-0.07838">
        <ele>102</ele>
        <time>2011-02-20T14:18:18Z</time>
      </trkpt>
      <trkpt lat="47.20536" lon="-0.07836">
        <ele>102</ele>
        <time>2011-02-20T14:18:22Z</time>
      </trkpt>
      <trkpt lat="47.20541" lon="-0.07835">
        <ele>101</ele>
        <time>2011-02-20T14:18:27Z</time>
      </trkpt>
      <trkpt lat="47.20547" lon="-0.07834">
        <ele>101</ele>
        <time>2011-02-20T14:18:32Z</time>
      </trkpt>
      <trkpt lat="47.20551" lon="-0.07834">
        <ele>100</ele>
        <time>2011-02-20T14:18:36Z</time>
      </trkpt>
      <trkpt lat="47.20556" lon="-0.07833">
        <ele>100</ele>
        <time>2011-02-20T14:18:40Z</time>
      </trkpt>
      <trkpt lat="47.20561" lon="-0.07832">
        <ele>99</ele>
        <time>2011-02-20T14:18:45Z</time>
      </trkpt>
      <trkpt lat="47.20565" lon="-0.07831">
        <ele>99</ele>
        <time>2011-02-20T14:18:49Z</time>
      </trkpt>
      <trkpt lat="47.2057" lon="-0.0783">
        <ele>98</ele>
        <time>2011-02-20T14:18:53Z</time>
      </trkpt>
      <trkpt lat="47.20574" lon="-0.07828">
        <ele>98</ele>
        <time>2011-02-20T14:18:57Z</time>
      </trkpt>
      <trkpt lat="47.20579" lon="-0.07827">
        <ele>98</ele>
        <time>2011-02-20T14:19:01Z</time>
      </trkpt>
      <trkpt lat="47.20583" lon="-0.07825">
        <ele>97</ele>
        <time>2011-02-20T14:19:05Z</time>
      </trkpt>
      <trkpt lat="47.20588" lon="-0.07824">
        <ele>97</ele>
        <time>2011-02-20T14:19:09Z</time>
      </trkpt>
      <trkpt lat="47.20593" lon="-0.07822">
        <ele>97</ele>
        <time>2011-02-20T14:19:14Z</time>
      </trkpt>
      <trkpt lat="47.20598" lon="-0.07821">
        <ele>96</ele>
        <time>2011-02-20T14:19:19Z</time>
      </trkpt>
      <trkpt lat="47.20603" lon="-0.07819">
        <ele>96</ele>
        <time>2011-02-20T14:19:23Z</time>
      </trkpt>
      <trkpt lat="47.20607" lon="-0.07818">
        <ele>96</ele>
        <time>2011-02-20T14:19:27Z</time>
      </trkpt>
      <trkpt lat="47.20612" lon="-0.07817">
        <ele>95</ele>
        <time>2011-02-20T14:19:31Z</time>
      </trkpt>
      <trkpt lat="47.20617" lon="-0.07816">
        <ele>95</ele>
        <time>2011-02-20T14:19:35Z</time>
      </trkpt>
      <trkpt lat="47.20621" lon="-0.07815">
        <ele>95</ele>
        <time>2011-02-20T14:19:39Z</time>
      </trkpt>
      <trkpt lat="47.20626" lon="-0.07814">
        <ele>95</ele>
        <time>2011-02-20T14:19:43Z</time>
      </trkpt>
      <trkpt lat="47.2063" lon="-0.07812">
        <ele>94</ele>
        <time>2011-02-20T14:19:47Z</time>
      </trkpt>
      <trkpt lat="47.20635" lon="-0.07811">
        <ele>94</ele>
        <time>2011-02-20T14:19:51Z</time>
      </trkpt>
      <trkpt lat="47.20641" lon="-0.07809">
        <ele>94</ele>
        <time>2011-02-20T14:19:56Z</time>
      </trkpt>
      <trkpt lat="47.20646" lon="-0.07807">
        <ele>93</ele>
        <time>2011-02-20T14:20:01Z</time>
      </trkpt>
      <trkpt lat="47.20651" lon="-0.07806">
        <ele>93</ele>
        <time>2011-02-20T14:20:06Z</time>
      </trkpt>
      <trkpt lat="47.20657" lon="-0.07805">
        <ele>93</ele>
        <time>2011-02-20T14:20:11Z</time>
      </trkpt>
      <trkpt lat="47.20661" lon="-0.07804">
        <ele>92</ele>
        <time>2011-02-20T14:20:15Z</time>
      </trkpt>
      <trkpt lat="47.20666" lon="-0.07803">
        <ele>92</ele>
        <time>2011-02-20T14:20:19Z</time>
      </trkpt>
      <trkpt lat="47.2067" lon="-0.07802">
        <ele>92</ele>
        <time>2011-02-20T14:20:23Z</time>
      </trkpt>
      <trkpt lat="47.20675" lon="-0.078">
        <ele>92</ele>
        <time>2011-02-20T14:20:28Z</time>
      </trkpt>
      <trkpt lat="47.2068" lon="-0.07798">
        <ele>91</ele>
        <time>2011-02-20T14:20:32Z</time>
      </trkpt>
      <trkpt lat="47.20685" lon="-0.07796">
        <ele>91</ele>
        <time>2011-02-20T14:20:36Z</time>
      </trkpt>
      <trkpt lat="47.2069" lon="-0.07793">
        <ele>91</ele>
        <time>2011-02-20T14:20:40Z</time>
      </trkpt>
      <trkpt lat="47.20695" lon="-0.0779">
        <ele>91</ele>
        <time>2011-02-20T14:20:44Z</time>
      </trkpt>
      <trkpt lat="47.20699" lon="-0.07788">
        <ele>90</ele>
        <time>2011-02-20T14:20:48Z</time>
      </trkpt>
      <trkpt lat="47.20704" lon="-0.07785">
        <ele>90</ele>
        <time>2011-02-20T14:20:53Z</time>
      </trkpt>
      <trkpt lat="47.20709" lon="-0.07783">
        <ele>90</ele>
        <time>2011-02-20T14:20:57Z</time>
      </trkpt>
      <trkpt lat="47.20714" lon="-0.0778">
        <ele>89</ele>
        <time>2011-02-20T14:21:01Z</time>
      </trkpt>
      <trkpt lat="47.20718" lon="-0.07778">
        <ele>89</ele>
        <time>2011-02-20T14:21:05Z</time>
      </trkpt>
      <trkpt lat="47.20723" lon="-0.07776">
        <ele>89</ele>
        <time>2011-02-20T14:21:09Z</time>
      </trkpt>
      <trkpt lat="47.20729" lon="-0.07773">
        <ele>88</ele>
        <time>2011-02-20T14:21:13Z</time>
      </trkpt>
      <trkpt lat="47.20733" lon="-0.07771">
        <ele>88</ele>
        <time>2011-02-20T14:21:16Z</time>
      </trkpt>
      <trkpt lat="47.20738" lon="-0.07769">
        <ele>88</ele>
        <time>2011-02-20T14:21:20Z</time>
      </trkpt>
      <trkpt lat="47.20742" lon="-0.07766">
        <ele>88</ele>
        <time>2011-02-20T14:21:24Z</time>
      </trkpt>
      <trkpt lat="47.20747" lon="-0.07764">
        <ele>87</ele>
        <time>2011-02-20T14:21:28Z</time>
      </trkpt>
      <trkpt lat="47.20752" lon="-0.07762">
        <ele>87</ele>
        <time>2011-02-20T14:21:32Z</time>
      </trkpt>
      <trkpt lat="47.20756" lon="-0.0776">
        <ele>87</ele>
        <time>2011-02-20T14:21:36Z</time>
      </trkpt>
      <trkpt lat="47.20761" lon="-0.07757">
        <ele>87</ele>
        <time>2011-02-20T14:21:40Z</time>
      </trkpt>
      <trkpt lat="47.20766" lon="-0.07754">
        <ele>87</ele>
        <time>2011-02-20T14:21:44Z</time>
      </trkpt>
      <trkpt lat="47.20771" lon="-0.07752">
        <ele>87</ele>
        <time>2011-02-20T14:21:48Z</time>
      </trkpt>
      <trkpt lat="47.20775" lon="-0.07749">
        <ele>86</ele>
        <time>2011-02-20T14:21:52Z</time>
      </trkpt>
      <trkpt lat="47.2078" lon="-0.07747">
        <ele>86</ele>
        <time>2011-02-20T14:21:56Z</time>
      </trkpt>
      <trkpt lat="47.20784" lon="-0.07744">
        <ele>86</ele>
        <time>2011-02-20T14:22:00Z</time>
      </trkpt>
      <trkpt lat="47.20789" lon="-0.07742">
        <ele>86</ele>
        <time>2011-02-20T14:22:04Z</time>
      </trkpt>
      <trkpt lat="47.20794" lon="-0.07739">
        <ele>86</ele>
        <time>2011-02-20T14:22:08Z</time>
      </trkpt>
      <trkpt lat="47.20798" lon="-0.07737">
        <ele>86</ele>
        <time>2011-02-20T14:22:12Z</time>
      </trkpt>
      <trkpt lat="47.20803" lon="-0.07734">
        <ele>86</ele>
        <time>2011-02-20T14:22:16Z</time>
      </trkpt>
      <trkpt lat="47.20807" lon="-0.07732">
        <ele>86</ele>
        <time>2011-02-20T14:22:20Z</time>
      </trkpt>
      <trkpt lat="47.20812" lon="-0.07729">
        <ele>86</ele>
        <time>2011-02-20T14:22:24Z</time>
      </trkpt>
      <trkpt lat="47.20816" lon="-0.07727">
        <ele>86</ele>
        <time>2011-02-20T14:22:28Z</time>
      </trkpt>
      <trkpt lat="47.20822" lon="-0.07724">
        <ele>86</ele>
        <time>2011-02-20T14:22:33Z</time>
      </trkpt>
      <trkpt lat="47.20826" lon="-0.07722">
        <ele>85</ele>
        <time>2011-02-20T14:22:37Z</time>
      </trkpt>
      <trkpt lat="47.2083" lon="-0.0772">
        <ele>85</ele>
        <time>2011-02-20T14:22:41Z</time>
      </trkpt>
      <trkpt lat="47.20835" lon="-0.07718">
        <ele>85</ele>
        <time>2011-02-20T14:22:45Z</time>
      </trkpt>
      <trkpt lat="47.20839" lon="-0.07716">
        <ele>85</ele>
        <time>2011-02-20T14:22:49Z</time>
      </trkpt>
      <trkpt lat="47.20844" lon="-0.07714">
        <ele>85</ele>
        <time>2011-02-20T14:22:53Z</time>
      </trkpt>
      <trkpt lat="47.20848" lon="-0.07711">
        <ele>85</ele>
        <time>2011-02-20T14:22:57Z</time>
      </trkpt>
      <trkpt lat="47.20853" lon="-0.07709">
        <ele>85</ele>
        <time>2011-02-20T14:23:01Z</time>
      </trkpt>
      <trkpt lat="47.20858" lon="-0.07708">
        <ele>85</ele>
        <time>2011-02-20T14:23:05Z</time>
      </trkpt>
      <trkpt lat="47.20863" lon="-0.07706">
        <ele>85</ele>
        <time>2011-02-20T14:23:09Z</time>
      </trkpt>
      <trkpt lat="47.20868" lon="-0.07704">
        <ele>85</ele>
        <time>2011-02-20T14:23:14Z</time>
      </trkpt>
      <trkpt lat="47.20873" lon="-0.07702">
        <ele>85</ele>
        <time>2011-02-20T14:23:18Z</time>
      </trkpt>
      <trkpt lat="47.20879" lon="-0.07701">
        <ele>85</ele>
        <time>2011-02-20T14:23:22Z</time>
      </trkpt>
      <trkpt lat="47.20884" lon="-0.077">
        <ele>85</ele>
        <time>2011-02-20T14:23:26Z</time>
      </trkpt>
      <trkpt lat="47.20889" lon="-0.07699">
        <ele>84</ele>
        <time>2011-02-20T14:23:30Z</time>
      </trkpt>
      <trkpt lat="47.20894" lon="-0.07698">
        <ele>84</ele>
        <time>2011-02-20T14:23:34Z</time>
      </trkpt>
      <trkpt lat="47.20899" lon="-0.07697">
        <ele>84</ele>
        <time>2011-02-20T14:23:38Z</time>
      </trkpt>
      <trkpt lat="47.20904" lon="-0.07696">
        <ele>84</ele>
        <time>2011-02-20T14:23:42Z</time>
      </trkpt>
      <trkpt lat="47.20909" lon="-0.07695">
        <ele>84</ele>
        <time>2011-02-20T14:23:46Z</time>
      </trkpt>
      <trkpt lat="47.20914" lon="-0.07694">
        <ele>84</ele>
        <time>2011-02-20T14:23:50Z</time>
      </trkpt>
      <trkpt lat="47.20919" lon="-0.07693">
        <ele>84</ele>
        <time>2011-02-20T14:23:54Z</time>
      </trkpt>
      <trkpt lat="47.20924" lon="-0.07692">
        <ele>84</ele>
        <time>2011-02-20T14:23:58Z</time>
      </trkpt>
      <trkpt lat="47.20929" lon="-0.07691">
        <ele>84</ele>
        <time>2011-02-20T14:24:02Z</time>
      </trkpt>
      <trkpt lat="47.20934" lon="-0.07691">
        <ele>84</ele>
        <time>2011-02-20T14:24:06Z</time>
      </trkpt>
      <trkpt lat="47.20939" lon="-0.0769">
        <ele>84</ele>
        <time>2011-02-20T14:24:10Z</time>
      </trkpt>
      <trkpt lat="47.20944" lon="-0.07689">
        <ele>84</ele>
        <time>2011-02-20T14:24:14Z</time>
      </trkpt>
      <trkpt lat="47.20949" lon="-0.07688">
        <ele>84</ele>
        <time>2011-02-20T14:24:18Z</time>
      </trkpt>
      <trkpt lat="47.20955" lon="-0.07687">
        <ele>84</ele>
        <time>2011-02-20T14:24:22Z</time>
      </trkpt>
      <trkpt lat="47.2096" lon="-0.07686">
        <ele>84</ele>
        <time>2011-02-20T14:24:26Z</time>
      </trkpt>
      <trkpt lat="47.20965" lon="-0.07686">
        <ele>84</ele>
        <time>2011-02-20T14:24:30Z</time>
      </trkpt>
      <trkpt lat="47.20969" lon="-0.07685">
        <ele>84</ele>
        <time>2011-02-20T14:24:34Z</time>
      </trkpt>
      <trkpt lat="47.20975" lon="-0.07684">
        <ele>84</ele>
        <time>2011-02-20T14:24:38Z</time>
      </trkpt>
      <trkpt lat="47.2098" lon="-0.07684">
        <ele>84</ele>
        <time>2011-02-20T14:24:42Z</time>
      </trkpt>
      <trkpt lat="47.20985" lon="-0.07683">
        <ele>84</ele>
        <time>2011-02-20T14:24:46Z</time>
      </trkpt>
      <trkpt lat="47.2099" lon="-0.07682">
        <ele>84</ele>
        <time>2011-02-20T14:24:50Z</time>
      </trkpt>
      <trkpt lat="47.20995" lon="-0.07681">
        <ele>84</ele>
        <time>2011-02-20T14:24:54Z</time>
      </trkpt>
      <trkpt lat="47.21001" lon="-0.0768">
        <ele>84</ele>
        <time>2011-02-20T14:24:58Z</time>
      </trkpt>
      <trkpt lat="47.21006" lon="-0.07679">
        <ele>84</ele>
        <time>2011-02-20T14:25:02Z</time>
      </trkpt>
      <trkpt lat="47.21011" lon="-0.07678">
        <ele>84</ele>
        <time>2011-02-20T14:25:06Z</time>
      </trkpt>
      <trkpt lat="47.21016" lon="-0.07677">
        <ele>84</ele>
        <time>2011-02-20T14:25:10Z</time>
      </trkpt>
      <trkpt lat="47.21021" lon="-0.07677">
        <ele>84</ele>
        <time>2011-02-20T14:25:14Z</time>
      </trkpt>
      <trkpt lat="47.21027" lon="-0.07676">
        <ele>84</ele>
        <time>2011-02-20T14:25:18Z</time>
      </trkpt>
      <trkpt lat="47.21032" lon="-0.07676">
        <ele>84</ele>
        <time>2011-02-20T14:25:22Z</time>
      </trkpt>
      <trkpt lat="47.21037" lon="-0.07675">
        <ele>83</ele>
        <time>2011-02-20T14:25:26Z</time>
      </trkpt>
      <trkpt lat="47.21042" lon="-0.07674">
        <ele>83</ele>
        <time>2011-02-20T14:25:30Z</time>
      </trkpt>
      <trkpt lat="47.21047" lon="-0.07674">
        <ele>83</ele>
        <time>2011-02-20T14:25:34Z</time>
      </trkpt>
      <trkpt lat="47.21052" lon="-0.07673">
        <ele>83</ele>
        <time>2011-02-20T14:25:38Z</time>
      </trkpt>
      <trkpt lat="47.21057" lon="-0.07672">
        <ele>83</ele>
        <time>2011-02-20T14:25:42Z</time>
      </trkpt>
      <trkpt lat="47.21062" lon="-0.07672">
        <ele>83</ele>
        <time>2011-02-20T14:25:46Z</time>
      </trkpt>
      <trkpt lat="47.21067" lon="-0.07671">
        <ele>83</ele>
        <time>2011-02-20T14:25:50Z</time>
      </trkpt>
      <trkpt lat="47.21073" lon="-0.0767">
        <ele>83</ele>
        <time>2011-02-20T14:25:54Z</time>
      </trkpt>
      <trkpt lat="47.21077" lon="-0.07668">
        <ele>83</ele>
        <time>2011-02-20T14:25:58Z</time>
      </trkpt>
      <trkpt lat="47.21082" lon="-0.07667">
        <ele>82</ele>
        <time>2011-02-20T14:26:02Z</time>
      </trkpt>
      <trkpt lat="47.21087" lon="-0.07666">
        <ele>82</ele>
        <time>2011-02-20T14:26:06Z</time>
      </trkpt>
      <trkpt lat="47.21091" lon="-0.07664">
        <ele>82</ele>
        <time>2011-02-20T14:26:10Z</time>
      </trkpt>
      <trkpt lat="47.21096" lon="-0.07664">
        <ele>82</ele>
        <time>2011-02-20T14:26:14Z</time>
      </trkpt>
      <trkpt lat="47.21101" lon="-0.07662">
        <ele>82</ele>
        <time>2011-02-20T14:26:18Z</time>
      </trkpt>
      <trkpt lat="47.21106" lon="-0.07661">
        <ele>82</ele>
        <time>2011-02-20T14:26:22Z</time>
      </trkpt>
      <trkpt lat="47.21111" lon="-0.0766">
        <ele>82</ele>
        <time>2011-02-20T14:26:26Z</time>
      </trkpt>
      <trkpt lat="47.21116" lon="-0.07658">
        <ele>82</ele>
        <time>2011-02-20T14:26:30Z</time>
      </trkpt>
      <trkpt lat="47.2112" lon="-0.07656">
        <ele>82</ele>
        <time>2011-02-20T14:26:34Z</time>
      </trkpt>
      <trkpt lat="47.21125" lon="-0.07655">
        <ele>82</ele>
        <time>2011-02-20T14:26:38Z</time>
      </trkpt>
      <trkpt lat="47.21129" lon="-0.07653">
        <ele>82</ele>
        <time>2011-02-20T14:26:42Z</time>
      </trkpt>
      <trkpt lat="47.21133" lon="-0.07651">
        <ele>82</ele>
        <time>2011-02-20T14:26:46Z</time>
      </trkpt>
      <trkpt lat="47.21138" lon="-0.0765">
        <ele>82</ele>
        <time>2011-02-20T14:26:50Z</time>
      </trkpt>
      <trkpt lat="47.21143" lon="-0.07649">
        <ele>82</ele>
        <time>2011-02-20T14:26:54Z</time>
      </trkpt>
      <trkpt lat="47.21148" lon="-0.07647">
        <ele>81</ele>
        <time>2011-02-20T14:26:59Z</time>
      </trkpt>
      <trkpt lat="47.21153" lon="-0.07646">
        <ele>81</ele>
        <time>2011-02-20T14:27:04Z</time>
      </trkpt>
      <trkpt lat="47.21158" lon="-0.07646">
        <ele>82</ele>
        <time>2011-02-20T14:27:10Z</time>
      </trkpt>
      <trkpt lat="47.21163" lon="-0.07645">
        <ele>81</ele>
        <time>2011-02-20T14:27:15Z</time>
      </trkpt>
      <trkpt lat="47.21169" lon="-0.07645">
        <ele>81</ele>
        <time>2011-02-20T14:27:20Z</time>
      </trkpt>
      <trkpt lat="47.21174" lon="-0.07644">
        <ele>81</ele>
        <time>2011-02-20T14:27:24Z</time>
      </trkpt>
      <trkpt lat="47.21179" lon="-0.07642">
        <ele>81</ele>
        <time>2011-02-20T14:27:28Z</time>
      </trkpt>
      <trkpt lat="47.21184" lon="-0.0764">
        <ele>81</ele>
        <time>2011-02-20T14:27:32Z</time>
      </trkpt>
      <trkpt lat="47.21189" lon="-0.07639">
        <ele>81</ele>
        <time>2011-02-20T14:27:36Z</time>
      </trkpt>
      <trkpt lat="47.21195" lon="-0.07637">
        <ele>81</ele>
        <time>2011-02-20T14:27:40Z</time>
      </trkpt>
      <trkpt lat="47.21199" lon="-0.07634">
        <ele>81</ele>
        <time>2011-02-20T14:27:44Z</time>
      </trkpt>
      <trkpt lat="47.21204" lon="-0.07632">
        <ele>81</ele>
        <time>2011-02-20T14:27:48Z</time>
      </trkpt>
      <trkpt lat="47.2121" lon="-0.0763">
        <ele>81</ele>
        <time>2011-02-20T14:27:52Z</time>
      </trkpt>
      <trkpt lat="47.21214" lon="-0.07628">
        <ele>81</ele>
        <time>2011-02-20T14:27:55Z</time>
      </trkpt>
      <trkpt lat="47.2122" lon="-0.07626">
        <ele>81</ele>
        <time>2011-02-20T14:27:59Z</time>
      </trkpt>
      <trkpt lat="47.21226" lon="-0.07624">
        <ele>81</ele>
        <time>2011-02-20T14:28:03Z</time>
      </trkpt>
      <trkpt lat="47.2123" lon="-0.07622">
        <ele>81</ele>
        <time>2011-02-20T14:28:06Z</time>
      </trkpt>
      <trkpt lat="47.21236" lon="-0.0762">
        <ele>81</ele>
        <time>2011-02-20T14:28:10Z</time>
      </trkpt>
      <trkpt lat="47.21241" lon="-0.07618">
        <ele>81</ele>
        <time>2011-02-20T14:28:14Z</time>
      </trkpt>
      <trkpt lat="47.21246" lon="-0.07616">
        <ele>81</ele>
        <time>2011-02-20T14:28:18Z</time>
      </trkpt>
      <trkpt lat="47.21251" lon="-0.07615">
        <ele>81</ele>
        <time>2011-02-20T14:28:22Z</time>
      </trkpt>
      <trkpt lat="47.21256" lon="-0.07614">
        <ele>81</ele>
        <time>2011-02-20T14:28:26Z</time>
      </trkpt>
      <trkpt lat="47.21261" lon="-0.07613">
        <ele>81</ele>
        <time>2011-02-20T14:28:30Z</time>
      </trkpt>
      <trkpt lat="47.21266" lon="-0.07612">
        <ele>81</ele>
        <time>2011-02-20T14:28:34Z</time>
      </trkpt>
      <trkpt lat="47.2127" lon="-0.07612">
        <ele>81</ele>
        <time>2011-02-20T14:28:38Z</time>
      </trkpt>
      <trkpt lat="47.21276" lon="-0.07612">
        <ele>82</ele>
        <time>2011-02-20T14:28:42Z</time>
      </trkpt>
      <trkpt lat="47.21281" lon="-0.07612">
        <ele>82</ele>
        <time>2011-02-20T14:28:46Z</time>
      </trkpt>
      <trkpt lat="47.21286" lon="-0.07612">
        <ele>82</ele>
        <time>2011-02-20T14:28:50Z</time>
      </trkpt>
      <trkpt lat="47.21291" lon="-0.07611">
        <ele>82</ele>
        <time>2011-02-20T14:28:54Z</time>
      </trkpt>
      <trkpt lat="47.21296" lon="-0.07611">
        <ele>82</ele>
        <time>2011-02-20T14:28:58Z</time>
      </trkpt>
      <trkpt lat="47.21301" lon="-0.0761">
        <ele>82</ele>
        <time>2011-02-20T14:29:02Z</time>
      </trkpt>
      <trkpt lat="47.21306" lon="-0.0761">
        <ele>82</ele>
        <time>2011-02-20T14:29:06Z</time>
      </trkpt>
      <trkpt lat="47.21312" lon="-0.07609">
        <ele>83</ele>
        <time>2011-02-20T14:29:10Z</time>
      </trkpt>
      <trkpt lat="47.21317" lon="-0.07608">
        <ele>83</ele>
        <time>2011-02-20T14:29:14Z</time>
      </trkpt>
      <trkpt lat="47.21323" lon="-0.07608">
        <ele>83</ele>
        <time>2011-02-20T14:29:18Z</time>
      </trkpt>
      <trkpt lat="47.21328" lon="-0.07608">
        <ele>83</ele>
        <time>2011-02-20T14:29:22Z</time>
      </trkpt>
      <trkpt lat="47.21333" lon="-0.07608">
        <ele>83</ele>
        <time>2011-02-20T14:29:26Z</time>
      </trkpt>
      <trkpt lat="47.21339" lon="-0.07607">
        <ele>83</ele>
        <time>2011-02-20T14:29:30Z</time>
      </trkpt>
      <trkpt lat="47.21344" lon="-0.07606">
        <ele>84</ele>
        <time>2011-02-20T14:29:34Z</time>
      </trkpt>
      <trkpt lat="47.21349" lon="-0.07606">
        <ele>84</ele>
        <time>2011-02-20T14:29:38Z</time>
      </trkpt>
      <trkpt lat="47.21354" lon="-0.07605">
        <ele>84</ele>
        <time>2011-02-20T14:29:42Z</time>
      </trkpt>
      <trkpt lat="47.21359" lon="-0.07605">
        <ele>84</ele>
        <time>2011-02-20T14:29:46Z</time>
      </trkpt>
      <trkpt lat="47.21364" lon="-0.07604">
        <ele>84</ele>
        <time>2011-02-20T14:29:50Z</time>
      </trkpt>
      <trkpt lat="47.21369" lon="-0.07604">
        <ele>84</ele>
        <time>2011-02-20T14:29:54Z</time>
      </trkpt>
      <trkpt lat="47.21374" lon="-0.07604">
        <ele>84</ele>
        <time>2011-02-20T14:29:58Z</time>
      </trkpt>
      <trkpt lat="47.21379" lon="-0.07603">
        <ele>84</ele>
        <time>2011-02-20T14:30:02Z</time>
      </trkpt>
      <trkpt lat="47.21384" lon="-0.07603">
        <ele>84</ele>
        <time>2011-02-20T14:30:06Z</time>
      </trkpt>
      <trkpt lat="47.21389" lon="-0.07603">
        <ele>84</ele>
        <time>2011-02-20T14:30:10Z</time>
      </trkpt>
      <trkpt lat="47.21394" lon="-0.07603">
        <ele>85</ele>
        <time>2011-02-20T14:30:14Z</time>
      </trkpt>
      <trkpt lat="47.21399" lon="-0.07602">
        <ele>85</ele>
        <time>2011-02-20T14:30:18Z</time>
      </trkpt>
      <trkpt lat="47.21404" lon="-0.07602">
        <ele>85</ele>
        <time>2011-02-20T14:30:22Z</time>
      </trkpt>
      <trkpt lat="47.21409" lon="-0.07601">
        <ele>85</ele>
        <time>2011-02-20T14:30:26Z</time>
      </trkpt>
      <trkpt lat="47.21414" lon="-0.07601">
        <ele>85</ele>
        <time>2011-02-20T14:30:30Z</time>
      </trkpt>
      <trkpt lat="47.21419" lon="-0.076">
        <ele>85</ele>
        <time>2011-02-20T14:30:34Z</time>
      </trkpt>
      <trkpt lat="47.21424" lon="-0.076">
        <ele>85</ele>
        <time>2011-02-20T14:30:38Z</time>
      </trkpt>
      <trkpt lat="47.21429" lon="-0.07601">
        <ele>85</ele>
        <time>2011-02-20T14:30:42Z</time>
      </trkpt>
      <trkpt lat="47.21435" lon="-0.07602">
        <ele>85</ele>
        <time>2011-02-20T14:30:46Z</time>
      </trkpt>
      <trkpt lat="47.2144" lon="-0.07603">
        <ele>85</ele>
        <time>2011-02-20T14:30:50Z</time>
      </trkpt>
      <trkpt lat="47.21445" lon="-0.07604">
        <ele>85</ele>
        <time>2011-02-20T14:30:54Z</time>
      </trkpt>
      <trkpt lat="47.2145" lon="-0.07606">
        <ele>86</ele>
        <time>2011-02-20T14:30:58Z</time>
      </trkpt>
      <trkpt lat="47.21454" lon="-0.07607">
        <ele>86</ele>
        <time>2011-02-20T14:31:02Z</time>
      </trkpt>
      <trkpt lat="47.21459" lon="-0.07609">
        <ele>86</ele>
        <time>2011-02-20T14:31:06Z</time>
      </trkpt>
      <trkpt lat="47.21465" lon="-0.0761">
        <ele>86</ele>
        <time>2011-02-20T14:31:10Z</time>
      </trkpt>
      <trkpt lat="47.2147" lon="-0.0761">
        <ele>86</ele>
        <time>2011-02-20T14:31:14Z</time>
      </trkpt>
      <trkpt lat="47.21475" lon="-0.0761">
        <ele>87</ele>
        <time>2011-02-20T14:31:18Z</time>
      </trkpt>
      <trkpt lat="47.21479" lon="-0.07609">
        <ele>87</ele>
        <time>2011-02-20T14:31:22Z</time>
      </trkpt>
      <trkpt lat="47.21484" lon="-0.07607">
        <ele>88</ele>
        <time>2011-02-20T14:31:30Z</time>
      </trkpt>
      <trkpt lat="47.21488" lon="-0.07604">
        <ele>88</ele>
        <time>2011-02-20T14:31:53Z</time>
      </trkpt>
      <trkpt lat="47.21492" lon="-0.076">
        <ele>89</ele>
        <time>2011-02-20T14:32:01Z</time>
      </trkpt>
      <trkpt lat="47.21497" lon="-0.076">
        <ele>90</ele>
        <time>2011-02-20T14:32:12Z</time>
      </trkpt>
      <trkpt lat="47.21502" lon="-0.07602">
        <ele>91</ele>
        <time>2011-02-20T14:32:19Z</time>
      </trkpt>
      <trkpt lat="47.21506" lon="-0.07604">
        <ele>92</ele>
        <time>2011-02-20T14:32:25Z</time>
      </trkpt>
      <trkpt lat="47.21511" lon="-0.07606">
        <ele>92</ele>
        <time>2011-02-20T14:32:31Z</time>
      </trkpt>
      <trkpt lat="47.21515" lon="-0.07609">
        <ele>92</ele>
        <time>2011-02-20T14:32:43Z</time>
      </trkpt>
      <trkpt lat="47.2152" lon="-0.0761">
        <ele>92</ele>
        <time>2011-02-20T14:33:04Z</time>
      </trkpt>
      <trkpt lat="47.21523" lon="-0.07605">
        <ele>92</ele>
        <time>2011-02-20T14:33:18Z</time>
      </trkpt>
      <trkpt lat="47.21528" lon="-0.07604">
        <ele>92</ele>
        <time>2011-02-20T14:33:30Z</time>
      </trkpt>
      <trkpt lat="47.21532" lon="-0.07603">
        <ele>92</ele>
        <time>2011-02-20T14:33:41Z</time>
      </trkpt>
      <trkpt lat="47.21537" lon="-0.07601">
        <ele>91</ele>
        <time>2011-02-20T14:33:53Z</time>
      </trkpt>
      <trkpt lat="47.21541" lon="-0.07599">
        <ele>91</ele>
        <time>2011-02-20T14:34:05Z</time>
      </trkpt>
      <trkpt lat="47.21545" lon="-0.07595">
        <ele>91</ele>
        <time>2011-02-20T14:34:17Z</time>
      </trkpt>
      <trkpt lat="47.21548" lon="-0.0759">
        <ele>91</ele>
        <time>2011-02-20T14:34:28Z</time>
      </trkpt>
      <trkpt lat="47.21543" lon="-0.07585">
        <ele>90</ele>
        <time>2011-02-20T14:35:02Z</time>
      </trkpt>
      <trkpt lat="47.21536" lon="-0.07588">
        <ele>90</ele>
        <time>2011-02-20T14:35:04Z</time>
      </trkpt>
      <trkpt lat="47.21529" lon="-0.07591">
        <ele>90</ele>
        <time>2011-02-20T14:35:06Z</time>
      </trkpt>
      <trkpt lat="47.21524" lon="-0.07593">
        <ele>90</ele>
        <time>2011-02-20T14:35:09Z</time>
      </trkpt>
      <trkpt lat="47.21528" lon="-0.07589">
        <ele>90</ele>
        <time>2011-02-20T14:35:19Z</time>
      </trkpt>
      <trkpt lat="47.21533" lon="-0.07586">
        <ele>90</ele>
        <time>2011-02-20T14:35:24Z</time>
      </trkpt>
      <trkpt lat="47.21538" lon="-0.07584">
        <ele>91</ele>
        <time>2011-02-20T14:35:32Z</time>
      </trkpt>
      <trkpt lat="47.21542" lon="-0.07578">
        <ele>91</ele>
        <time>2011-02-20T14:35:37Z</time>
      </trkpt>
      <trkpt lat="47.21546" lon="-0.07573">
        <ele>91</ele>
        <time>2011-02-20T14:35:42Z</time>
      </trkpt>
      <trkpt lat="47.21549" lon="-0.07569">
        <ele>92</ele>
        <time>2011-02-20T14:35:46Z</time>
      </trkpt>
      <trkpt lat="47.21554" lon="-0.07566">
        <ele>92</ele>
        <time>2011-02-20T14:35:50Z</time>
      </trkpt>
      <trkpt lat="47.21558" lon="-0.07562">
        <ele>92</ele>
        <time>2011-02-20T14:35:55Z</time>
      </trkpt>
      <trkpt lat="47.21563" lon="-0.0756">
        <ele>93</ele>
        <time>2011-02-20T14:35:59Z</time>
      </trkpt>
      <trkpt lat="47.21567" lon="-0.07558">
        <ele>93</ele>
        <time>2011-02-20T14:36:03Z</time>
      </trkpt>
      <trkpt lat="47.21572" lon="-0.07557">
        <ele>93</ele>
        <time>2011-02-20T14:36:07Z</time>
      </trkpt>
      <trkpt lat="47.21577" lon="-0.07556">
        <ele>93</ele>
        <time>2011-02-20T14:36:11Z</time>
      </trkpt>
      <trkpt lat="47.21582" lon="-0.07555">
        <ele>94</ele>
        <time>2011-02-20T14:36:15Z</time>
      </trkpt>
      <trkpt lat="47.21587" lon="-0.07555">
        <ele>94</ele>
        <time>2011-02-20T14:36:19Z</time>
      </trkpt>
      <trkpt lat="47.21592" lon="-0.07554">
        <ele>94</ele>
        <time>2011-02-20T14:36:24Z</time>
      </trkpt>
      <trkpt lat="47.21596" lon="-0.07555">
        <ele>94</ele>
        <time>2011-02-20T14:36:29Z</time>
      </trkpt>
      <trkpt lat="47.21601" lon="-0.07555">
        <ele>95</ele>
        <time>2011-02-20T14:36:34Z</time>
      </trkpt>
      <trkpt lat="47.21606" lon="-0.07554">
        <ele>95</ele>
        <time>2011-02-20T14:36:38Z</time>
      </trkpt>
      <trkpt lat="47.21611" lon="-0.07554">
        <ele>95</ele>
        <time>2011-02-20T14:36:42Z</time>
      </trkpt>
      <trkpt lat="47.21616" lon="-0.07554">
        <ele>95</ele>
        <time>2011-02-20T14:36:46Z</time>
      </trkpt>
      <trkpt lat="47.21622" lon="-0.07552">
        <ele>96</ele>
        <time>2011-02-20T14:36:50Z</time>
      </trkpt>
      <trkpt lat="47.21627" lon="-0.07551">
        <ele>96</ele>
        <time>2011-02-20T14:36:54Z</time>
      </trkpt>
      <trkpt lat="47.21631" lon="-0.0755">
        <ele>96</ele>
        <time>2011-02-20T14:36:58Z</time>
      </trkpt>
      <trkpt lat="47.21636" lon="-0.07549">
        <ele>96</ele>
        <time>2011-02-20T14:37:02Z</time>
      </trkpt>
      <trkpt lat="47.21641" lon="-0.07548">
        <ele>96</ele>
        <time>2011-02-20T14:37:06Z</time>
      </trkpt>
      <trkpt lat="47.21645" lon="-0.07547">
        <ele>96</ele>
        <time>2011-02-20T14:37:10Z</time>
      </trkpt>
      <trkpt lat="47.21651" lon="-0.07547">
        <ele>96</ele>
        <time>2011-02-20T14:37:14Z</time>
      </trkpt>
      <trkpt lat="47.21656" lon="-0.07546">
        <ele>96</ele>
        <time>2011-02-20T14:37:18Z</time>
      </trkpt>
      <trkpt lat="47.21661" lon="-0.07546">
        <ele>96</ele>
        <time>2011-02-20T14:37:22Z</time>
      </trkpt>
      <trkpt lat="47.21666" lon="-0.07546">
        <ele>97</ele>
        <time>2011-02-20T14:37:26Z</time>
      </trkpt>
      <trkpt lat="47.2167" lon="-0.07545">
        <ele>97</ele>
        <time>2011-02-20T14:37:30Z</time>
      </trkpt>
      <trkpt lat="47.21675" lon="-0.07544">
        <ele>97</ele>
        <time>2011-02-20T14:37:34Z</time>
      </trkpt>
      <trkpt lat="47.21679" lon="-0.07542">
        <ele>97</ele>
        <time>2011-02-20T14:37:38Z</time>
      </trkpt>
      <trkpt lat="47.21684" lon="-0.07541">
        <ele>97</ele>
        <time>2011-02-20T14:37:42Z</time>
      </trkpt>
      <trkpt lat="47.21689" lon="-0.07538">
        <ele>97</ele>
        <time>2011-02-20T14:37:46Z</time>
      </trkpt>
      <trkpt lat="47.21693" lon="-0.07535">
        <ele>97</ele>
        <time>2011-02-20T14:37:50Z</time>
      </trkpt>
      <trkpt lat="47.21697" lon="-0.0753">
        <ele>97</ele>
        <time>2011-02-20T14:37:54Z</time>
      </trkpt>
      <trkpt lat="47.217" lon="-0.07525">
        <ele>97</ele>
        <time>2011-02-20T14:37:58Z</time>
      </trkpt>
      <trkpt lat="47.21702" lon="-0.07519">
        <ele>97</ele>
        <time>2011-02-20T14:38:02Z</time>
      </trkpt>
      <trkpt lat="47.21705" lon="-0.07512">
        <ele>96</ele>
        <time>2011-02-20T14:38:06Z</time>
      </trkpt>
      <trkpt lat="47.21707" lon="-0.07504">
        <ele>96</ele>
        <time>2011-02-20T14:38:10Z</time>
      </trkpt>
      <trkpt lat="47.21708" lon="-0.07496">
        <ele>96</ele>
        <time>2011-02-20T14:38:14Z</time>
      </trkpt>
      <trkpt lat="47.21709" lon="-0.07489">
        <ele>96</ele>
        <time>2011-02-20T14:38:18Z</time>
      </trkpt>
      <trkpt lat="47.21709" lon="-0.07481">
        <ele>96</ele>
        <time>2011-02-20T14:38:22Z</time>
      </trkpt>
      <trkpt lat="47.21708" lon="-0.07474">
        <ele>96</ele>
        <time>2011-02-20T14:38:26Z</time>
      </trkpt>
      <trkpt lat="47.21705" lon="-0.07468">
        <ele>96</ele>
        <time>2011-02-20T14:38:30Z</time>
      </trkpt>
      <trkpt lat="47.21702" lon="-0.07461">
        <ele>96</ele>
        <time>2011-02-20T14:38:34Z</time>
      </trkpt>
      <trkpt lat="47.21699" lon="-0.07454">
        <ele>96</ele>
        <time>2011-02-20T14:38:38Z</time>
      </trkpt>
      <trkpt lat="47.21698" lon="-0.07446">
        <ele>96</ele>
        <time>2011-02-20T14:38:42Z</time>
      </trkpt>
      <trkpt lat="47.21697" lon="-0.07439">
        <ele>96</ele>
        <time>2011-02-20T14:38:46Z</time>
      </trkpt>
      <trkpt lat="47.21698" lon="-0.07431">
        <ele>96</ele>
        <time>2011-02-20T14:38:50Z</time>
      </trkpt>
      <trkpt lat="47.21702" lon="-0.07425">
        <ele>96</ele>
        <time>2011-02-20T14:38:54Z</time>
      </trkpt>
      <trkpt lat="47.21705" lon="-0.07421">
        <ele>96</ele>
        <time>2011-02-20T14:38:58Z</time>
      </trkpt>
      <trkpt lat="47.21709" lon="-0.07417">
        <ele>96</ele>
        <time>2011-02-20T14:39:02Z</time>
      </trkpt>
      <trkpt lat="47.21714" lon="-0.07416">
        <ele>96</ele>
        <time>2011-02-20T14:39:06Z</time>
      </trkpt>
      <trkpt lat="47.2172" lon="-0.07416">
        <ele>96</ele>
        <time>2011-02-20T14:39:10Z</time>
      </trkpt>
      <trkpt lat="47.21725" lon="-0.07418">
        <ele>96</ele>
        <time>2011-02-20T14:39:14Z</time>
      </trkpt>
      <trkpt lat="47.2173" lon="-0.07419">
        <ele>96</ele>
        <time>2011-02-20T14:39:19Z</time>
      </trkpt>
      <trkpt lat="47.21734" lon="-0.07421">
        <ele>97</ele>
        <time>2011-02-20T14:39:25Z</time>
      </trkpt>
      <trkpt lat="47.21739" lon="-0.07423">
        <ele>97</ele>
        <time>2011-02-20T14:39:30Z</time>
      </trkpt>
      <trkpt lat="47.21745" lon="-0.07424">
        <ele>97</ele>
        <time>2011-02-20T14:39:34Z</time>
      </trkpt>
      <trkpt lat="47.2175" lon="-0.07425">
        <ele>97</ele>
        <time>2011-02-20T14:39:38Z</time>
      </trkpt>
      <trkpt lat="47.21756" lon="-0.07426">
        <ele>97</ele>
        <time>2011-02-20T14:39:42Z</time>
      </trkpt>
      <trkpt lat="47.21761" lon="-0.07426">
        <ele>97</ele>
        <time>2011-02-20T14:39:46Z</time>
      </trkpt>
      <trkpt lat="47.21766" lon="-0.07425">
        <ele>97</ele>
        <time>2011-02-20T14:39:50Z</time>
      </trkpt>
      <trkpt lat="47.21772" lon="-0.07424">
        <ele>96</ele>
        <time>2011-02-20T14:39:54Z</time>
      </trkpt>
      <trkpt lat="47.21777" lon="-0.07422">
        <ele>96</ele>
        <time>2011-02-20T14:39:58Z</time>
      </trkpt>
      <trkpt lat="47.21782" lon="-0.07421">
        <ele>96</ele>
        <time>2011-02-20T14:40:02Z</time>
      </trkpt>
      <trkpt lat="47.21787" lon="-0.0742">
        <ele>95</ele>
        <time>2011-02-20T14:40:06Z</time>
      </trkpt>
      <trkpt lat="47.21793" lon="-0.07418">
        <ele>95</ele>
        <time>2011-02-20T14:40:10Z</time>
      </trkpt>
      <trkpt lat="47.21798" lon="-0.07417">
        <ele>95</ele>
        <time>2011-02-20T14:40:14Z</time>
      </trkpt>
      <trkpt lat="47.21803" lon="-0.07417">
        <ele>94</ele>
        <time>2011-02-20T14:40:19Z</time>
      </trkpt>
      <trkpt lat="47.21808" lon="-0.07417">
        <ele>94</ele>
        <time>2011-02-20T14:40:24Z</time>
      </trkpt>
      <trkpt lat="47.21813" lon="-0.07416">
        <ele>94</ele>
        <time>2011-02-20T14:40:28Z</time>
      </trkpt>
      <trkpt lat="47.21818" lon="-0.07415">
        <ele>94</ele>
        <time>2011-02-20T14:40:31Z</time>
      </trkpt>
      <trkpt lat="47.21823" lon="-0.07415">
        <ele>94</ele>
        <time>2011-02-20T14:40:35Z</time>
      </trkpt>
      <trkpt lat="47.21829" lon="-0.07414">
        <ele>93</ele>
        <time>2011-02-20T14:40:39Z</time>
      </trkpt>
      <trkpt lat="47.21834" lon="-0.07413">
        <ele>93</ele>
        <time>2011-02-20T14:40:43Z</time>
      </trkpt>
      <trkpt lat="47.21839" lon="-0.07413">
        <ele>93</ele>
        <time>2011-02-20T14:40:47Z</time>
      </trkpt>
      <trkpt lat="47.21844" lon="-0.07412">
        <ele>93</ele>
        <time>2011-02-20T14:40:51Z</time>
      </trkpt>
      <trkpt lat="47.21848" lon="-0.07411">
        <ele>93</ele>
        <time>2011-02-20T14:40:55Z</time>
      </trkpt>
      <trkpt lat="47.21853" lon="-0.07411">
        <ele>93</ele>
        <time>2011-02-20T14:40:59Z</time>
      </trkpt>
      <trkpt lat="47.21858" lon="-0.0741">
        <ele>93</ele>
        <time>2011-02-20T14:41:03Z</time>
      </trkpt>
      <trkpt lat="47.21862" lon="-0.07408">
        <ele>93</ele>
        <time>2011-02-20T14:41:07Z</time>
      </trkpt>
      <trkpt lat="47.21867" lon="-0.07406">
        <ele>93</ele>
        <time>2011-02-20T14:41:11Z</time>
      </trkpt>
      <trkpt lat="47.21872" lon="-0.07405">
        <ele>93</ele>
        <time>2011-02-20T14:41:15Z</time>
      </trkpt>
      <trkpt lat="47.21878" lon="-0.07405">
        <ele>93</ele>
        <time>2011-02-20T14:41:19Z</time>
      </trkpt>
      <trkpt lat="47.21883" lon="-0.07404">
        <ele>92</ele>
        <time>2011-02-20T14:41:23Z</time>
      </trkpt>
      <trkpt lat="47.21888" lon="-0.07404">
        <ele>92</ele>
        <time>2011-02-20T14:41:27Z</time>
      </trkpt>
      <trkpt lat="47.21893" lon="-0.07403">
        <ele>92</ele>
        <time>2011-02-20T14:41:31Z</time>
      </trkpt>
      <trkpt lat="47.21897" lon="-0.07402">
        <ele>92</ele>
        <time>2011-02-20T14:41:35Z</time>
      </trkpt>
      <trkpt lat="47.21902" lon="-0.07401">
        <ele>92</ele>
        <time>2011-02-20T14:41:39Z</time>
      </trkpt>
      <trkpt lat="47.21907" lon="-0.07401">
        <ele>91</ele>
        <time>2011-02-20T14:41:43Z</time>
      </trkpt>
      <trkpt lat="47.21912" lon="-0.074">
        <ele>91</ele>
        <time>2011-02-20T14:41:47Z</time>
      </trkpt>
      <trkpt lat="47.21917" lon="-0.07399">
        <ele>91</ele>
        <time>2011-02-20T14:41:51Z</time>
      </trkpt>
      <trkpt lat="47.21923" lon="-0.07399">
        <ele>91</ele>
        <time>2011-02-20T14:41:55Z</time>
      </trkpt>
      <trkpt lat="47.21927" lon="-0.07398">
        <ele>91</ele>
        <time>2011-02-20T14:41:59Z</time>
      </trkpt>
      <trkpt lat="47.21933" lon="-0.07395">
        <ele>90</ele>
        <time>2011-02-20T14:42:12Z</time>
      </trkpt>
      <trkpt lat="47.21938" lon="-0.07394">
        <ele>90</ele>
        <time>2011-02-20T14:42:16Z</time>
      </trkpt>
      <trkpt lat="47.21943" lon="-0.07394">
        <ele>89</ele>
        <time>2011-02-20T14:42:20Z</time>
      </trkpt>
      <trkpt lat="47.21949" lon="-0.07393">
        <ele>89</ele>
        <time>2011-02-20T14:42:24Z</time>
      </trkpt>
      <trkpt lat="47.21954" lon="-0.07391">
        <ele>88</ele>
        <time>2011-02-20T14:42:28Z</time>
      </trkpt>
      <trkpt lat="47.21959" lon="-0.0739">
        <ele>88</ele>
        <time>2011-02-20T14:42:32Z</time>
      </trkpt>
      <trkpt lat="47.21963" lon="-0.07388">
        <ele>88</ele>
        <time>2011-02-20T14:42:36Z</time>
      </trkpt>
      <trkpt lat="47.21968" lon="-0.07385">
        <ele>87</ele>
        <time>2011-02-20T14:42:40Z</time>
      </trkpt>
      <trkpt lat="47.21973" lon="-0.07382">
        <ele>87</ele>
        <time>2011-02-20T14:42:44Z</time>
      </trkpt>
      <trkpt lat="47.21978" lon="-0.0738">
        <ele>87</ele>
        <time>2011-02-20T14:42:48Z</time>
      </trkpt>
      <trkpt lat="47.21982" lon="-0.07377">
        <ele>87</ele>
        <time>2011-02-20T14:42:52Z</time>
      </trkpt>
      <trkpt lat="47.21987" lon="-0.07375">
        <ele>86</ele>
        <time>2011-02-20T14:42:56Z</time>
      </trkpt>
      <trkpt lat="47.21991" lon="-0.07372">
        <ele>86</ele>
        <time>2011-02-20T14:43:00Z</time>
      </trkpt>
      <trkpt lat="47.21996" lon="-0.0737">
        <ele>86</ele>
        <time>2011-02-20T14:43:04Z</time>
      </trkpt>
      <trkpt lat="47.22001" lon="-0.07368">
        <ele>86</ele>
        <time>2011-02-20T14:43:08Z</time>
      </trkpt>
      <trkpt lat="47.22005" lon="-0.07365">
        <ele>85</ele>
        <time>2011-02-20T14:43:12Z</time>
      </trkpt>
      <trkpt lat="47.22011" lon="-0.07363">
        <ele>85</ele>
        <time>2011-02-20T14:43:16Z</time>
      </trkpt>
      <trkpt lat="47.22016" lon="-0.0736">
        <ele>85</ele>
        <time>2011-02-20T14:43:20Z</time>
      </trkpt>
      <trkpt lat="47.2202" lon="-0.07358">
        <ele>85</ele>
        <time>2011-02-20T14:43:24Z</time>
      </trkpt>
      <trkpt lat="47.22025" lon="-0.07355">
        <ele>85</ele>
        <time>2011-02-20T14:43:28Z</time>
      </trkpt>
      <trkpt lat="47.2203" lon="-0.07352">
        <ele>84</ele>
        <time>2011-02-20T14:43:32Z</time>
      </trkpt>
      <trkpt lat="47.22035" lon="-0.0735">
        <ele>84</ele>
        <time>2011-02-20T14:43:36Z</time>
      </trkpt>
      <trkpt lat="47.2204" lon="-0.07347">
        <ele>84</ele>
        <time>2011-02-20T14:43:40Z</time>
      </trkpt>
      <trkpt lat="47.22045" lon="-0.07345">
        <ele>84</ele>
        <time>2011-02-20T14:43:44Z</time>
      </trkpt>
      <trkpt lat="47.2205" lon="-0.07343">
        <ele>84</ele>
        <time>2011-02-20T14:43:48Z</time>
      </trkpt>
      <trkpt lat="47.22054" lon="-0.0734">
        <ele>84</ele>
        <time>2011-02-20T14:43:52Z</time>
      </trkpt>
      <trkpt lat="47.22059" lon="-0.07337">
        <ele>83</ele>
        <time>2011-02-20T14:43:56Z</time>
      </trkpt>
      <trkpt lat="47.22064" lon="-0.07335">
        <ele>83</ele>
        <time>2011-02-20T14:44:00Z</time>
      </trkpt>
      <trkpt lat="47.22069" lon="-0.07331">
        <ele>83</ele>
        <time>2011-02-20T14:44:04Z</time>
      </trkpt>
      <trkpt lat="47.22074" lon="-0.07329">
        <ele>83</ele>
        <time>2011-02-20T14:44:08Z</time>
      </trkpt>
      <trkpt lat="47.22079" lon="-0.07326">
        <ele>83</ele>
        <time>2011-02-20T14:44:12Z</time>
      </trkpt>
      <trkpt lat="47.22083" lon="-0.07323">
        <ele>83</ele>
        <time>2011-02-20T14:44:16Z</time>
      </trkpt>
      <trkpt lat="47.22088" lon="-0.07321">
        <ele>83</ele>
        <time>2011-02-20T14:44:20Z</time>
      </trkpt>
      <trkpt lat="47.22092" lon="-0.07319">
        <ele>83</ele>
        <time>2011-02-20T14:44:24Z</time>
      </trkpt>
      <trkpt lat="47.22097" lon="-0.07317">
        <ele>83</ele>
        <time>2011-02-20T14:44:28Z</time>
      </trkpt>
      <trkpt lat="47.22102" lon="-0.07314">
        <ele>82</ele>
        <time>2011-02-20T14:44:32Z</time>
      </trkpt>
      <trkpt lat="47.22106" lon="-0.07313">
        <ele>82</ele>
        <time>2011-02-20T14:44:36Z</time>
      </trkpt>
      <trkpt lat="47.22111" lon="-0.07309">
        <ele>82</ele>
        <time>2011-02-20T14:44:41Z</time>
      </trkpt>
      <trkpt lat="47.22107" lon="-0.07303">
        <ele>82</ele>
        <time>2011-02-20T14:44:59Z</time>
      </trkpt>
      <trkpt lat="47.22106" lon="-0.07295">
        <ele>82</ele>
        <time>2011-02-20T14:45:03Z</time>
      </trkpt>
      <trkpt lat="47.22105" lon="-0.07288">
        <ele>82</ele>
        <time>2011-02-20T14:45:07Z</time>
      </trkpt>
      <trkpt lat="47.22104" lon="-0.0728">
        <ele>82</ele>
        <time>2011-02-20T14:45:11Z</time>
      </trkpt>
      <trkpt lat="47.22102" lon="-0.07273">
        <ele>82</ele>
        <time>2011-02-20T14:45:15Z</time>
      </trkpt>
      <trkpt lat="47.221" lon="-0.07266">
        <ele>82</ele>
        <time>2011-02-20T14:45:19Z</time>
      </trkpt>
      <trkpt lat="47.22098" lon="-0.07259">
        <ele>81</ele>
        <time>2011-02-20T14:45:23Z</time>
      </trkpt>
      <trkpt lat="47.22095" lon="-0.07252">
        <ele>81</ele>
        <time>2011-02-20T14:45:27Z</time>
      </trkpt>
      <trkpt lat="47.22093" lon="-0.07245">
        <ele>81</ele>
        <time>2011-02-20T14:45:31Z</time>
      </trkpt>
      <trkpt lat="47.22091" lon="-0.07237">
        <ele>81</ele>
        <time>2011-02-20T14:45:35Z</time>
      </trkpt>
      <trkpt lat="47.22089" lon="-0.0723">
        <ele>81</ele>
        <time>2011-02-20T14:45:39Z</time>
      </trkpt>
      <trkpt lat="47.22087" lon="-0.07223">
        <ele>81</ele>
        <time>2011-02-20T14:45:43Z</time>
      </trkpt>
      <trkpt lat="47.22085" lon="-0.07215">
        <ele>81</ele>
        <time>2011-02-20T14:45:47Z</time>
      </trkpt>
      <trkpt lat="47.22083" lon="-0.07208">
        <ele>81</ele>
        <time>2011-02-20T14:45:51Z</time>
      </trkpt>
      <trkpt lat="47.22082" lon="-0.07201">
        <ele>81</ele>
        <time>2011-02-20T14:45:55Z</time>
      </trkpt>
      <trkpt lat="47.2208" lon="-0.07194">
        <ele>81</ele>
        <time>2011-02-20T14:45:59Z</time>
      </trkpt>
      <trkpt lat="47.22079" lon="-0.07187">
        <ele>81</ele>
        <time>2011-02-20T14:46:03Z</time>
      </trkpt>
      <trkpt lat="47.22077" lon="-0.07179">
        <ele>81</ele>
        <time>2011-02-20T14:46:07Z</time>
      </trkpt>
      <trkpt lat="47.22075" lon="-0.07172">
        <ele>81</ele>
        <time>2011-02-20T14:46:11Z</time>
      </trkpt>
      <trkpt lat="47.22074" lon="-0.07165">
        <ele>81</ele>
        <time>2011-02-20T14:46:15Z</time>
      </trkpt>
      <trkpt lat="47.22072" lon="-0.07158">
        <ele>82</ele>
        <time>2011-02-20T14:46:19Z</time>
      </trkpt>
      <trkpt lat="47.2207" lon="-0.07151">
        <ele>82</ele>
        <time>2011-02-20T14:46:23Z</time>
      </trkpt>
      <trkpt lat="47.22066" lon="-0.07146">
        <ele>82</ele>
        <time>2011-02-20T14:46:27Z</time>
      </trkpt>
      <trkpt lat="47.22062" lon="-0.07144">
        <ele>82</ele>
        <time>2011-02-20T14:46:31Z</time>
      </trkpt>
      <trkpt lat="47.22057" lon="-0.07142">
        <ele>82</ele>
        <time>2011-02-20T14:46:35Z</time>
      </trkpt>
      <trkpt lat="47.22053" lon="-0.07139">
        <ele>82</ele>
        <time>2011-02-20T14:46:39Z</time>
      </trkpt>
      <trkpt lat="47.22049" lon="-0.07135">
        <ele>82</ele>
        <time>2011-02-20T14:46:43Z</time>
      </trkpt>
      <trkpt lat="47.22046" lon="-0.07128">
        <ele>82</ele>
        <time>2011-02-20T14:46:48Z</time>
      </trkpt>
      <trkpt lat="47.22045" lon="-0.07121">
        <ele>82</ele>
        <time>2011-02-20T14:46:52Z</time>
      </trkpt>
      <trkpt lat="47.22044" lon="-0.07114">
        <ele>82</ele>
        <time>2011-02-20T14:46:56Z</time>
      </trkpt>
      <trkpt lat="47.22043" lon="-0.07107">
        <ele>82</ele>
        <time>2011-02-20T14:47:00Z</time>
      </trkpt>
      <trkpt lat="47.22042" lon="-0.071">
        <ele>82</ele>
        <time>2011-02-20T14:47:04Z</time>
      </trkpt>
      <trkpt lat="47.2204" lon="-0.07092">
        <ele>82</ele>
        <time>2011-02-20T14:47:08Z</time>
      </trkpt>
      <trkpt lat="47.22039" lon="-0.07085">
        <ele>82</ele>
        <time>2011-02-20T14:47:12Z</time>
      </trkpt>
      <trkpt lat="47.22038" lon="-0.07077">
        <ele>83</ele>
        <time>2011-02-20T14:47:16Z</time>
      </trkpt>
      <trkpt lat="47.22037" lon="-0.0707">
        <ele>83</ele>
        <time>2011-02-20T14:47:20Z</time>
      </trkpt>
      <trkpt lat="47.22037" lon="-0.07063">
        <ele>83</ele>
        <time>2011-02-20T14:47:24Z</time>
      </trkpt>
      <trkpt lat="47.22036" lon="-0.07056">
        <ele>83</ele>
        <time>2011-02-20T14:47:28Z</time>
      </trkpt>
      <trkpt lat="47.22036" lon="-0.07049">
        <ele>83</ele>
        <time>2011-02-20T14:47:32Z</time>
      </trkpt>
      <trkpt lat="47.22036" lon="-0.07042">
        <ele>83</ele>
        <time>2011-02-20T14:47:36Z</time>
      </trkpt>
      <trkpt lat="47.22038" lon="-0.07034">
        <ele>84</ele>
        <time>2011-02-20T14:47:40Z</time>
      </trkpt>
      <trkpt lat="47.2204" lon="-0.07028">
        <ele>84</ele>
        <time>2011-02-20T14:47:44Z</time>
      </trkpt>
      <trkpt lat="47.22042" lon="-0.07021">
        <ele>84</ele>
        <time>2011-02-20T14:47:49Z</time>
      </trkpt>
      <trkpt lat="47.22045" lon="-0.07015">
        <ele>85</ele>
        <time>2011-02-20T14:47:54Z</time>
      </trkpt>
      <trkpt lat="47.22048" lon="-0.07009">
        <ele>85</ele>
        <time>2011-02-20T14:47:59Z</time>
      </trkpt>
      <trkpt lat="47.22051" lon="-0.07003">
        <ele>85</ele>
        <time>2011-02-20T14:48:04Z</time>
      </trkpt>
      <trkpt lat="47.22053" lon="-0.06998">
        <ele>85</ele>
        <time>2011-02-20T14:48:12Z</time>
      </trkpt>
      <trkpt lat="47.22056" lon="-0.06991">
        <ele>85</ele>
        <time>2011-02-20T14:48:17Z</time>
      </trkpt>
      <trkpt lat="47.22058" lon="-0.06984">
        <ele>85</ele>
        <time>2011-02-20T14:48:23Z</time>
      </trkpt>
      <trkpt lat="47.22061" lon="-0.06978">
        <ele>85</ele>
        <time>2011-02-20T14:48:28Z</time>
      </trkpt>
      <trkpt lat="47.22064" lon="-0.06971">
        <ele>85</ele>
        <time>2011-02-20T14:48:32Z</time>
      </trkpt>
      <trkpt lat="47.22067" lon="-0.06964">
        <ele>86</ele>
        <time>2011-02-20T14:48:36Z</time>
      </trkpt>
      <trkpt lat="47.22071" lon="-0.06957">
        <ele>86</ele>
        <time>2011-02-20T14:48:40Z</time>
      </trkpt>
      <trkpt lat="47.22074" lon="-0.06951">
        <ele>86</ele>
        <time>2011-02-20T14:48:44Z</time>
      </trkpt>
      <trkpt lat="47.22076" lon="-0.06945">
        <ele>87</ele>
        <time>2011-02-20T14:48:48Z</time>
      </trkpt>
      <trkpt lat="47.22078" lon="-0.06939">
        <ele>87</ele>
        <time>2011-02-20T14:48:52Z</time>
      </trkpt>
      <trkpt lat="47.22081" lon="-0.06932">
        <ele>88</ele>
        <time>2011-02-20T14:48:56Z</time>
      </trkpt>
      <trkpt lat="47.22083" lon="-0.06925">
        <ele>88</ele>
        <time>2011-02-20T14:49:00Z</time>
      </trkpt>
      <trkpt lat="47.22086" lon="-0.06918">
        <ele>88</ele>
        <time>2011-02-20T14:49:04Z</time>
      </trkpt>
      <trkpt lat="47.22088" lon="-0.0691">
        <ele>88</ele>
        <time>2011-02-20T14:49:08Z</time>
      </trkpt>
      <trkpt lat="47.2209" lon="-0.06903">
        <ele>88</ele>
        <time>2011-02-20T14:49:11Z</time>
      </trkpt>
      <trkpt lat="47.22091" lon="-0.06897">
        <ele>88</ele>
        <time>2011-02-20T14:49:14Z</time>
      </trkpt>
      <trkpt lat="47.22092" lon="-0.06888">
        <ele>88</ele>
        <time>2011-02-20T14:49:18Z</time>
      </trkpt>
      <trkpt lat="47.22093" lon="-0.06881">
        <ele>88</ele>
        <time>2011-02-20T14:49:22Z</time>
      </trkpt>
      <trkpt lat="47.22094" lon="-0.06874">
        <ele>88</ele>
        <time>2011-02-20T14:49:26Z</time>
      </trkpt>
      <trkpt lat="47.22094" lon="-0.06867">
        <ele>88</ele>
        <time>2011-02-20T14:49:30Z</time>
      </trkpt>
      <trkpt lat="47.22093" lon="-0.0686">
        <ele>88</ele>
        <time>2011-02-20T14:49:34Z</time>
      </trkpt>
      <trkpt lat="47.22092" lon="-0.06853">
        <ele>88</ele>
        <time>2011-02-20T14:49:38Z</time>
      </trkpt>
      <trkpt lat="47.22091" lon="-0.06846">
        <ele>88</ele>
        <time>2011-02-20T14:49:42Z</time>
      </trkpt>
      <trkpt lat="47.2209" lon="-0.06839">
        <ele>87</ele>
        <time>2011-02-20T14:49:46Z</time>
      </trkpt>
      <trkpt lat="47.2209" lon="-0.06832">
        <ele>87</ele>
        <time>2011-02-20T14:49:50Z</time>
      </trkpt>
      <trkpt lat="47.2209" lon="-0.06825">
        <ele>87</ele>
        <time>2011-02-20T14:49:54Z</time>
      </trkpt>
      <trkpt lat="47.2209" lon="-0.06818">
        <ele>87</ele>
        <time>2011-02-20T14:49:58Z</time>
      </trkpt>
      <trkpt lat="47.22092" lon="-0.06812">
        <ele>87</ele>
        <time>2011-02-20T14:50:03Z</time>
      </trkpt>
      <trkpt lat="47.22096" lon="-0.06808">
        <ele>87</ele>
        <time>2011-02-20T14:50:07Z</time>
      </trkpt>
      <trkpt lat="47.22101" lon="-0.06806">
        <ele>87</ele>
        <time>2011-02-20T14:50:10Z</time>
      </trkpt>
      <trkpt lat="47.22105" lon="-0.06805">
        <ele>87</ele>
        <time>2011-02-20T14:50:13Z</time>
      </trkpt>
      <trkpt lat="47.22111" lon="-0.06805">
        <ele>88</ele>
        <time>2011-02-20T14:50:17Z</time>
      </trkpt>
      <trkpt lat="47.22116" lon="-0.06805">
        <ele>88</ele>
        <time>2011-02-20T14:50:21Z</time>
      </trkpt>
      <trkpt lat="47.2212" lon="-0.06804">
        <ele>88</ele>
        <time>2011-02-20T14:50:25Z</time>
      </trkpt>
      <trkpt lat="47.22125" lon="-0.06803">
        <ele>88</ele>
        <time>2011-02-20T14:50:29Z</time>
      </trkpt>
      <trkpt lat="47.22129" lon="-0.068">
        <ele>88</ele>
        <time>2011-02-20T14:50:33Z</time>
      </trkpt>
      <trkpt lat="47.22134" lon="-0.06795">
        <ele>88</ele>
        <time>2011-02-20T14:50:37Z</time>
      </trkpt>
      <trkpt lat="47.22139" lon="-0.06792">
        <ele>88</ele>
        <time>2011-02-20T14:50:41Z</time>
      </trkpt>
      <trkpt lat="47.22144" lon="-0.06789">
        <ele>88</ele>
        <time>2011-02-20T14:50:45Z</time>
      </trkpt>
      <trkpt lat="47.22149" lon="-0.06786">
        <ele>88</ele>
        <time>2011-02-20T14:50:49Z</time>
      </trkpt>
      <trkpt lat="47.22154" lon="-0.06784">
        <ele>87</ele>
        <time>2011-02-20T14:50:53Z</time>
      </trkpt>
      <trkpt lat="47.22159" lon="-0.06782">
        <ele>87</ele>
        <time>2011-02-20T14:50:57Z</time>
      </trkpt>
      <trkpt lat="47.22165" lon="-0.06779">
        <ele>87</ele>
        <time>2011-02-20T14:51:01Z</time>
      </trkpt>
      <trkpt lat="47.2217" lon="-0.06777">
        <ele>87</ele>
        <time>2011-02-20T14:51:05Z</time>
      </trkpt>
      <trkpt lat="47.22175" lon="-0.06776">
        <ele>87</ele>
        <time>2011-02-20T14:51:09Z</time>
      </trkpt>
      <trkpt lat="47.2218" lon="-0.06775">
        <ele>87</ele>
        <time>2011-02-20T14:51:13Z</time>
      </trkpt>
      <trkpt lat="47.22185" lon="-0.06775">
        <ele>88</ele>
        <time>2011-02-20T14:51:17Z</time>
      </trkpt>
      <trkpt lat="47.2219" lon="-0.06775">
        <ele>88</ele>
        <time>2011-02-20T14:51:21Z</time>
      </trkpt>
      <trkpt lat="47.22195" lon="-0.06773">
        <ele>88</ele>
        <time>2011-02-20T14:51:25Z</time>
      </trkpt>
      <trkpt lat="47.22201" lon="-0.06773">
        <ele>88</ele>
        <time>2011-02-20T14:51:29Z</time>
      </trkpt>
      <trkpt lat="47.22206" lon="-0.06771">
        <ele>88</ele>
        <time>2011-02-20T14:51:33Z</time>
      </trkpt>
      <trkpt lat="47.22211" lon="-0.06769">
        <ele>87</ele>
        <time>2011-02-20T14:51:37Z</time>
      </trkpt>
      <trkpt lat="47.22216" lon="-0.06767">
        <ele>87</ele>
        <time>2011-02-20T14:51:41Z</time>
      </trkpt>
      <trkpt lat="47.22221" lon="-0.06765">
        <ele>87</ele>
        <time>2011-02-20T14:51:45Z</time>
      </trkpt>
      <trkpt lat="47.22226" lon="-0.06763">
        <ele>87</ele>
        <time>2011-02-20T14:51:49Z</time>
      </trkpt>
      <trkpt lat="47.22231" lon="-0.06761">
        <ele>87</ele>
        <time>2011-02-20T14:51:53Z</time>
      </trkpt>
      <trkpt lat="47.22236" lon="-0.06759">
        <ele>87</ele>
        <time>2011-02-20T14:51:57Z</time>
      </trkpt>
      <trkpt lat="47.22241" lon="-0.06758">
        <ele>87</ele>
        <time>2011-02-20T14:52:01Z</time>
      </trkpt>
      <trkpt lat="47.22246" lon="-0.06756">
        <ele>88</ele>
        <time>2011-02-20T14:52:05Z</time>
      </trkpt>
      <trkpt lat="47.22251" lon="-0.06755">
        <ele>88</ele>
        <time>2011-02-20T14:52:09Z</time>
      </trkpt>
      <trkpt lat="47.22255" lon="-0.06753">
        <ele>88</ele>
        <time>2011-02-20T14:52:13Z</time>
      </trkpt>
      <trkpt lat="47.2226" lon="-0.06751">
        <ele>88</ele>
        <time>2011-02-20T14:52:17Z</time>
      </trkpt>
      <trkpt lat="47.22266" lon="-0.06749">
        <ele>88</ele>
        <time>2011-02-20T14:52:21Z</time>
      </trkpt>
      <trkpt lat="47.22271" lon="-0.06748">
        <ele>88</ele>
        <time>2011-02-20T14:52:25Z</time>
      </trkpt>
      <trkpt lat="47.22277" lon="-0.06747">
        <ele>88</ele>
        <time>2011-02-20T14:52:29Z</time>
      </trkpt>
      <trkpt lat="47.22282" lon="-0.06746">
        <ele>88</ele>
        <time>2011-02-20T14:52:33Z</time>
      </trkpt>
      <trkpt lat="47.22287" lon="-0.06746">
        <ele>88</ele>
        <time>2011-02-20T14:52:37Z</time>
      </trkpt>
      <trkpt lat="47.22292" lon="-0.06744">
        <ele>88</ele>
        <time>2011-02-20T14:52:41Z</time>
      </trkpt>
    </trkseg>
  </trk>
</gpx>